[[{"header":{"parameterUnit":"m.s-1","parameterCategory":1,"la1":30.6,"la2":28.766,"lo1":-90.7593,"lo2":-88.6598,"dx":0.0162,"dy":0.0183,"nx":116,"ny":114,"refTime":"2022-12-31T18:00:00:Z","depth":0,"parameterNumber":2,"parameterNumberName":"U-component_of_WINDS"},"data":[0.0,0.0,0.0,0.0,0.0,0.0,0.0,0.0,0.0,0.0,0.0,0.0,0.0,0.0,0.0,0.0,0.0,0.0,0.0,0.0,0.0,0.0,0.0,0.0,0.0,0.0,0.0,0.0,0.0,0.0,0.0,0.0,0.0,0.0,0.0,0.0,0.0,0.0,0.0,0.0,0.0,0.0,0.0,0.0,0.0,0.0,0.0,0.0,0.0,0.0,0.0,0.0,0.0,0.0,0.0,0.0,0.0,0.0,0.0,0.0,0.0,0.0,0.0,0.0,0.0,0.0,0.0,0.0,0.0,0.0,0.0,0.0,0.0,0.0,0.0,0.0,0.0,0.0,0.0,0.0,0.0,0.0,0.0,0.0,0.0,0.0,0.0,0.0,0.0,0.0,0.0,0.0,0.0,0.0,0.0,0.0,0.0,0.0,0.0,0.0,0.0,0.0,0.0,0.0,0.0,0.0,0.0,0.0,0.0,0.0,0.0,0.0,0.0,0.0,0.0,0.0,0.0,0.0,0.0,0.0,0.0,0.0,0.0,0.0,0.0,0.0,0.0,0.0,0.0,0.0,0.0,0.0,0.0,0.0,0.0,0.0,0.0,0.0,0.0,0.0,0.0,0.0,0.0,0.0,0.0,0.0,0.0,0.0,0.0,0.0,0.0,0.0,0.0,0.0,0.0,0.0,0.0,0.0,0.0,0.0,0.0,0.0,0.0,0.0,0.0,0.0,0.0,0.0,0.0,0.0,0.0,0.0,0.0,0.0,0.0,0.0,0.0,0.0,0.0,0.0,0.0,0.0,0.0,0.0,0.0,0.0,0.0,0.0,0.0,0.0,0.0,0.0,0.0,0.0,0.0,0.0,0.0,0.0,0.0,0.0,0.0,0.0,0.0,0.0,0.0,0.0,0.0,0.0,0.0,0.0,0.0,0.0,0.0,0.0,0.0,0.0,0.0,0.0,0.0,0.0,0.0,0.0,0.0,0.0,0.0,0.0,0.0,0.0,0.0,0.0,0.0,0.0,0.0,0.0,0.0,0.0,0.0,0.0,0.0,0.0,0.0,0.0,0.0,0.0,0.0,0.0,0.0,0.0,0.0,0.0,0.0,0.0,0.0,0.0,0.0,0.0,0.0,0.0,0.0,0.0,0.0,0.0,0.0,0.0,0.0,0.0,0.0,0.0,0.0,0.0,0.0,0.0,0.0,0.0,0.0,0.0,0.0,0.0,0.0,0.0,0.0,0.0,0.0,0.0,0.0,0.0,0.0,0.0,0.0,0.0,0.0,0.0,0.0,0.0,0.0,0.0,0.0,0.0,0.0,0.0,0.0,0.0,0.0,0.0,0.0,0.0,0.0,0.0,0.0,0.0,0.0,0.0,0.0,0.0,0.0,0.0,0.0,0.0,0.0,0.0,0.0,0.0,0.0,0.0,0.0,0.0,0.0,0.0,0.0,0.0,0.0,0.0,0.0,0.0,0.0,0.0,0.0,0.0,0.0,0.0,0.0,0.0,0.0,0.0,0.0,0.0,0.0,0.0,0.0,0.0,0.0,0.0,0.0,0.0,0.0,0.0,0.0,0.0,0.0,0.0,0.0,0.0,0.0,0.0,0.0,0.0,0.0,0.0,0.0,0.0,0.0,0.0,0.0,0.0,0.0,0.0,0.0,0.0,0.0,0.0,0.0,0.0,0.0,0.0,0.0,0.0,0.0,0.0,0.0,0.0,0.0,0.0,0.0,0.0,0.0,0.0,0.0,0.0,0.0,0.0,0.0,0.0,0.0,0.0,0.0,0.0,0.0,0.0,0.0,0.0,0.0,0.0,0.0,0.0,0.0,0.0,0.0,0.0,0.0,0.0,0.0,0.0,0.0,0.0,0.0,0.0,0.0,0.0,0.0,0.0,0.0,0.0,0.0,0.0,0.0,0.0,0.0,0.0,0.0,0.0,0.0,0.0,0.0,0.0,0.0,0.0,0.0,0.0,0.0,0.0,0.0,0.0,0.0,0.0,0.0,0.0,0.0,0.0,0.0,0.0,0.0,0.0,0.0,0.0,0.0,0.0,0.0,0.0,0.0,0.0,0.0,0.0,0.0,0.0,0.0,0.0,0.0,0.0,0.0,0.0,0.0,0.0,0.0,0.0,0.0,0.0,0.0,0.0,0.0,0.0,0.0,0.0,0.0,0.0,0.0,0.0,0.0,0.0,0.0,0.0,0.0,0.0,0.0,0.0,0.0,0.0,0.0,0.0,0.0,0.0,0.0,0.0,0.0,0.0,0.0,0.0,0.0,0.0,0.0,0.0,0.0,0.0,0.0,0.0,0.0,0.0,0.0,0.0,0.0,0.0,0.0,0.0,0.0,0.0,0.0,0.0,0.0,0.0,0.0,0.0,0.0,0.0,0.0,0.0,0.0,0.0,0.0,0.0,0.0,0.0,0.0,0.0,0.0,0.0,0.0,0.0,0.0,0.0,0.0,0.0,0.0,0.0,0.0,0.0,0.0,0.0,0.0,0.0,0.0,0.0,0.0,0.0,0.0,0.0,0.0,0.0,0.0,0.0,0.0,0.0,0.0,0.0,0.0,0.0,0.0,0.0,0.0,0.0,0.0,0.0,0.0,0.0,0.0,0.0,0.0,0.0,0.0,0.0,0.0,0.0,0.0,0.0,0.0,0.0,0.0,0.0,0.0,0.0,0.0,0.0,0.0,0.0,0.0,0.0,0.0,0.0,0.0,0.0,0.0,0.0,0.0,0.0,0.0,0.0,0.0,0.0,0.0,0.0,0.0,0.0,0.0,0.0,0.0,0.0,0.0,0.0,0.0,0.0,0.0,0.0,0.0,0.0,0.0,0.0,0.0,0.0,0.0,0.0,0.0,0.0,0.0,0.0,0.0,0.0,0.0,0.0,0.0,0.0,0.0,0.0,0.0,0.0,0.0,0.0,0.0,0.0,0.0,0.0,0.0,0.0,0.0,0.0,0.0,0.0,0.0,0.0,0.0,0.0,0.0,0.0,0.0,0.0,0.0,0.0,0.0,0.0,0.0,0.0,0.0,0.0,0.0,0.0,0.0,0.0,0.0,0.0,0.0,0.0,0.0,0.0,0.0,0.0,0.0,0.0,0.0,0.0,0.0,0.0,0.0,0.0,0.0,0.0,0.0,0.0,0.0,0.0,0.0,0.0,0.0,0.0,0.0,0.0,0.0,0.0,0.0,0.0,0.0,0.0,0.0,0.0,0.0,0.0,0.0,0.0,0.0,0.0,0.0,0.0,0.0,0.0,0.0,0.0,0.0,0.0,0.0,0.0,0.0,0.0,0.0,0.0,0.0,0.0,0.0,0.0,0.0,0.0,0.0,0.0,0.0,0.0,0.0,0.0,0.0,0.0,0.0,0.0,0.0,0.0,0.0,0.0,0.0,0.0,0.0,0.0,0.0,0.0,0.0,0.0,0.0,0.0,0.0,0.0,0.0,0.0,0.0,0.0,0.0,0.0,0.0,0.0,0.0,0.0,0.0,0.0,0.0,0.0,0.0,0.0,0.0,0.0,0.0,0.0,0.0,0.0,0.0,0.0,0.0,0.0,0.0,0.0,0.0,0.0,0.0,0.0,0.0,0.0,0.0,0.0,0.0,0.0,0.0,0.0,0.0,0.0,0.0,0.0,0.0,0.0,0.0,0.0,0.0,0.0,0.0,0.0,0.0,0.0,0.0,0.0,0.0,0.0,0.0,0.0,0.0,0.0,0.0,0.0,0.0,0.0,0.0,0.0,0.0,0.0,0.0,0.0,0.0,0.0,0.0,0.0,0.0,0.0,0.0,0.0,0.0,0.0,0.0,0.0,0.0,0.0,0.0,0.0,0.0,0.0,0.0,0.0,0.0,0.0,0.0,0.0,0.0,0.0,0.0,0.0,0.0,0.0,0.0,0.0,0.0,0.0,0.0,0.0,0.0,0.0,0.0,0.0,0.0,0.0,0.0,0.0,0.0,0.0,0.0,0.0,0.0,0.0,0.0,0.0,0.0,0.0,0.0,0.0,0.0,0.0,0.0,0.0,0.0,0.0,0.0,0.0,0.0,0.0,0.0,0.0,0.0,0.0,0.0,0.0,0.0,0.0,0.0,0.0,0.0,0.0,0.0,0.0,0.0,0.0,0.0,0.0,0.0,0.0,0.0,0.0,0.0,0.0,0.0,0.0,0.0,0.0,0.0,0.0,0.0,0.0,0.0,0.0,0.0,0.0,0.0,0.0,0.0,0.0,0.0,0.0,0.0,0.0,0.0,0.0,0.0,0.0,0.0,0.0,0.0,0.0,0.0,0.0,0.0,0.0,0.0,0.0,0.0,0.0,0.0,0.0,0.0,0.0,0.0,0.0,0.0,0.0,0.0,0.0,0.0,0.0,0.0,0.0,0.0,0.0,0.0,0.0,0.0,0.0,0.0,0.0,0.0,0.0,0.0,0.0,0.0,0.0,0.0,0.0,0.0,0.0,0.0,0.0,0.0,0.0,0.0,0.0,0.0,0.0,0.0,0.0,0.0,0.0,0.0,0.0,0.0,0.0,0.0,0.0,0.0,0.0,0.0,0.0,0.0,0.0,0.0,0.0,0.0,0.0,0.0,0.0,0.0,0.0,0.0,0.0,0.0,0.0,0.0,0.0,0.0,0.0,0.0,0.0,0.0,0.0,0.0,0.0,0.0,0.0,0.0,0.0,0.0,0.0,0.0,0.0,0.0,0.0,0.0,0.0,0.0,0.0,0.0,0.0,0.0,0.0,0.0,0.0,0.0,0.0,0.0,0.0,0.0,0.0,0.0,0.0,0.0,0.0,0.0,0.0,0.0,0.0,0.0,0.0,0.0,0.0,0.0,0.0,0.0,0.0,0.0,0.0,0.0,0.0,0.0,0.0,0.0,0.0,0.0,0.0,0.0,0.0,0.0,0.0,0.0,0.0,0.0,0.0,0.0,0.0,0.0,0.0,0.0,0.0,0.0,0.0,0.0,0.0,0.0,0.0,0.0,0.0,0.0,0.0,0.0,0.0,0.0,0.0,0.0,0.0,0.0,0.0,0.0,0.0,0.0,0.0,0.0,0.0,0.0,0.0,0.0,0.0,0.0,0.0,0.0,0.0,0.0,0.0,0.0,0.0,0.0,0.0,0.0,0.0,0.0,0.0,0.0,0.0,0.0,0.0,0.0,0.0,0.0,0.0,0.0,0.0,0.0,0.0,0.0,0.0,0.0,0.0,0.0,0.0,0.0,0.0,0.0,0.0,0.0,0.0,0.0,0.0,0.0,0.0,0.0,0.0,0.0,0.0,0.0,0.0,0.0,0.0,0.0,0.0,0.0,0.0,0.0,0.0,0.0,0.0,0.0,0.0,0.0,0.0,0.0,0.0,0.0,0.0,0.0,0.0,0.0,0.0,0.0,0.0,0.0,0.0,0.0,0.0,0.0,0.0,0.0,0.0,0.0,0.0,0.0,0.0,0.0,0.0,0.0,0.0,0.0,0.0,0.0,0.0,0.0,0.0,0.0,0.0,0.0,0.0,0.0,0.0,0.0,0.0,0.0,0.0,0.0,0.0,0.0,0.0,0.0,0.0,0.0,0.0,0.0,0.0,0.0,0.0,0.0,0.0,0.0,0.0,0.0,0.0,0.0,0.0,0.0,0.0,0.0,0.0,0.0,0.0,0.0,0.0,0.0,0.0,0.0,0.0,0.0,0.0,0.0,0.0,0.0,0.0,0.0,0.0,0.0,0.0,0.0,0.0,0.0,0.0,0.0,0.0,0.0,0.0,0.0,0.0,0.0,0.0,0.0,0.0,0.0,0.0,0.0,0.0,0.0,0.0,0.0,0.0,0.0,0.0,0.0,0.0,0.0,0.0,0.0,0.0,0.0,0.0,0.0,0.0,0.0,0.0,0.0,0.0,0.0,0.0,0.0,0.0,0.0,0.0,0.0,0.0,0.0,0.0,0.0,0.0,0.0,0.0,0.0,0.0,0.0,0.0,0.0,0.0,0.0,0.0,0.0,0.0,0.0,0.0,0.0,0.0,0.0,0.0,0.0,0.0,0.0,0.0,0.0,0.0,0.0,0.0,0.0,0.0,0.0,0.0,0.0,0.0,-1.1064,-0.9785,0.0,0.0,0.0,0.0,0.0,0.0,0.0,0.0,0.0,0.0,0.0,0.0,0.0,0.0,0.0,0.0,0.0,0.0,0.0,0.0,0.0,0.0,0.0,0.0,0.0,0.0,0.0,0.0,0.0,0.0,0.0,0.0,0.0,0.0,0.0,0.0,-0.5859,-0.6719,-0.7535,-0.9045,-1.1143,-1.002,-0.9053,-0.8232,0.0,0.0,0.0,0.0,0.0,0.0,0.0,0.0,0.0,0.0,0.0,0.0,0.0,0.0,0.0,0.0,0.0,0.0,0.0,0.0,0.0,0.0,0.0,0.0,0.0,0.0,0.0,0.0,0.0,0.0,0.0,0.0,0.0,0.0,0.0,0.0,0.0,0.0,0.0,0.0,0.0,0.0,0.0,0.0,0.0,0.0,0.0,0.0,0.0,0.0,0.0,0.0,0.0,0.0,0.0,0.0,0.0,0.0,0.0,0.0,0.0,0.0,0.0,0.0,0.0,0.0,0.0,0.0,0.0,0.0,-1.0995,-1.0804,0.0,0.0,0.0,0.0,0.0,0.0,0.0,0.0,0.0,0.0,0.0,0.0,0.0,0.0,0.0,0.0,0.0,0.0,0.0,0.0,0.0,0.0,0.0,-0.6318,-0.6582,-0.6738,-0.6667,-0.6484,0.0,0.0,0.0,0.0,0.0,0.0,-0.5331,-0.5859,-0.6797,-0.8158,-1.004,-1.2096,-1.4297,-1.4443,-1.3525,-1.166,-0.995,0.0,0.0,0.0,0.0,0.0,0.0,0.0,0.0,0.0,0.0,0.0,0.0,0.0,0.0,0.0,0.0,0.0,0.0,0.0,0.0,0.0,0.0,0.0,0.0,0.0,0.0,0.0,0.0,0.0,0.0,0.0,0.0,0.0,0.0,0.0,0.0,0.0,0.0,0.0,0.0,0.0,0.0,0.0,0.0,0.0,0.0,0.0,0.0,0.0,0.0,0.0,0.0,0.0,0.0,0.0,0.0,0.0,0.0,0.0,0.0,0.0,0.0,0.0,-0.9297,-0.9642,-1.0227,-1.0312,-1.0816,-1.1678,-1.0716,-1.1732,-1.3832,-1.1412,0.0,0.0,0.0,0.0,0.0,0.0,0.0,0.0,0.0,0.0,0.0,0.0,0.0,0.0,0.0,0.0,0.0,0.0,0.0,0.0,0.0,-0.6973,-0.7314,-0.8072,-0.7759,-0.7501,-0.7442,0.0,0.0,0.0,0.0,0.0,-0.6228,-0.7037,-0.8266,-0.996,-1.4248,-1.6719,-1.7432,-1.8174,-1.8174,-1.735,-1.3857,-1.2041,-1.1482,0.0,0.0,0.0,0.0,0.0,0.0,0.0,0.0,0.0,0.0,0.0,0.0,0.0,0.0,0.0,0.0,0.0,0.0,0.0,0.0,0.0,0.0,0.0,0.0,0.0,0.0,0.0,0.0,0.0,0.0,0.0,0.0,0.0,0.0,0.0,0.0,0.0,0.0,0.0,0.0,0.0,-1.0963,-1.0956,0.0,0.0,0.0,0.0,0.0,0.0,0.0,0.0,0.0,0.0,0.0,0.0,0.0,-0.9848,-1.0017,-0.9011,-0.8947,-0.9787,-1.0098,-1.0831,-1.1986,-1.2284,-1.2593,-1.2961,-1.2797,0.0,-1.1812,-1.1697,0.0,0.0,0.0,0.0,0.0,0.0,0.0,0.0,0.0,0.0,0.0,0.0,0.0,0.0,0.0,0.0,0.0,0.0,0.0,0.0,0.0,-0.9102,-0.959,-1.0469,-1.0351,-0.9825,-0.8834,-0.8607,0.0,0.0,0.0,-0.6523,-0.6787,-0.835,-1.0957,-1.4629,-1.7709,-1.9558,-2.0195,-2.0576,-2.0644,-2.0381,-1.8437,-1.6123,-1.3574,-1.2139,0.0,0.0,0.0,0.0,0.0,0.0,0.0,0.0,0.0,0.0,0.0,0.0,0.0,0.0,0.0,0.0,0.0,0.0,0.0,0.0,0.0,0.0,0.0,0.0,0.0,0.0,0.0,0.0,0.0,0.0,0.0,0.0,0.0,0.0,0.0,0.0,0.0,0.0,0.0,-1.1069,-1.1114,-1.1364,-1.024,-0.9376,0.0,0.0,0.0,0.0,0.0,0.0,0.0,0.0,0.0,-0.9832,-0.9419,-0.9635,-1.0579,-0.9512,-0.929,-0.9904,-0.94,-0.9792,-1.0951,-1.11,-1.1577,-1.2267,-1.2923,-1.2554,-1.1484,-1.21,-1.2041,-1.149,0.0,0.0,0.0,0.0,-1.0213,-1.0286,0.0,0.0,0.0,0.0,0.0,0.0,0.0,0.0,0.0,0.0,0.0,0.0,-1.0625,-1.126,-1.1934,-1.2779,-1.2759,-1.2194,-1.1005,-1.0517,-0.9659,-0.8316,-0.7588,-0.7427,-0.79,-1.0557,-1.4092,-1.8496,-2.0225,-2.1406,-2.2051,-2.2158,-2.2148,-2.2031,-2.1709,-1.959,-1.6212,-1.4883,-1.3061,-1.0956,0.0,0.0,0.0,0.0,0.0,0.0,0.0,0.0,0.0,0.0,0.0,0.0,0.0,0.0,0.0,0.0,0.0,0.0,0.0,0.0,0.0,0.0,0.0,0.0,0.0,0.0,0.0,0.0,0.0,0.0,0.0,0.0,0.0,0.0,0.0,0.0,0.0,-1.1232,-1.1416,-1.155,-1.0324,-0.9321,0.0,0.0,0.0,0.0,0.0,0.0,-0.9227,-0.8974,-0.9037,-0.9467,-0.9524,-1.0109,-1.1321,-1.0218,-0.9742,-0.9898,-0.9055,-0.9123,-0.9983,-1.0269,-1.0876,-1.1764,-1.293,-1.2936,-1.2202,-1.2644,-1.2984,-1.3074,-1.2094,-1.1437,-1.1136,-1.1931,-1.1988,-1.1968,0.0,0.0,0.0,0.0,0.0,0.0,0.0,0.0,0.0,0.0,0.0,-1.0186,-1.1921,-1.2847,-1.3721,-1.458,-1.425,-1.4153,-1.4512,-1.2983,-1.1853,-1.14,-1.0137,-0.9659,-1.0136,-1.4248,-1.7496,-1.9814,-2.1562,-2.2441,-2.249,-2.2847,-2.2818,-2.248,-2.2461,-2.1641,-2.0155,-1.7627,-1.5976,-1.4834,-1.1523,0.0,0.0,0.0,0.0,0.0,0.0,0.0,0.0,0.0,0.0,0.0,0.0,0.0,0.0,0.0,0.0,0.0,0.0,0.0,0.0,0.0,0.0,0.0,0.0,0.0,0.0,0.0,0.0,0.0,0.0,0.0,0.0,0.0,0.0,0.0,0.0,0.0,0.0,-1.1025,-1.0304,0.0,0.0,0.0,0.0,-0.8872,-0.8309,-0.8425,-0.9531,-1.0023,-1.0623,-1.1362,-1.1476,-1.1585,-1.1684,-1.067,-1.006,-0.9898,-0.9857,-0.9932,-1.0225,-1.1302,-1.1974,-1.2329,-1.3516,-1.3999,-1.3911,-1.3394,-1.2831,-1.2361,-1.2278,-1.1915,-1.1437,-1.2069,-1.2271,-1.2498,0.0,0.0,0.0,-0.7353,-0.7032,-0.6758,-0.6443,-0.6872,-0.7613,-0.8652,-1.0235,-1.194,-1.3691,-1.4639,-1.5527,-1.6408,-1.6318,-1.5928,-1.5234,-1.4075,-1.3237,-1.2832,-1.1823,-1.2515,-1.5195,-1.7305,-1.9434,-2.1592,-2.2438,-2.3057,-2.334,-2.3486,-2.3623,-2.374,-2.374,-2.333,-2.251,-2.0488,-1.8486,-1.6523,-1.4754,-1.2514,0.0,0.0,0.0,0.0,0.0,0.0,0.0,0.0,0.0,0.0,0.0,0.0,0.0,0.0,0.0,0.0,0.0,0.0,0.0,0.0,0.0,0.0,0.0,0.0,0.0,0.0,0.0,0.0,0.0,0.0,0.0,0.0,0.0,0.0,0.0,0.0,0.0,-0.9451,-0.9033,0.0,-0.821,-0.8474,-0.8758,-0.8876,-0.8395,-0.8263,-0.8661,-0.8256,-0.8475,-0.9488,-0.9538,-1.0345,-1.1951,-1.0166,-0.961,-1.0331,-0.8931,-0.8723,-0.953,-1.0011,-1.0289,-1.0495,-1.2522,-1.2978,-1.2427,-1.3803,-1.3988,-1.3447,-1.3447,-1.332,-1.3166,-1.3373,-1.3447,-1.3494,0.0,0.0,0.0,-0.7391,-0.7301,-0.7193,-0.6891,-0.7457,-0.8408,-0.9716,-1.1494,-1.3344,-1.5244,-1.6201,-1.6953,-1.7539,-1.7598,-1.7344,-1.6758,-1.5508,-1.4668,-1.4385,-1.3545,-1.4775,-1.8359,-1.9277,-2.0781,-2.2939,-2.3223,-2.3574,-2.4004,-2.4004,-2.415,-2.4414,-2.4414,-2.4258,-2.3916,-2.2637,-2.0859,-1.8789,-1.7461,-1.5391,-1.2891,0.0,0.0,0.0,0.0,0.0,0.0,0.0,0.0,0.0,0.0,0.0,0.0,0.0,0.0,0.0,0.0,0.0,0.0,0.0,0.0,0.0,0.0,0.0,0.0,0.0,0.0,0.0,0.0,0.0,0.0,0.0,0.0,0.0,0.0,-0.8969,-0.9263,-0.8332,-0.8221,-0.8043,-0.7597,-0.7932,-0.816,-0.816,-0.787,-0.7702,-0.7764,-0.7518,-0.7913,-0.9086,-0.9502,-1.0731,-1.2903,-1.0979,-1.0269,-1.0794,-0.8927,-0.8215,-0.8623,-0.9565,-0.9992,-1.0126,-1.2603,-1.3251,-1.266,-1.4315,-1.478,-1.4382,-1.4382,-1.4382,-1.4382,-1.4382,-1.4382,-1.4355,0.0,0.0,-0.7695,-0.7695,-0.7695,-0.7695,-0.7695,-0.8115,-0.9177,-1.1322,-1.2729,-1.4319,-1.6463,-1.7467,-1.8008,-1.8008,-1.8008,-1.8359,-1.917,-1.7269,-1.6085,-1.6084,-1.5293,-1.6266,-1.926,-2.0157,-2.167,-2.3789,-2.3799,-2.4023,-2.4434,-2.4434,-2.4443,-2.4453,-2.4453,-2.4453,-2.4414,-2.4004,-2.3096,-2.1758,-1.9563,-1.8213,-1.7119,0.0,0.0,0.0,0.0,0.0,0.0,0.0,0.0,0.0,0.0,0.0,0.0,0.0,0.0,0.0,0.0,0.0,0.0,0.0,0.0,0.0,0.0,0.0,0.0,0.0,0.0,0.0,0.0,0.0,0.0,0.0,0.0,0.0,-0.734,-0.8254,-0.8647,-0.7786,-0.7974,-0.7914,-0.7339,-0.6939,-0.6715,-0.6715,-0.6715,-0.678,-0.6883,-0.8037,-0.9255,-1.0567,-1.1703,-1.3004,-1.4486,-1.3235,-1.2193,-1.1329,-0.9996,-0.8804,-0.7792,-1.0241,-1.1303,-1.1441,-1.3882,-1.499,-1.499,-1.499,-1.5035,-1.5035,-1.5015,-1.5008,-1.5008,-1.5008,-1.5008,-1.5008,-0.7695,-0.7695,-0.7695,-0.7695,-0.7695,-0.7695,-0.7695,-0.8344,-0.951,-1.1361,-1.2959,-1.464,-1.6502,-1.7467,-1.8008,-1.8008,-1.8008,-1.7978,-1.791,-1.6455,-1.5529,-1.5396,-1.5895,-1.7345,-1.9891,-2.0518,-2.1802,-2.3789,-2.4092,-2.4463,-2.4893,-2.4893,-2.5059,-2.5323,-2.5323,-2.5195,-2.4883,-2.4812,-2.416,-2.3135,-2.1602,-2.0098,-1.8603,0.0,0.0,0.0,0.0,0.0,0.0,0.0,0.0,0.0,0.0,0.0,0.0,0.0,0.0,0.0,0.0,0.0,0.0,0.0,0.0,0.0,0.0,0.0,0.0,0.0,0.0,0.0,0.0,0.0,0.0,0.0,-0.7073,-0.7237,-0.6911,-0.7679,-0.7957,-0.7085,-0.7162,-0.7207,-0.7041,-0.6994,-0.6974,-0.6974,-0.6974,-0.6994,-0.7038,-0.7494,-0.8722,-1.0892,-1.1368,-1.2619,-1.4836,-1.365,-1.2915,-1.2666,-1.1579,-1.0863,-1.0584,-1.1359,-1.1763,-1.1811,-1.3478,-1.4192,-1.4286,-1.5204,-1.5591,-1.5545,-1.513,-1.5008,-1.5008,-1.5008,-1.5008,-1.5008,-0.7695,-0.7695,-0.7695,-0.7695,-0.7695,-0.7695,-0.7695,-0.8587,-0.9951,-1.1888,-1.3457,-1.5108,-1.7028,-1.7715,-1.8008,-1.8008,-1.8008,-1.7832,-1.7445,-1.6059,-1.5323,-1.5489,-1.5914,-1.7169,-1.9408,-2.0422,-2.169,-2.3303,-2.4241,-2.4912,-2.5352,-2.5352,-2.5488,-2.5693,-2.5693,-2.5596,-2.5332,-2.5194,-2.4832,-2.4228,-2.3125,-2.1865,-2.0527,-1.9482,-1.8496,-1.751,-1.619,-1.5615,-1.543,-1.5,0.0,0.0,0.0,0.0,0.0,0.0,0.0,0.0,0.0,0.0,0.0,0.0,0.0,0.0,0.0,0.0,0.0,0.0,0.0,0.0,0.0,0.0,0.0,0.0,-0.6074,-0.6327,-0.6736,-0.7213,-0.7349,-0.6828,-0.6883,-0.6974,-0.6974,-0.7153,-0.7238,-0.7238,-0.7295,-0.7287,-0.7287,-0.7911,-0.9183,-1.1131,-1.1764,-1.3076,-1.5144,-1.3927,-1.3431,-1.3643,-1.24,-1.1847,-1.1991,-1.2506,-1.2721,-1.2818,-1.4124,-1.4704,-1.4752,-1.5486,-1.5784,-1.5751,0.0,0.0,0.0,0.0,-1.5331,-1.5331,-0.7695,-0.7695,-0.7695,-0.7695,-0.7695,-0.7695,-0.7695,-0.8736,-1.0342,-1.2588,-1.3945,-1.5557,-1.7764,-1.8008,-1.7988,-1.7939,-1.7978,-1.7755,-1.7228,-1.5858,-1.5256,-1.5734,-1.5425,-1.6243,-1.8374,-1.9991,-2.1436,-2.2793,-2.4364,-2.5352,-2.5693,-2.5693,-2.5693,-2.5693,-2.5693,-2.5664,-2.5635,-2.5185,-2.4971,-2.49,-2.4043,-2.3291,-2.2529,-2.1318,-2.0615,-2.0117,-1.8887,-1.8203,-1.7812,-1.7291,0.0,0.0,0.0,0.0,0.0,0.0,0.0,0.0,0.0,0.0,0.0,0.0,0.0,0.0,0.0,0.0,0.0,0.0,0.0,0.0,0.0,0.0,0.0,0.0,-0.513,-0.5381,-0.6715,-0.6923,-0.6937,-0.6937,-0.7045,-0.7129,-0.7146,-0.7316,-0.7443,-0.7443,-0.7522,-0.76,-0.76,-0.8672,0.0,0.0,0.0,-1.3832,-1.5444,-1.4251,-1.3957,-1.4459,-1.3013,-1.2508,-1.2872,-1.3705,-1.4148,-1.4304,-1.5402,-1.5851,-1.5878,-1.5878,-1.5878,-1.5871,-1.5804,-1.5784,-1.5784,-1.5784,-1.5784,-1.5784,-0.7695,-0.7695,-0.7695,-0.7695,-0.7695,-0.7695,-0.7695,-0.8509,-1.0029,-1.2573,-1.3691,-1.5186,-1.7734,-1.8008,-1.7871,-1.7529,-1.7812,-1.7431,-1.6108,-1.5089,-1.4456,-1.4222,-1.4297,-1.5664,-1.8519,-1.9584,-2.1391,-2.4034,-2.5072,-2.5606,-2.5693,-2.5693,-2.5693,-2.5693,-2.5693,-2.5537,-2.5166,-2.4727,-2.4346,-2.3994,-2.3486,-2.3389,-2.3477,-2.2871,-2.2545,-2.235,-2.1465,-2.1084,-2.0898,-2.0088,-1.8965,-1.7769,-1.7305,-1.625,0.0,0.0,0.0,0.0,0.0,0.0,0.0,0.0,0.0,0.0,0.0,0.0,0.0,0.0,0.0,0.0,0.0,0.0,0.0,-0.4674,-0.4965,-0.5542,-0.6856,-0.7207,-0.7285,-0.7285,-0.7309,-0.7373,-0.7499,-0.7539,-0.7556,-0.7556,-0.7584,-0.76,-0.76,-0.794,-0.9188,-1.1546,-1.1961,-1.3284,-1.5698,-1.5455,-1.5406,-1.5517,-1.5172,0.0,-1.5562,-1.5473,-1.5686,-1.6166,-1.6188,-1.6319,-1.654,-1.654,-1.654,-1.6493,-1.5964,-1.5784,-1.5784,-1.5784,-1.5784,-1.5784,-0.7695,-0.7695,-0.7695,-0.7695,-0.7695,-0.7695,-0.7695,-0.8616,-1.002,-1.1985,-1.3154,-1.4533,-1.6494,-1.6523,-1.6309,-1.6134,-1.6269,-1.6294,-1.6079,-1.5142,-1.4645,-1.4759,-1.4331,-1.5113,-1.7317,-1.8853,-2.0771,-2.3212,-2.4687,-2.5518,-2.5684,-2.5508,-2.54,-2.5391,-2.5176,-2.4834,-2.4414,-2.4199,-2.3857,-2.3383,-2.2446,-2.2505,-2.3154,-2.3101,-2.3091,-2.3042,-2.2623,-2.2373,-2.21,-2.1486,-2.0498,-1.9492,-1.8848,-1.7542,-1.5931,0.0,0.0,0.0,0.0,0.0,0.0,0.0,0.0,0.0,0.0,0.0,0.0,0.0,0.0,-0.3994,-0.2474,0.0,-0.2459,-0.3894,-0.4328,-0.5104,-0.6972,-0.7387,-0.7458,-0.7426,-0.7441,-0.7516,-0.7594,-0.7662,-0.7706,-0.7706,-0.7777,-0.7821,-0.7821,-0.8511,-0.9805,-1.173,-1.2512,-1.3895,-1.6046,-1.6192,-1.642,-1.6707,-1.6707,-1.678,-1.6914,-1.6627,-1.6567,-1.67,-1.6553,-1.6573,-1.6657,-1.5884,-1.5626,-1.5494,-1.4471,-1.4518,-1.5164,-1.5164,-1.468,-1.4072,-0.7837,-0.7754,-0.7725,-0.7797,-0.7754,-0.7725,-0.7812,-0.8705,-0.9883,-1.1281,-1.2516,-1.3797,-1.5151,-1.4925,-1.467,-1.4676,-1.4535,-1.4967,-1.6195,-1.5427,-1.5101,-1.5561,-1.4824,-1.5043,-1.643,-1.8254,-2.012,-2.2116,-2.3836,-2.4883,-2.5177,-2.4863,-2.4697,-2.4678,-2.4326,-2.3935,-2.3535,-2.3457,-2.3223,-2.2765,-2.1489,-2.1419,-2.2105,-2.2678,-2.2717,-2.2524,-2.2524,-2.2313,-2.2009,-2.1812,-2.1289,-2.0557,-1.9551,-1.8135,-1.6508,-1.4965,-1.3845,0.0,0.0,0.0,0.0,0.0,0.0,0.0,0.0,-0.7841,-0.5989,-0.4998,-0.4227,-0.3247,-0.1571,-0.1354,-0.1993,-0.3726,-0.4124,-0.4954,-0.7135,-0.7546,-0.7594,-0.7472,-0.7567,-0.7651,-0.7682,-0.7787,-0.7855,-0.7855,-0.7921,-0.7988,-0.7988,-0.9019,-1.0288,-1.1848,-1.2963,-1.4395,-1.6273,-1.656,-1.6941,-1.7415,-1.7468,-1.7502,-1.7488,-1.7246,-1.7045,-1.6874,-1.6874,-1.6563,-1.5992,-1.5056,-1.4487,-1.4128,-1.3044,-1.3096,-1.3854,-1.4021,-1.3303,-1.2385,-0.8326,-0.7983,-0.7812,-0.8176,-0.7932,-0.7827,-0.8176,-0.8394,-0.9111,-1.0762,-1.1833,-1.3088,-1.4768,-1.4553,-1.4245,-1.417,-1.3578,-1.3937,-1.567,-1.5434,-1.5232,-1.5189,-1.539,-1.6228,-1.7745,-1.8352,-1.9903,-2.2432,-2.3038,-2.3335,-2.3383,-2.3335,-2.3305,-2.3305,-2.332,-2.3066,-2.2627,-2.2256,-2.207,-2.1992,-2.138,-2.0866,-2.0581,-2.1649,-2.1398,-2.051,-2.051,-2.0482,-2.0559,-2.1101,-2.12,-2.0875,-1.949,-1.8679,-1.7932,-1.6155,-1.4999,-1.4159,-1.3394,-1.1916,-1.0309,-0.9171,-0.8578,-0.8308,0.0,-0.7155,-0.5476,-0.4048,-0.2848,-0.2037,-0.1905,-0.1917,-0.2715,-0.5162,-0.5566,-0.6051,-0.7383,-0.7695,-0.778,-0.7763,-0.7777,-0.7841,-0.7928,-0.7955,-0.7965,-0.7965,-0.7978,-0.7988,-0.7988,-0.8137,-0.9361,-1.1799,-1.2042,-1.3473,-1.6273,-1.656,-1.674,-1.6807,-1.7119,-1.7246,-1.7239,-1.6894,-1.7021,-1.7482,-1.7482,-1.6035,-1.3778,-1.4851,-1.4579,-1.3408,-1.3242,-1.2494,-1.1594,-1.2333,-1.2536,-1.2413,-0.9107,-0.8992,-0.9077,-0.9754,-0.8887,-0.8167,-0.8324,-0.8579,-0.9082,-1.002,-1.07,-1.1446,-1.2418,-1.2334,-1.2241,-1.224,-1.26,-1.3717,-1.5804,-1.5667,-1.5557,-1.5724,-1.5481,-1.5683,-1.6399,-1.7646,-1.9219,-2.1156,-2.225,-2.2857,-2.3091,-2.2847,-2.273,-2.2721,-2.2529,-2.2178,-2.1717,-2.1582,-2.1357,-2.1054,-2.0263,-2.0123,-2.0344,-1.9534,-1.9178,-1.9236,-2.0379,-1.9743,0.0,-2.0288,-1.9778,-1.8428,-1.8665,-1.7622,-1.6171,-1.5246,-1.4396,-1.361,-1.2975,-1.1455,-0.9932,-0.9324,-0.8702,-0.8238,-0.8189,-0.7288,-0.6102,-0.4994,-0.4406,-0.3944,-0.3279,-0.3143,-0.3762,-0.5492,-0.5841,-0.632,-0.7528,-0.7848,-0.7894,-0.7894,-0.7894,-0.7921,-0.7982,-0.7988,-0.7988,-0.7988,-0.7988,-0.7988,-0.7988,-0.7988,-0.9213,-1.1799,-1.2071,-1.3589,-1.652,-1.6265,-1.6215,-1.6376,-1.6857,-1.69,-1.6536,-1.652,-1.5987,-1.5097,-1.5097,-1.4395,-1.327,-1.2994,-1.2566,-1.1914,-1.1051,-1.0347,-0.9951,-1.1196,-1.1066,-1.0347,-0.9816,-0.9905,-1.0118,-1.0751,-0.991,-0.9094,-0.8956,-0.908,-0.9288,-0.9552,-1.0106,-1.0559,-1.0851,-1.0999,-1.0972,-1.0744,-1.1713,-1.3203,-1.523,-1.5542,-1.5673,-1.5648,-1.5475,-1.5313,-1.5162,-1.6806,-1.8365,-1.9716,-2.1244,-2.2139,-2.2379,-2.2119,-2.1973,-2.1963,-2.166,-2.1348,-2.1045,-2.1045,-2.0859,-2.0518,-1.9756,-1.9726,-1.9972,-1.8429,-1.7713,-1.772,-1.9212,-1.8422,-1.6856,-1.8443,-1.7677,-1.6156,-1.69,-1.5901,-1.4419,-1.4249,-1.3565,-1.2556,-1.1006,-0.9783,-0.8836,-0.8525,-0.8034,-0.7684,-0.7866,-0.7234,-0.6408,-0.5772,-0.5447,-0.5131,-0.4635,-0.4546,-0.4936,-0.621,-0.6486,-0.6841,-0.7726,-0.7921,-0.8005,-0.8099,-0.8015,-0.8005,-0.8099,-0.8015,-0.7988,-0.7988,-0.7988,-0.7988,-0.7988,-0.8029,-0.9088,-1.1349,-1.2159,-1.3757,-1.6201,-1.6404,-1.6282,-1.5931,-1.6504,-1.6309,-1.531,-1.5421,-1.4449,-1.2729,-1.3102,-1.2837,-1.2023,-1.1378,-1.0836,-1.0402,-0.932,-0.8885,-0.9047,-1.0076,-0.973,-0.8879,-1.0379,-1.0432,-1.0478,-1.051,-1.0787,-1.0839,-1.0308,-0.9929,-0.966,-0.9606,-1.045,-1.1086,-1.108,-1.1501,-1.1386,-1.039,-1.1008,-1.2026,-1.3382,-1.5006,-1.541,-1.4298,-1.5489,-1.5749,-1.4809,-1.6226,-1.7441,-1.857,-1.9975,-2.0664,-2.0683,-2.0664,-2.0664,-2.0664,-2.0644,-2.0635,-2.0625,-2.0625,-2.0615,-2.0605,-2.0566,-1.9962,-1.9073,-1.9182,-1.766,-1.5548,-1.6007,-1.5844,-1.5387,-1.5016,-1.4999,-1.4967,-1.3967,-1.3584,-1.3551,-1.3631,-1.2912,-1.1249,-0.728,-0.6356,-0.6297,-0.5442,-0.5458,-0.6045,-0.7332,-0.667,-0.5818,-0.5777,-0.4883,-0.4439,-0.5688,-0.5953,-0.6382,-0.77,-0.7928,-0.7932,-0.7982,-0.7985,-0.8096,-0.8245,-0.813,-0.8099,-0.8248,-0.813,-0.7988,-0.7988,-0.7988,-0.7988,-0.7988,-0.818,-0.8911,-1.0205,-1.2053,-1.3645,-1.5024,-1.7306,-1.7399,-1.5446,-1.6018,-1.5271,-1.3393,-1.3393,-1.2575,-1.1269,-1.2674,-1.1701,-0.9154,-1.0511,-1.0241,-0.8937,-0.894,-0.8885,-0.8885,-0.8937,-0.8933,-0.8878,-1.0732,-1.1096,-1.1456,-1.1779,-1.1943,-1.1861,-1.1374,-1.0656,-1.0169,-1.0121,-1.0389,0.0,0.0,0.0,0.0,0.0,-1.0905,-1.1708,-1.3357,-1.4501,-1.5041,-1.4942,-1.6082,-1.6289,-1.5359,-1.6699,-1.7625,-1.7974,-1.9145,-1.9863,-2.0137,-2.0137,-2.0283,-2.0605,-2.0605,-2.0605,-2.0605,-2.0605,-2.0439,-2.0137,-2.0137,-1.956,-1.8821,-1.9442,-1.8113,-1.5756,0.0,-1.3991,-1.3016,-1.3943,-1.3284,-1.222,-1.2732,-1.2295,-1.1509,-1.1236,-0.9803,-0.8065,-0.6919,-0.5485,-0.4521,-0.5267,-0.5536,-0.5973,-0.7312,-0.7265,-0.7001,-0.7088,-0.7354,-0.7701,-0.8243,-0.8324,-0.8486,-0.8937,-0.8414,-0.7988,-0.7988,-0.7988,-0.8008,-0.8109,-0.8022,-0.8012,-0.8113,-0.8019,-0.7988,-0.7988,-0.7988,-0.8032,-0.8187,-0.8241,-0.8918,-1.0291,-1.2284,-1.3464,-1.3693,-1.4839,-1.4532,-1.2805,-1.2917,-1.2678,-1.2109,-1.1923,-1.1055,-0.9644,-1.0186,-0.9805,-0.8937,-0.9427,-0.9375,-0.8885,-0.8885,-0.8885,-0.8885,-0.8885,-0.8885,-0.8885,-1.0943,-1.1431,-1.1957,-1.2419,-1.2354,0.0,0.0,0.0,0.0,0.0,0.0,0.0,0.0,0.0,0.0,0.0,0.0,-1.1845,-1.2988,-1.4198,-1.4808,-1.4704,-1.5707,-1.5755,-1.4647,-1.5953,-1.6627,-1.6615,-1.81,-1.9043,-1.9426,-1.9619,-1.9844,-2.0145,-2.0145,-2.0145,-2.0136,-1.9941,-1.9893,-1.9863,-1.9258,-1.8822,-1.8559,-1.8223,-1.6953,0.0,-1.3442,-1.2081,-1.1186,-1.1808,-1.1152,-1.0255,-1.126,-1.1088,-1.0236,-0.8769,-0.745,-0.624,-0.5279,-0.4203,-0.3652,-0.476,-0.5372,-0.6088,-0.7397,-0.8004,-0.8314,-0.8505,-0.9188,-0.9804,-1.005,-1.0085,-1.0085,-1.0085,-0.9683,-0.9213,-0.8775,-0.8726,-0.8553,-0.8163,-0.8022,-0.8032,-0.8187,-0.815,-0.8099,-0.7992,-0.8092,-0.8167,-0.8316,-0.8421,-0.8917,-0.9853,-1.2295,-1.3242,-1.2402,-1.3968,-1.366,-1.1496,-1.0755,-1.0508,-1.0564,-1.0398,-0.9809,-0.8885,-0.8885,-0.8885,-0.8885,-0.8885,-0.8885,-0.8885,-0.8885,-0.8885,-0.8885,-0.8885,-0.8885,-0.8885,-1.1035,-1.1448,-1.1936,0.0,0.0,0.0,0.0,0.0,0.0,0.0,0.0,0.0,0.0,0.0,0.0,0.0,0.0,0.0,-1.231,-1.4046,-1.4652,-1.3682,-1.457,-1.4463,-1.3101,-1.4225,-1.4837,-1.4834,-1.6929,-1.8154,-1.8576,-1.9033,-1.9239,-1.9259,-1.9259,-1.9259,-1.9229,-1.8746,-1.903,-1.9607,-1.7973,-1.7734,-1.811,-1.5713,-1.4473,-1.3693,-1.1319,-1.0342,-1.0027,-0.8827,-0.8752,-0.9218,-0.9521,-0.9843,-0.9518,-0.643,-0.5891,-0.5642,-0.255,-0.2575,-0.3596,-0.4029,-0.5072,-0.6349,-0.7599,-0.8712,-0.9558,-0.9772,-1.0241,-1.0716,-1.0995,-1.1111,-1.1141,-1.1034,-1.1437,-1.1361,-1.0096,-0.9903,-0.9478,-0.8405,-0.814,-0.8163,-0.8455,-0.836,-0.8221,-0.8022,-0.8208,-0.8347,-0.8354,-0.8716,-0.8895,-0.8895,-1.2089,-1.2975,-1.1208,-1.4356,-1.4412,-1.1363,-0.9717,-0.8885,-0.8885,-0.8885,-0.8885,-0.8885,-0.8885,-0.8885,-0.8885,-0.8885,-0.8885,-0.8885,-0.8885,-0.8885,-0.8885,-0.8885,-0.8885,-0.8885,0.0,0.0,0.0,0.0,0.0,0.0,0.0,0.0,0.0,0.0,0.0,0.0,0.0,0.0,0.0,0.0,0.0,0.0,-1.233,-1.3074,-1.3681,-1.4105,-1.5368,-1.5885,-1.5512,-1.6245,-1.6634,-1.6647,-1.7188,-1.7671,-1.8088,-1.8215,-1.8458,-1.8786,-1.8786,-1.8786,-1.8754,-1.8119,-1.7816,-1.7621,-1.6394,-1.5625,-1.5215,-1.4912,-1.3926,-1.2575,-1.1684,-1.0873,-1.0035,-0.9048,-0.8802,-0.8857,-0.8539,-0.7592,-0.6448,-0.5698,-0.4153,-0.2707,-0.3007,-0.2741,-0.2928,-0.4993,-0.5727,-0.6545,-0.8605,-0.9234,-0.9478,-0.9997,-1.0723,-1.1146,-1.0652,-1.126,-1.1462,-1.0254,-1.0311,-0.9998,-0.8676,-0.8528,-0.8442,-0.8303,-0.8235,-0.8282,-0.8465,-0.8448,-0.8411,-0.8374,-0.8513,-0.8648,-0.8764,-0.8977,-0.9096,-0.9096,-1.1204,-1.1517,-0.9765,-1.0586,-1.0527,-0.9539,-0.912,-0.8885,-0.8885,-0.8885,-0.8885,-0.8885,-0.8885,-0.8885,-0.8885,-0.8885,-0.8885,-0.8885,-0.8885,-0.8885,-0.8885,-0.8885,-0.8885,-0.8885,0.0,0.0,0.0,0.0,0.0,0.0,0.0,0.0,0.0,0.0,0.0,0.0,0.0,0.0,0.0,0.0,0.0,0.0,0.0,-1.3182,-1.3648,-1.4197,-1.4967,-1.5268,-1.5048,-1.5307,-1.5583,-1.582,-1.5928,-1.6205,-1.6663,-1.6607,-1.6606,-1.6631,-1.6631,-1.6631,-1.6592,-1.6042,-1.5899,0.0,0.0,-1.3929,-1.3766,-1.3179,-1.2352,-1.1389,-1.0655,-0.997,-0.9302,-0.8652,-0.8521,-0.8408,-0.7187,-0.6277,-0.5363,-0.4027,-0.2938,-0.2259,-0.2697,-0.3205,-0.3964,-0.547,-0.6654,-0.7695,-0.8712,-0.9683,-1.0382,-1.0388,-1.093,-1.1329,-1.0918,-1.1306,-1.1408,-1.0527,-1.0651,-1.0391,-0.9069,-0.8931,-0.8812,-0.8361,-0.8378,-0.8421,-0.8567,-0.8581,-0.8611,-0.8676,-0.8699,-0.8747,-0.8832,-0.9103,-0.9309,-0.9309,-1.0811,-1.1139,-1.0051,-0.9391,-0.9018,-0.8885,-0.8885,-0.8885,-0.8885,-0.8885,-0.8885,-0.8885,-0.8885,-0.8885,-0.8885,-0.8885,-0.8885,-0.8885,-0.8885,-0.8885,-0.8885,-0.8885,-0.8885,-0.8885,0.0,0.0,0.0,0.0,0.0,0.0,0.0,0.0,0.0,-1.1534,-1.2039,-1.2549,-1.2693,-1.2997,0.0,0.0,0.0,0.0,0.0,0.0,-1.3909,-1.3972,-1.4065,-1.3871,-1.3413,-1.3359,-1.3579,-1.4041,-1.4272,-1.4582,-1.4959,-1.4847,-1.4517,-1.4013,-1.4013,-1.4013,-1.3967,-1.355,-1.3801,-1.4353,-1.27,-1.2515,-1.3041,0.0,-1.0575,-1.0515,-0.9299,-0.8577,-0.8242,-0.8069,-0.8156,-0.802,-0.6132,-0.5728,-0.5366,-0.2646,-0.2564,-0.3189,-0.2478,-0.3917,-0.5672,-0.6078,-0.7778,-0.9234,-0.8806,-1.026,-1.1503,-1.0787,-1.0974,-1.1255,-1.1176,-1.1255,-1.1209,-1.0946,-1.141,-1.1351,-1.0012,-0.9903,-0.9564,-0.8508,-0.8469,-0.8611,-0.8784,-0.8798,-0.8855,-0.8932,-0.8876,-0.8798,-0.8798,-0.9205,-0.9422,-0.9384,-1.0551,-1.1061,-1.0785,-0.9537,-0.8885,-0.8885,-0.8885,-0.8885,-0.8885,-0.8885,-0.8885,-0.8885,-0.8885,-0.8885,-0.8885,-0.8885,-0.8885,-0.8885,-0.8885,-0.8885,-0.8885,-0.8885,-0.8885,-0.8885,0.0,0.0,0.0,0.0,0.0,0.0,0.0,0.0,0.0,0.0,-1.2935,-1.2788,0.0,0.0,0.0,0.0,0.0,0.0,0.0,0.0,0.0,-1.3341,-1.3828,-1.4067,-1.3963,-1.4374,-1.464,-1.4728,-1.4774,-1.4614,-1.4262,-1.4241,-1.3979,-1.3509,-1.3509,-1.3509,-1.3477,-1.2902,-1.2767,-1.2784,-1.159,-1.1445,-1.1791,-1.0501,-1.0481,0.0,-0.9962,-0.8698,-0.7535,-0.7892,-0.8023,-0.7906,-0.707,-0.6192,-0.5403,-0.4854,-0.4128,-0.3767,-0.4673,-0.5267,-0.6154,-0.8496,-0.9378,-1.003,-1.1142,-1.1559,-1.1552,-1.1057,-1.0844,-1.0593,-1.0074,-1.0969,-1.1279,-0.9707,-1.0563,-1.0794,-0.9017,-0.8786,-0.8797,-0.8791,-0.879,-0.8967,-0.9239,-0.9266,-0.9276,-0.9303,-0.9279,-0.9266,-0.9266,-0.9568,-0.9632,-0.9388,-0.9538,-0.9497,-0.9265,-0.9047,-0.8885,-0.8885,-0.8885,-0.8885,-0.8885,-0.8885,-0.8885,-0.8885,-0.8885,-0.8885,-0.8885,-0.8885,-0.8885,-0.8885,-0.8885,-0.8885,-0.8885,-0.8885,-0.8885,-0.8885,0.0,0.0,0.0,0.0,0.0,0.0,0.0,-1.4403,-1.5194,-1.5884,-1.5217,-1.4679,-1.4636,-1.405,-1.3546,0.0,0.0,0.0,0.0,0.0,0.0,-1.3185,-1.3483,-1.3622,-1.3622,-1.3885,-1.4161,-1.4475,0.0,-1.354,-1.3314,-1.2753,-1.2243,-1.179,-1.179,-1.179,-1.177,-1.1469,-1.1358,-1.1287,-1.0641,-1.0512,-1.0631,-0.9849,-0.97,0.0,-0.9433,-0.8686,-0.7897,-0.8138,-0.7956,-0.7456,-0.6511,-0.5849,-0.527,-0.4641,-0.4508,-0.4696,-0.5335,-0.6382,-0.769,-0.9175,-1.0481,-1.141,-1.1479,-1.178,-1.1677,-1.0579,-1.008,-0.9786,-0.9506,-0.9971,-1.0213,-0.9613,-0.9827,-0.9789,-0.9026,-0.8783,-0.8774,-0.8865,-0.9076,-0.9225,-0.9367,-0.9381,-0.9381,-0.9381,-0.9456,-0.9466,-0.9384,-0.9591,-0.9608,-0.9388,-0.9367,-0.9164,-0.8885,-0.8885,-0.8885,-0.8885,-0.8885,-0.8885,-0.8885,-0.8885,-0.8885,-0.8885,-0.8885,-0.8885,-0.8885,-0.8885,-0.8885,-0.8885,-0.8885,-0.8885,-0.8885,-0.8885,-0.8885,-0.8885,0.0,0.0,0.0,0.0,0.0,0.0,0.0,-1.5483,-1.637,-1.7644,-1.7441,-1.6747,-1.5584,-1.4775,-1.4007,0.0,0.0,0.0,0.0,0.0,0.0,0.0,0.0,0.0,-1.3198,0.0,0.0,-1.3909,-1.2962,0.0,0.0,0.0,0.0,0.0,-1.0303,-1.0303,-1.0303,-1.0303,-1.0235,0.0,0.0,-0.9876,-0.9809,0.0,0.0,0.0,0.0,-0.8571,-0.8267,-0.8363,-0.7947,-0.7245,-0.6331,-0.6002,-0.5813,-0.4907,-0.5313,-0.5987,-0.5794,-0.7302,-0.9033,-0.9611,-1.1329,-1.262,-1.1698,-1.1904,-1.1804,-1.0047,-0.9446,-0.9231,-0.9297,-0.934,-0.9502,-0.9958,-0.9493,-0.9162,-0.9397,-0.9064,-0.8889,-0.9018,-0.9239,-0.9405,-0.9469,-0.9476,-0.9476,-0.9476,-0.9588,-0.9602,-0.9483,-0.9588,-0.9571,-0.9388,-0.9381,-0.9239,-0.8888,-0.8885,-0.8885,-0.8885,-0.8885,-0.8885,-0.8885,-0.8885,-0.8885,-0.8885,-0.8885,-0.8885,-0.8885,-0.8885,-0.8885,-0.8885,-0.8885,-0.8885,-0.8885,-0.8885,-0.8885,-0.8885,0.0,0.0,0.0,0.0,0.0,0.0,0.0,-1.5833,-1.7009,-1.833,-1.8477,-1.798,-1.6765,-1.5659,-1.4495,0.0,0.0,0.0,0.0,0.0,0.0,0.0,0.0,0.0,0.0,0.0,0.0,-1.3273,-1.2762,0.0,0.0,0.0,0.0,0.0,0.0,-1.0303,-1.0303,-1.0303,0.0,0.0,0.0,0.0,0.0,0.0,0.0,0.0,0.0,-0.8339,-0.7825,-0.825,-0.8064,-0.7707,-0.8025,-0.8047,-0.7956,-0.7947,-0.8037,-0.7947,-0.7142,-0.7881,-0.9279,-1.0909,-1.2257,-1.3131,-1.3024,-1.2643,-1.1804,-1.0047,-0.9446,-0.9291,-0.9593,-1.0099,-1.0471,-1.0528,-1.0009,-0.9655,-0.9739,-0.9065,-0.8726,-0.9276,-0.9364,-0.9486,-0.9754,-0.9781,-0.9781,-0.9781,-0.9791,-0.9795,-0.9781,-0.9795,-0.9673,-0.9391,-0.9381,-0.9239,-0.8888,-0.8885,-0.8885,-0.8885,-0.8885,-0.8885,-0.8885,-0.8885,-0.8885,-0.8885,-0.8885,-0.8885,-0.8885,-0.8885,-0.8885,-0.8885,-0.8885,-0.8885,-0.8885,-0.8885,-0.8885,-0.8885,0.0,0.0,0.0,0.0,0.0,0.0,-1.4922,-1.5371,-1.6364,-1.8723,-1.8788,-1.8317,-1.7591,-1.6464,-1.5031,-1.3256,0.0,0.0,0.0,0.0,0.0,0.0,0.0,0.0,0.0,0.0,-1.3378,-1.374,-1.3241,0.0,0.0,0.0,0.0,0.0,0.0,-1.0303,-1.0283,-0.9961,0.0,0.0,0.0,0.0,0.0,0.0,0.0,0.0,0.0,0.0,-0.8392,-0.8589,-0.837,-0.8138,-0.894,-0.91,-0.905,-0.937,-0.9616,-0.9741,-0.9754,-1.0611,-1.1682,-1.2607,-1.3393,-1.3859,-1.3313,-1.2465,-1.143,-1.02,-0.9544,-0.9357,-0.9853,-1.0023,-1.0291,-1.0983,-1.0458,-1.0121,-1.045,-0.9793,-0.9354,-0.9609,-0.9497,-0.9496,-0.9791,-0.9822,-0.9822,-0.9822,-0.9822,-0.9822,-0.9822,-0.9822,-0.9727,-0.9523,-0.9429,-0.9279,-0.9069,-0.8981,-0.8885,-0.8885,-0.8885,-0.8885,-0.8885,-0.8885,-0.8885,-0.8885,-0.8885,-0.8885,-0.8885,-0.8885,-0.8885,-0.8885,-0.8885,-0.8885,-0.8885,-0.8885,-0.8885,-0.8885,0.0,0.0,0.0,0.0,0.0,-1.3258,-1.497,-1.5078,-1.5869,-1.8398,-1.8457,-1.8247,-1.8225,-1.6647,-1.5135,-1.3965,-1.3318,0.0,0.0,0.0,0.0,0.0,0.0,0.0,0.0,0.0,-1.3747,-1.4337,-1.3793,-1.3419,0.0,0.0,-1.151,-1.0868,0.0,0.0,0.0,0.0,0.0,0.0,0.0,0.0,0.0,0.0,0.0,0.0,0.0,0.0,0.0,0.0,0.0,-0.8607,-0.9317,-0.9595,-0.9752,-1.0076,-1.0511,-1.0942,-1.1177,-1.218,-1.3276,-1.3635,-1.4083,-1.4289,-1.3414,-1.2285,-1.1142,-1.027,-0.969,-0.9491,-0.9997,-1.002,-1.0241,-1.1149,-1.0385,-0.9873,-1.0514,-0.9695,-0.9088,-0.9305,-0.9171,-0.9201,-0.9588,-0.9744,-0.9822,-0.9822,-0.9822,-0.9822,-0.9822,-0.9822,-0.9754,-0.9615,-0.9503,-0.9354,-0.921,-0.9052,-0.8981,-0.8885,-0.8885,-0.8885,-0.8885,-0.8885,-0.8885,-0.8885,-0.8885,-0.8885,-0.8885,-0.8885,-0.8885,-0.8885,-0.8885,-0.8885,-0.8885,-0.8885,-0.8885,-0.8885,0.0,0.0,0.0,0.0,0.0,0.0,-1.47,-1.5137,-1.5889,-1.7227,-1.7435,-1.7755,-1.868,-1.6057,-1.462,-1.5596,-1.3723,0.0,0.0,0.0,0.0,0.0,0.0,0.0,0.0,0.0,-1.4349,-1.4884,-1.4347,-1.3798,-1.3167,-1.2297,-1.1541,-1.0868,0.0,0.0,0.0,0.0,0.0,0.0,0.0,0.0,0.0,0.0,0.0,0.0,0.0,0.0,0.0,0.0,0.0,0.0,0.0,-0.9617,-1.0099,-1.0084,-1.0775,-1.1358,-1.075,-1.1877,-1.3276,-1.3635,-1.4083,-1.4289,-1.3414,-1.2285,-1.1142,-1.027,-0.988,-0.9773,-1.006,-1.0385,-1.068,-1.0949,-0.9542,-0.8714,-0.9579,-0.821,-0.7431,-0.8234,-0.833,-0.8565,-0.9159,-0.9561,-0.9822,-0.9822,-0.9822,-0.9822,-0.9822,-0.9822,-0.9754,-0.9615,-0.9608,-0.9459,-0.9214,-0.9207,-0.9079,-0.8885,-0.8885,-0.8885,-0.8885,-0.8885,-0.8885,-0.8885,-0.8885,-0.8885,-0.8885,-0.8885,-0.8885,-0.8885,-0.8885,-0.8885,-0.8885,-0.8885,-0.8885,-0.8885,0.0,0.0,0.0,0.0,0.0,0.0,0.0,-1.4679,-1.4875,-1.6503,-1.6078,-1.5969,-1.6849,-1.5009,-1.3993,-1.4634,-1.3298,0.0,0.0,0.0,0.0,0.0,0.0,0.0,0.0,-1.4362,-1.4727,-1.5994,-1.5815,-1.5399,-1.4766,-1.4205,-1.3192,-1.1755,-1.1024,-1.0632,0.0,0.0,0.0,0.0,0.0,0.0,-0.9491,0.0,0.0,0.0,0.0,0.0,0.0,0.0,0.0,0.0,0.0,0.0,0.0,-0.9765,-1.0895,-1.2043,-1.2091,-1.2763,-1.3422,-1.3162,-1.3047,-1.2879,-1.2405,-1.1383,-1.0416,-1.0174,-0.9886,-0.9713,-0.98,-0.99,-1.0285,-1.1142,-1.0645,-1.0254,-1.0556,-1.0024,-0.9461,-0.9034,-0.8211,-0.7752,-0.7966,-0.809,-0.8158,-0.8158,-0.9204,-0.9822,-0.9822,-0.9822,-0.9798,-0.9754,-0.9659,-0.9564,-0.9466,-0.9316,-0.9238,-0.9239,-0.9035,-0.8991,-0.9083,-0.8984,-0.8885,-0.8885,-0.8885,-0.8885,-0.8885,-0.8885,-0.8885,-0.8885,-0.8885,-0.8885,-0.8885,-0.8885,-0.8885,-0.8885,0.0,0.0,0.0,0.0,0.0,0.0,0.0,-1.4668,-1.476,-1.5844,-1.5217,-1.512,-1.6374,-1.4278,-1.3252,-1.4415,-1.3028,0.0,0.0,0.0,0.0,0.0,0.0,0.0,-1.5185,-1.4676,-1.5399,-1.744,-1.744,-1.7061,-1.6367,-1.6113,-1.4742,-1.2451,-1.1895,-1.1356,0.0,0.0,0.0,0.0,0.0,0.0,-1.0192,0.0,0.0,0.0,0.0,0.0,0.0,0.0,0.0,0.0,0.0,0.0,0.0,0.0,-1.0367,-1.1476,-1.2254,-1.2939,-1.3353,-1.3013,-1.2612,-1.2198,-1.179,-1.0882,-1.0087,-0.9973,-0.9719,-0.9552,-0.9688,-0.9715,-0.996,-1.0763,-1.0607,-1.0343,-1.0373,-1.0074,-0.9401,-0.8131,-0.7504,-0.6874,-0.6277,-0.638,-0.675,-0.736,-0.8343,-0.9143,-0.9758,-0.9771,-0.9741,-0.9741,-0.9707,-0.9635,-0.9523,-0.9391,-0.9344,-0.9378,-0.9137,-0.9066,-0.9204,-0.9005,-0.8885,-0.8885,-0.8885,-0.8885,0.0,-0.8885,-0.8885,-0.8885,-0.8885,-0.8885,-0.8885,-0.8885,-0.8885,-0.8885,0.0,0.0,0.0,0.0,0.0,0.0,0.0,-1.5102,-1.5311,-1.5311,-1.4755,-1.5003,-1.6709,-1.3773,-1.2499,-1.4612,0.0,0.0,0.0,0.0,0.0,0.0,0.0,0.0,-1.5668,-1.5173,-1.6241,-1.8945,-1.902,-1.8673,-1.7947,-1.7944,-1.6233,-1.313,-1.3027,-1.2196,0.0,0.0,0.0,0.0,-1.0847,-1.0922,0.0,0.0,0.0,0.0,0.0,0.0,0.0,0.0,0.0,0.0,0.0,0.0,0.0,0.0,0.0,0.0,0.0,-1.2362,-1.3057,-1.3017,-1.2593,-1.2042,-1.1423,-1.0623,0.0,-0.9706,-0.9404,-0.9311,-0.9659,-0.9729,-0.9806,-1.0089,-0.9705,-0.9296,-0.9126,-0.8636,-0.7706,-0.6205,-0.6334,-0.5954,-0.4352,-0.4542,-0.5397,-0.7104,-0.7355,-0.8094,-0.9684,-0.9683,-0.9598,-0.9578,-0.9717,-0.9663,-0.9401,-0.9527,-0.9534,-0.9412,-0.9306,-0.9224,-0.9221,-0.9018,-0.8892,-0.8885,-0.8885,-0.8885,-0.8885,-0.8885,-0.8885,-0.8885,-0.8885,-0.8885,-0.8885,-0.8885,-0.8885,-0.8885,0.0,0.0,0.0,0.0,0.0,0.0,0.0,0.0,0.0,0.0,-1.4599,-1.3968,-1.4054,-1.2853,-1.2256,0.0,0.0,0.0,0.0,0.0,0.0,0.0,0.0,0.0,-1.5668,-1.5173,-1.6053,-1.8405,-1.9221,-1.9508,-1.9325,-1.9371,-1.7997,-1.5442,-1.4316,-1.2915,0.0,0.0,0.0,0.0,-1.2242,-1.2064,0.0,0.0,0.0,0.0,-0.9211,-0.8929,0.0,0.0,0.0,0.0,0.0,0.0,0.0,0.0,-0.9084,-0.9391,-0.9737,0.0,-1.1506,-1.1094,-1.1036,-1.0913,0.0,-0.976,-0.9397,-0.9331,-0.9257,-0.9371,-0.992,-0.9833,-0.9862,-1.0402,-1.0172,-0.9294,-0.7473,-0.7056,-0.7246,-0.8081,-0.6367,-0.4987,-0.4468,-0.3609,-0.3746,-0.5371,-0.6705,-0.8057,-0.9543,-0.9629,-0.9503,-0.9323,-0.9405,-0.9507,-0.9554,-0.9476,-0.953,-0.9713,-0.9452,-0.9327,-0.9323,-0.9171,-0.9042,-0.8885,-0.8885,-0.8885,-0.8885,-0.8885,-0.8885,-0.8885,-0.8885,-0.8885,-0.8885,-0.8885,-0.8885,-0.8885,0.0,0.0,0.0,0.0,0.0,0.0,0.0,0.0,0.0,0.0,0.0,0.0,0.0,0.0,0.0,0.0,0.0,0.0,0.0,0.0,0.0,0.0,0.0,-1.4205,-1.5311,-1.5047,-1.6355,-1.9359,-1.9648,-2.0155,-2.0804,-2.0194,-1.8592,-1.6138,-1.4324,-1.3037,0.0,0.0,0.0,-1.2549,-1.2807,0.0,0.0,0.0,0.0,0.0,-0.9484,-0.9061,0.0,-0.9272,-0.9426,-0.9439,0.0,0.0,0.0,0.0,-0.8891,-0.9092,-0.9402,-1.0164,-1.08,-1.0498,-1.054,-1.0513,-0.9996,-0.9517,-0.9178,-0.9044,-0.9011,-0.9151,-0.9604,-0.8914,-0.866,-0.9806,-0.8825,-0.7653,-0.6991,-0.7277,-0.7339,-0.6798,-0.548,-0.4056,-0.255,-0.1768,-0.2327,-0.4741,-0.5746,-0.7203,-0.9493,-0.9544,-0.9398,-0.9217,-0.9171,-0.9283,-0.9503,-0.9493,-0.9598,-0.9819,-0.9595,-0.9486,-0.9479,-0.9313,-0.9166,-0.9032,-0.8967,-0.8885,-0.8885,-0.8885,-0.8885,-0.8885,-0.8885,-0.8885,-0.8885,-0.8885,-0.8885,-0.8885,0.0,0.0,0.0,0.0,0.0,0.0,0.0,0.0,0.0,0.0,0.0,0.0,0.0,0.0,0.0,0.0,0.0,0.0,0.0,0.0,0.0,0.0,-1.3349,-1.3892,-1.5123,-1.506,-1.6794,-2.044,-2.0263,-2.0838,-2.2024,-2.0971,-1.8904,-1.602,-1.3982,-1.2998,-1.2905,-1.2905,-1.2905,-1.2905,-1.2905,0.0,0.0,0.0,0.0,0.0,0.0,0.0,0.0,-0.9724,-0.9872,-0.9851,-0.9896,0.0,0.0,0.0,0.0,0.0,-0.9664,-1.0282,-1.0692,-1.0509,-1.0574,-1.0543,-1.0037,-0.957,-0.9198,-0.8904,-0.8911,-0.903,-0.9347,-0.8111,-0.7537,-0.9041,-0.6861,-0.5427,-0.6637,-0.7334,-0.6829,-0.4462,-0.4183,-0.3151,-0.0582,-0.0117,-0.1356,-0.4662,-0.4906,-0.622,-0.9397,-0.9432,-0.9276,-0.918,-0.9001,-0.9069,-0.9344,-0.95,-0.9656,-0.9819,-0.97,-0.9632,-0.9602,-0.9317,-0.9231,-0.9204,-0.9001,-0.8885,-0.8885,-0.8885,-0.8885,-0.8885,-0.8885,-0.8885,-0.8885,-0.8885,-0.8885,-0.8937,0.0,0.0,0.0,0.0,0.0,0.0,0.0,0.0,0.0,0.0,0.0,0.0,0.0,0.0,0.0,0.0,0.0,0.0,0.0,0.0,0.0,-1.4509,-1.4179,-1.4683,-1.6233,-1.5806,-1.6785,-1.9259,-2.1026,-2.2038,-2.2267,-2.284,-2.0618,-1.6039,-1.4566,-1.3545,-1.2905,-1.2905,-1.2905,-1.2905,-1.2905,0.0,0.0,0.0,0.0,0.0,0.0,0.0,0.0,-0.9352,-0.9681,-1.0378,-0.9337,0.0,0.0,0.0,0.0,0.0,-0.9822,-1.0651,-1.1059,-1.0149,-1.0493,-1.0666,-0.9316,-0.9325,-0.9532,-0.9204,-0.9372,-0.9717,-1.0269,-0.9672,-0.9056,-0.9137,-0.6005,-0.3797,-0.4407,-0.3754,-0.3452,-0.4139,-0.3248,-0.2346,-0.1769,-0.0681,-0.1334,-0.4643,-0.4765,-0.6116,-0.9237,-0.9326,-0.9123,-0.8977,-0.8895,-0.9018,-0.9245,-0.934,-0.9551,-0.9822,-0.9798,-0.9727,-0.9605,-0.9425,-0.9333,-0.9204,-0.9001,-0.8885,-0.8885,-0.8885,-0.8885,-0.8885,-0.8885,-0.8885,-0.8885,-0.8885,-0.8885,-0.9103,0.0,0.0,0.0,0.0,0.0,0.0,0.0,0.0,0.0,0.0,0.0,0.0,0.0,0.0,0.0,0.0,0.0,0.0,0.0,0.0,0.0,-1.5591,-1.5483,-1.5902,-1.6961,-1.7024,-1.843,-2.1227,-2.223,-2.3183,-2.4048,-2.1992,-1.9267,-1.6028,-1.4225,-1.3242,-1.2905,-1.2905,-1.2905,-1.2905,0.0,0.0,0.0,0.0,0.0,0.0,0.0,0.0,0.0,0.0,-1.03,-1.0719,-0.9631,0.0,0.0,0.0,0.0,0.0,-0.9299,-1.0023,-1.0624,-1.0314,-1.1244,-1.1866,-1.043,-1.0152,-1.0027,-0.9474,-0.9118,-0.9162,-1.0061,-0.8124,-0.5913,-0.4432,-0.3859,-0.3432,-0.2957,-0.3083,-0.3136,-0.3033,-0.2482,-0.1767,-0.0996,-0.0337,-0.1027,-0.3413,-0.4282,-0.5666,-0.7924,-0.8786,-0.9086,-0.8888,-0.8885,-0.9008,-0.9207,-0.9279,-0.9408,-0.9707,-0.9785,-0.9788,-0.972,-0.9571,-0.9422,-0.9326,-0.912,-0.9011,-0.8885,-0.8885,-0.8885,-0.8885,-0.8885,-0.8885,-0.8885,-0.8885,-0.9427,-1.0296,0.0,0.0,0.0,0.0,0.0,0.0,0.0,0.0,0.0,0.0,0.0,0.0,0.0,0.0,0.0,0.0,0.0,0.0,0.0,0.0,-1.4354,-1.6135,-1.6663,-1.7363,-1.8341,-1.8631,-2.0275,-2.3308,-2.3697,-2.4461,-2.5409,-2.1237,-1.8198,-1.6158,-1.4093,-1.3091,-1.2905,-1.2905,-1.2905,-1.2905,0.0,0.0,0.0,0.0,0.0,0.0,0.0,0.0,0.0,0.0,0.0,0.0,0.0,0.0,0.0,-0.926,-0.8965,-0.8951,-0.9158,-0.976,-1.0408,-1.0807,-1.1737,-1.2323,-1.1287,-1.0718,-1.0209,-0.9579,-0.8956,-0.8799,-0.9522,-0.6755,-0.3576,-0.1279,-0.2296,-0.2936,-0.1714,-0.2406,-0.2663,-0.1654,-0.1541,-0.1104,-0.0112,0.0,-0.0677,-0.2347,-0.3822,-0.5297,-0.6801,-0.832,-0.8881,-0.8383,-0.838,-0.8484,-0.8589,-0.8618,-0.8958,-0.9612,-0.972,-0.9788,-0.9815,-0.9639,-0.9493,-0.9371,-0.9184,-0.9042,-0.8885,-0.8885,-0.8885,-0.8885,-0.8885,-0.8885,-0.8937,-0.9261,-1.0131,-1.1378,0.0,0.0,0.0,0.0,0.0,0.0,0.0,0.0,0.0,0.0,0.0,0.0,0.0,0.0,0.0,0.0,0.0,0.0,0.0,0.0,-1.4914,-1.5635,-1.7216,-1.9058,-2.1142,-2.0754,-2.1647,-2.3941,-2.5506,-2.5908,-2.5168,-2.2143,-1.929,-1.6592,-1.4794,-1.3613,-1.2905,-1.2905,-1.2905,-1.2905,-1.2905,0.0,0.0,0.0,0.0,0.0,0.0,0.0,0.0,0.0,0.0,0.0,0.0,0.0,-1.0508,-0.9834,-0.9426,-0.9357,-1.0244,-1.0713,-1.1069,-1.1665,-1.129,-1.0762,-1.0665,-1.0175,-0.967,-0.9382,-0.9447,-0.9488,-0.9051,-0.7246,-0.5355,-0.3757,-0.2728,-0.169,-0.035,-0.0231,-0.0229,-0.0172,-0.017,-0.0112,0.0,0.0,-0.0677,-0.2347,-0.3727,-0.5238,-0.6798,-0.8177,-0.8276,-0.6924,-0.6869,-0.6871,-0.6879,-0.6981,-0.7907,-0.9608,-0.9618,-0.9693,-0.9812,-0.9527,-0.9391,-0.9364,-0.9079,-0.8892,-0.8885,-0.8885,-0.8885,-0.8885,-0.8885,-0.8885,-0.9044,-1.0457,-1.0996,-1.1483,0.0,0.0,0.0,0.0,0.0,0.0,0.0,0.0,0.0,0.0,0.0,0.0,0.0,0.0,0.0,0.0,0.0,0.0,0.0,-1.3685,-1.4846,-1.6041,-1.7458,-1.907,-2.0968,-2.2162,-2.3991,-2.6553,-2.6841,-2.6464,-2.5351,-2.1447,-1.8861,-1.739,-1.4599,-1.332,-1.3252,-1.3013,-1.3027,-1.3242,-1.3013,-1.2905,0.0,0.0,0.0,0.0,0.0,0.0,0.0,0.0,-1.1963,-1.214,-1.1153,-1.0667,-1.0374,-0.9903,-0.9369,-0.9018,-0.9379,-0.9611,-1.0056,-1.1276,-1.1016,-1.0487,-1.0481,-1.0636,-1.0514,-0.9527,-0.8932,-0.8244,-0.6953,-0.5624,-0.4247,-0.2821,-0.1522,-0.0563,-0.0057,0.0,0.0,0.0,0.0,0.0,0.0,0.0,-0.0281,-0.0904,-0.2245,-0.3361,-0.3942,-0.5377,-0.5919,-0.5363,-0.5306,-0.5753,-0.6702,-0.674,-0.7635,-0.9327,-0.9517,-0.9639,-0.9686,-0.9574,-0.9418,-0.9292,-0.912,-0.9022,-0.8885,-0.8885,-0.8885,-0.8885,-0.8885,-0.9482,-1.0351,-1.0891,-1.224,-1.3906,0.0,0.0,0.0,0.0,0.0,0.0,0.0,0.0,0.0,0.0,0.0,0.0,0.0,0.0,0.0,0.0,0.0,0.0,-1.2613,-1.3641,-1.4755,-1.5806,-1.7195,-1.8697,-2.039,-2.2585,-2.482,-2.7067,-2.7042,-2.6195,-2.4454,-2.0889,-1.8793,-1.7884,-1.485,-1.3711,-1.4062,-1.3369,-1.3164,-1.3281,-1.3023,-1.2905,0.0,0.0,0.0,0.0,0.0,0.0,0.0,0.0,-1.2409,-1.2368,-1.1671,-1.1074,-1.0547,-1.0184,-0.9811,-0.9499,-0.9499,-0.9438,-0.965,-1.0852,-1.0586,-1.0021,-0.9955,-1.0515,-1.0677,-0.9369,-0.8507,-0.751,-0.5873,-0.469,-0.3466,-0.2037,-0.0761,0.0,0.0,0.0,0.0,0.0,0.0,0.0,0.0,0.0,-0.0168,-0.0672,-0.1622,-0.2403,-0.2905,-0.3911,-0.4526,-0.4526,-0.4526,-0.5196,-0.67,-0.6702,-0.7544,-0.921,-0.9364,-0.949,-0.9537,-0.9486,-0.9351,-0.9207,-0.9159,-0.9028,-0.8885,-0.8885,-0.8885,-0.8937,-0.9427,-1.0186,-1.1214,-1.2132,-1.3691,-1.547,0.0,0.0,0.0,0.0,0.0,0.0,0.0,0.0,0.0,0.0,0.0,0.0,0.0,0.0,0.0,0.0,0.0,0.0,-1.3209,-1.4102,-1.4686,-1.4686,-1.6373,-1.808,-1.9722,-2.1929,-2.3634,-2.4775,-2.59,-2.5008,-2.2157,-2.0753,-1.9335,-1.7892,-1.5756,-1.5019,-1.5312,-1.4043,-1.3271,-1.2915,-1.2915,-1.2905,-1.2905,0.0,0.0,0.0,0.0,0.0,0.0,0.0,-1.3223,-1.2894,-1.2886,-1.217,-1.1218,-1.0829,-1.0826,-1.0975,-1.0969,-1.055,-1.019,-1.052,-0.9938,-0.9219,-0.8952,-0.9474,-0.9767,-0.8856,-0.8302,-0.7582,-0.6228,-0.4807,-0.3331,-0.2014,-0.0767,0.0,0.0,0.0,0.0,0.0,0.0,0.0,0.0,0.0,-0.0616,-0.2124,-0.2235,-0.285,-0.4414,-0.447,-0.447,-0.447,-0.447,-0.5196,-0.67,-0.6702,-0.7541,-0.9207,-0.9207,-0.9286,-0.9374,-0.9279,-0.921,-0.92,-0.9001,-0.8885,-0.8885,-0.894,-0.8937,-0.9047,-1.0566,-1.1105,-1.1483,-1.4341,-1.5417,-1.5636,0.0,0.0,0.0,0.0,0.0,0.0,0.0,0.0,0.0,0.0,0.0,0.0,0.0,0.0,0.0,0.0,0.0,0.0,-1.3707,-1.393,-1.4073,-1.4073,-1.5752,-1.6715,-1.6842,-1.9057,-2.1528,-2.4243,-2.4147,-2.3023,-2.0895,-1.9052,-1.7811,-1.7032,-1.5786,-1.4961,-1.4445,-1.3773,-1.3437,-1.332,-1.332,-1.3145,-1.2935,0.0,0.0,0.0,0.0,0.0,0.0,0.0,0.0,0.0,-1.289,-1.2146,-1.1227,-1.087,-1.0285,-0.9684,-0.9512,-0.9241,-0.9188,-0.9814,-0.9859,-0.9745,-0.9595,-0.969,-0.962,-0.8724,-0.7525,-0.6441,-0.5934,-0.4028,-0.2358,-0.1862,-0.0767,-0.0336,-0.1399,-0.0672,-0.0392,-0.1399,-0.0616,-0.0392,-0.1454,-0.1566,-0.218,-0.3688,-0.2794,-0.2403,-0.285,-0.1902,-0.1791,-0.285,-0.2905,-0.4132,-0.67,-0.6702,-0.7446,-0.9001,-0.9001,-0.9079,-0.9275,-0.9231,-0.9096,-0.8998,-0.8902,-0.8885,-0.8992,-1.0021,-1.0457,-1.0566,-1.2082,-1.3264,-1.4234,-1.5091,-1.6062,-1.6988,0.0,0.0,0.0,0.0,0.0,0.0,0.0,0.0,-1.2905,-1.2905,-1.2905,-1.2905,0.0,0.0,0.0,-1.3903,-1.4586,-1.4722,-1.3914,-1.382,-1.3792,-1.3792,-1.4803,-1.5637,-1.6264,-1.8007,-1.9811,-2.1694,-2.1724,-2.083,-1.9032,-1.8428,-1.7831,-1.7195,-1.704,-1.6387,-1.5342,-1.459,-1.3965,-1.35,-1.3665,-1.3506,-1.3174,0.0,0.0,0.0,0.0,0.0,0.0,0.0,0.0,0.0,-1.2617,-1.1899,-1.1049,-1.1176,-1.0836,-1.036,-1.0154,-0.9872,-0.9651,-0.9936,-0.9565,-0.9018,-0.8596,-0.8484,-0.8288,-0.7651,-0.6292,-0.5015,-0.4411,-0.3041,-0.1799,-0.1195,-0.0939,-0.1175,-0.2068,-0.1958,-0.2125,-0.3017,-0.2349,-0.2125,-0.3017,-0.3129,-0.3742,-0.5252,-0.3408,-0.2459,-0.3073,-0.1678,-0.1566,-0.3073,-0.3687,-0.5135,-0.754,-0.7595,-0.8042,-0.8885,-0.8885,-0.8984,-0.9066,-0.9066,-0.9022,-0.8885,-0.8885,-0.8885,-0.8992,-1.0511,-1.1105,-1.1324,-1.3318,-1.4663,-1.547,-1.6062,-1.6823,-1.7582,0.0,0.0,0.0,0.0,0.0,0.0,0.0,-1.2905,-1.2905,-1.2905,-1.2905,-1.2905,0.0,0.0,0.0,-1.3839,-1.479,-1.4971,-1.3862,-1.3755,-1.3732,-1.3732,-1.3821,-1.4893,-1.7133,-1.7976,-1.8268,-1.8034,-1.8986,-1.8588,-1.6931,-1.8391,-1.8632,-1.793,-1.875,-1.8408,-1.7119,-1.5741,-1.4486,-1.3486,-1.3827,-1.375,-1.3496,-1.3851,0.0,0.0,0.0,0.0,0.0,0.0,0.0,0.0,-1.2203,-1.1457,-1.0731,-1.1506,-1.1894,-1.2019,-1.1861,-1.1419,-1.0938,-1.0381,-0.8972,-0.7477,-0.6643,-0.63,-0.607,-0.5869,-0.4761,-0.3453,-0.2223,-0.1912,-0.143,-0.0224,-0.1231,-0.2235,-0.2403,-0.3632,-0.4528,-0.4693,-0.4582,-0.4528,-0.4693,-0.4693,-0.5308,-0.6813,-0.4242,-0.324,-0.4639,-0.324,-0.3129,-0.4637,-0.5975,-0.7426,-0.8881,-0.8885,-0.8885,-0.8885,-0.8885,-0.8885,-0.8885,-0.8885,-0.8885,-0.8885,-0.9047,-0.9103,-0.921,-1.0836,-1.1483,-1.1751,-1.4502,-1.5583,-1.5743,-1.7094,-1.7582,-1.7582,0.0,0.0,0.0,0.0,0.0,0.0,-1.2905,-1.2905,-1.2905,-1.2905,-1.2905,-1.2905,-1.2905,-1.3552,0.0,-1.3815,-1.405,-1.4073,-1.3815,-1.3348,-1.3079,-1.3079,-1.3858,-1.4903,-1.6255,-1.6171,-1.6314,-1.6716,-1.7387,-1.7219,-1.6214,-1.6928,-1.7162,-1.6999,-1.7559,-1.7061,-1.5722,-1.3904,-1.3091,-1.3022,-1.2894,-1.2921,-1.3052,-1.314,-1.2822,0.0,0.0,0.0,0.0,0.0,0.0,0.0,-1.2203,-1.1318,-1.0315,-1.0507,-1.0751,-1.0731,-0.9758,-1.0085,-1.0426,-0.9345,-0.7895,-0.6717,-0.6385,-0.4672,-0.3394,-0.4381,-0.343,-0.234,-0.2066,-0.1159,-0.0335,-0.0056,-0.1231,-0.2626,-0.3855,-0.4303,-0.4916,-0.6089,-0.5196,-0.4973,-0.6142,-0.6255,-0.6813,-0.8322,-0.6755,-0.5862,-0.6197,-0.4804,-0.4693,-0.62,-0.6533,-0.7426,-0.8881,-0.8885,-0.8885,-0.8885,-0.8885,-0.8885,-0.8885,-0.8885,-0.8885,-0.8992,-1.0131,-1.0621,-1.0836,-1.3421,-1.4502,-1.4663,-1.6446,-1.7147,-1.7147,-1.747,-1.7582,-1.7582,0.0,0.0,0.0,0.0,0.0,0.0,0.0,0.0,-1.2905,-1.2905,-1.2905,-1.3017,-1.331,-1.3624,0.0,0.0,-1.3792,-1.3684,-1.3396,-1.3079,-1.2905,-1.2905,-1.3586,-1.4283,-1.4925,-1.4745,-1.4936,-1.5522,-1.5324,-1.5496,-1.6008,-1.6292,-1.6523,-1.6726,-1.7402,-1.6836,-1.5323,-1.4116,-1.3428,-1.3163,-1.2896,-1.2761,-1.2689,-1.2418,-1.1917,-1.1322,-1.1154,0.0,0.0,0.0,0.0,0.0,0.0,0.0,-0.9577,-1.0011,-1.0247,-1.0182,-0.9532,-0.9861,-1.0136,-0.8897,-0.7524,-0.6262,-0.538,-0.3594,-0.2134,-0.2172,-0.1553,-0.103,-0.1047,-0.1058,-0.084,-0.0112,-0.246,-0.4411,-0.447,-0.5697,-0.6869,-0.7651,-0.7093,-0.6924,-0.7706,-0.7762,-0.81,-0.883,-0.7537,-0.6702,-0.6702,-0.5977,-0.5919,-0.67,-0.7371,-0.8097,-0.8881,-0.8885,-0.8885,-0.8885,-0.8885,-0.9265,-0.997,-0.997,-0.997,-1.0025,-1.1483,-1.2132,-1.2295,-1.4502,-1.5417,-1.5524,-1.7041,-1.7582,-1.7582,-1.7582,-1.7582,-1.7582,0.0,0.0,0.0,0.0,0.0,0.0,0.0,0.0,0.0,-1.2905,-1.2992,-1.3238,-1.3755,-1.3792,-1.3792,0.0,0.0,0.0,-1.292,-1.2905,-1.2935,-1.3013,-1.332,-1.3571,-1.3738,-1.369,-1.3941,-1.4537,-1.3493,-1.3982,-1.5939,-1.5968,-1.6191,-1.6609,-1.7285,-1.668,-1.5128,-1.446,-1.3746,-1.2993,-1.2647,-1.2323,-1.2003,-1.1481,-1.0846,-1.0179,-0.9893,-0.9799,-0.9866,-1.0263,0.0,0.0,0.0,0.0,-0.8787,-0.9549,-0.9814,-0.9829,-0.9632,-0.9691,-0.9568,-0.8692,-0.7296,-0.5754,-0.43,-0.2772,-0.143,-0.0527,-0.0377,-0.0384,-0.0391,-0.1622,-0.218,-0.0952,-0.4134,-0.6255,-0.5029,-0.7202,-0.8885,-0.8885,-0.8885,-0.8885,-0.8885,-0.866,-0.8546,-0.8546,-0.7149,-0.6422,-0.67,-0.6702,-0.6813,-0.7093,-0.8266,-0.8885,-0.8885,-0.8885,-0.8885,-0.8885,-0.8885,-0.9699,-1.1105,-1.1378,-1.1487,-1.1538,-1.3048,-1.3642,-1.375,-1.5204,-1.5796,-1.5902,-1.7094,-1.7582,-1.7582,-1.7582,-1.7582,-1.7582,0.0,0.0,0.0,0.0,0.0,0.0,0.0,0.0,0.0,0.0,-1.3358,-1.3708,-1.3802,-1.3792,-1.3792,-1.3792,-1.3324,-1.2992,-1.2905,0.0,0.0,-1.3408,-1.3477,-1.3502,-1.3544,-1.3249,-1.3369,-1.3909,-1.2897,-1.3554,-1.5746,-1.5578,-1.5732,-1.6173,-1.5879,-1.5186,-1.4175,-1.2423,-1.1466,-1.1108,-1.0432,-1.0183,-1.0199,-0.9787,-0.9545,-0.9431,-0.9403,-0.9386,-0.9495,-1.0171,-1.0059,0.0,0.0,0.0,-0.8378,-0.8506,-0.8908,-0.9091,-0.8097,-0.7979,-0.82,-0.8415,-0.6495,-0.4431,-0.4086,-0.2089,-0.0569,-0.1505,-0.1844,-0.1886,-0.189,-0.3185,-0.4136,-0.3913,-0.5475,-0.6647,-0.6422,-0.782,-0.8885,-0.8885,-0.8885,-0.8885,-0.8885,-0.7765,-0.698,-0.698,-0.5641,-0.5363,-0.6647,-0.6702,-0.726,-0.8546,-0.8771,-0.8885,-0.8885,-0.8885,-0.8885,-0.8885,-0.8885,-0.9699,-1.116,-1.2403,-1.2994,-1.3102,-1.4502,-1.5097,-1.5257,-1.6717,-1.7312,-1.7312,-1.7529,-1.7582,-1.7582,-1.7582,-1.7582,-1.7582,0.0,0.0,0.0,0.0,0.0,0.0,0.0,0.0,0.0,0.0,0.0,-1.342,-1.3755,-1.3505,-1.342,-1.3768,-1.3007,-1.2412,-1.2181,-1.2373,-1.2598,-1.2759,-1.2769,-1.2769,-1.2769,-1.2148,-1.2184,-1.2902,-1.1982,-1.2785,-1.5192,-1.4828,-1.5186,-1.6065,-1.5361,-1.4717,-1.4,-1.243,-1.1699,-1.1465,-1.0211,-1.0221,-1.0807,-0.899,-0.8799,-0.938,-0.8372,-0.8015,-0.8089,-0.8603,-0.8521,-0.8216,-0.8401,0.0,0.0,0.0,-0.7546,-0.7734,-0.7695,-0.7936,-0.8242,-0.8353,-0.6906,-0.5408,-0.5157,-0.3641,-0.24,-0.2991,-0.3846,-0.4278,-0.3448,-0.457,-0.5357,-0.463,-0.6422,-0.7651,-0.6813,-0.7986,-0.8885,-0.8885,-0.8885,-0.8602,-0.7762,-0.7093,-0.6702,-0.6702,-0.5306,-0.5139,-0.6647,-0.6702,-0.698,-0.7651,-0.8491,-0.8885,-0.8885,-0.8885,-0.8885,-0.8885,-0.9754,-1.0891,-1.2403,-1.3804,-1.4502,-1.4556,-1.6015,-1.6605,-1.6658,-1.7312,-1.7582,-1.7582,-1.7582,-1.7582,-1.7582,-1.7582,-1.7582,-1.7582,0.0,0.0,0.0,0.0,0.0,0.0,0.0,0.0,0.0,0.0,0.0,-1.331,-1.3755,0.0,0.0,0.0,-1.2826,-1.2041,-1.1636,-1.1875,-1.2086,-1.2203,-1.2096,-1.2038,-1.2038,-1.1277,-1.1209,-1.1872,-1.1348,-1.2344,-1.4775,-1.4561,-1.5156,-1.6388,-1.5381,-1.458,-1.387,-1.2701,-1.2134,-1.1873,-1.055,-1.0576,-1.1184,-0.9239,-0.9186,-0.9907,-0.8172,-0.7566,-0.753,-0.7338,-0.7095,-0.6896,-0.6972,-0.6681,0.0,0.0,0.0,-0.6551,-0.7404,-0.7893,-0.8159,-0.8274,-0.7353,-0.6385,-0.6131,-0.4987,-0.4083,-0.4446,-0.5431,-0.6002,-0.5341,-0.6222,-0.6733,-0.5793,-0.7482,-0.8491,-0.7429,-0.8211,-0.8885,-0.8885,-0.8546,-0.8042,-0.7315,-0.6589,-0.6311,-0.6644,-0.5306,-0.5139,-0.6647,-0.6702,-0.6869,-0.726,-0.8322,-0.8885,-0.8885,-0.8885,-0.9103,-0.9482,-1.0566,-1.2077,-1.3857,-1.4931,-1.5577,-1.6009,-1.7094,-1.7582,-1.7582,-1.7582,-1.7582,-1.7582,-1.7582,-1.7582,-1.7635,-1.7996,-1.8094,-1.8146,0.0,0.0,0.0,0.0,0.0,0.0,0.0,0.0,0.0,0.0,0.0,-1.3779,-1.3792,-1.3768,-1.3779,-1.3792,-1.2826,-1.2041,-1.1636,-1.1626,-1.1809,-1.2184,-1.1816,0.0,-1.1636,-1.1143,-1.0907,-1.0977,-1.1369,-1.267,-1.4823,-1.5176,-1.6055,-1.7256,-1.5957,-1.4669,-1.3486,-1.2574,-1.1906,-1.1395,-1.1011,-1.0539,-1.0183,-1.0907,-1.1235,-1.1109,-0.9624,-0.9098,-0.8844,-0.7198,-0.6645,-0.6496,-0.5815,-0.5572,-0.5555,0.0,0.0,0.0,-0.6871,-0.7167,-0.7337,-0.8053,-0.7305,-0.6365,-0.6287,-0.5082,-0.4368,-0.5634,-0.5937,-0.643,-0.7849,-0.8361,-0.8594,-0.8634,-0.8826,-0.8881,-0.8771,-0.8826,-0.8885,-0.8885,-0.7651,-0.7315,-0.8657,-0.6255,-0.5196,-0.6589,-0.5306,-0.5139,-0.6647,-0.6702,-0.7315,-0.8716,-0.8881,-0.8885,-0.8885,-0.8885,-0.9588,-1.1,-1.1051,-1.2561,-1.531,-1.5364,-1.6174,-1.7477,-1.7582,-1.7582,-1.7582,-1.7582,-1.7582,-1.7582,-1.7582,-1.7582,-1.7733,-1.902,-1.948,-1.9679,0.0,0.0,0.0,0.0,0.0,0.0,0.0,0.0,0.0,0.0,0.0,0.0,0.0,-1.3214,-1.3104,-1.2812,-1.1898,-1.1201,-1.0792,-1.1017,-1.1211,-1.1355,-1.123,-1.1143,-1.1143,-1.0723,-1.0645,-1.0908,-1.0811,-1.1868,-1.3965,-1.3838,-1.4482,-1.5703,-1.5498,-1.501,-1.4238,-1.2808,-1.2078,-1.1874,-1.1457,-1.1713,-1.2277,-1.1447,-1.1857,-1.2474,-0.998,-0.9259,-0.9225,-0.7252,-0.6613,-0.6446,-0.5636,-0.5168,-0.4923,-0.4917,-0.5232,-0.5689,-0.625,-0.6858,-0.7429,-0.7671,-0.7658,-0.7559,-0.7538,-0.7125,-0.6878,-0.72,-0.7285,-0.7478,-0.819,-0.8431,-0.8615,-0.8767,-0.8821,-0.8885,-0.8885,-0.8885,-0.8885,-0.8885,-0.8436,-0.7931,-0.7537,-0.6533,-0.6142,-0.6644,-0.5306,-0.5139,-0.6647,-0.6702,-0.6924,-0.7482,-0.8432,-0.9375,-1.0296,-1.0292,-1.1051,-1.2512,-1.3426,-1.4395,-1.5417,-1.6387,-1.7094,-1.7582,-1.7582,-1.7582,-1.7582,-1.7582,-1.7582,-1.7582,-1.7582,-1.7582,-1.7733,-1.9117,-1.9449,-1.9423,0.0,0.0,0.0,0.0,0.0,0.0,0.0,0.0,-1.3576,-1.2968,0.0,0.0,0.0,0.0,-1.267,-1.2061,-1.1465,-1.0909,-1.0342,-1.0547,-1.0762,-1.0878,-1.0771,-1.0762,-1.0908,-1.0518,-1.0352,-1.0459,-1.0488,-1.1299,-1.2876,-1.3042,-1.3701,-1.4813,-1.4775,-1.4775,-1.4687,-1.3237,-1.2632,-1.2618,-1.2443,-1.2664,-1.305,-1.2623,-1.2832,-1.2995,-1.0545,-0.9822,-0.9671,-0.7498,-0.677,-0.6569,-0.5398,-0.4632,-0.4198,-0.435,-0.4848,-0.544,-0.5812,-0.6535,-0.7274,-0.7573,-0.7642,-0.7756,-0.8371,-0.8197,-0.7936,-0.8085,-0.8116,-0.8133,-0.8184,-0.8313,-0.8476,-0.8676,-0.8798,-0.8824,-0.8875,-0.8885,-0.8885,-0.8885,-0.8491,-0.7986,-0.7485,-0.698,-0.6924,-0.7426,-0.6533,-0.6422,-0.7371,-0.7426,-0.7426,-0.7426,-0.838,-0.9588,-1.1105,-1.1105,-1.2077,-1.4019,-1.4931,-1.5689,-1.6174,-1.7147,-1.7582,-1.7635,-1.8094,-1.8042,-1.7635,-1.8094,-1.8189,-1.8099,-1.8551,-1.8686,-1.8694,-2.0051,-2.0353,-2.031,0.0,0.0,0.0,0.0,0.0,0.0,0.0,0.0,-1.3576,-1.2968,0.0,0.0,0.0,0.0,0.0,-1.1714,-1.1616,-1.1243,-1.0371,-1.0312,-1.0459,-1.0879,0.0,0.0,-1.0879,-1.0488,-1.0078,-0.9612,-1.0468,-1.1113,-1.1616,-1.2832,-1.3887,-1.4705,-1.3838,-1.3936,-1.4676,-1.3809,-1.3477,-1.3515,-1.3892,-1.3245,-1.2251,-1.4496,-1.4322,-1.2699,-1.1467,-1.0851,-1.0234,-0.791,-0.7088,-0.6766,-0.501,-0.3935,-0.3385,-0.3842,-0.4487,-0.5149,0.0,0.0,0.0,-0.7706,-0.716,-0.6858,-0.8629,-0.8037,-0.7322,-0.8082,-0.8292,-0.8204,-0.8022,-0.8217,-0.8467,-0.8702,-0.8699,-0.8757,-0.8854,-0.8875,-0.8878,-0.8885,-0.7651,-0.7315,-0.8771,-0.7595,-0.7371,-0.8771,-0.8885,-0.8885,-0.8885,-0.8885,-0.8885,-0.8885,-0.8885,-0.9644,-1.116,-1.116,-1.2615,-1.547,-1.547,-1.6227,-1.7582,-1.7635,-1.7687,-1.7733,-1.9057,-1.8902,-1.7772,-1.9102,-1.9433,-1.9192,-2.0504,-2.0728,-2.0578,-2.1933,-2.2407,-2.2586,0.0,0.0,0.0,0.0,0.0,-1.3396,-1.2978,-1.342,-1.3576,0.0,0.0,0.0,-1.3008,-1.2905,-1.2807,-1.2563,-1.1946,-1.1349,-1.0771,-1.0449,-1.0352,-1.0449,-1.0361,-1.0361,-1.0449,-1.0361,-1.0244,-1.0107,-1.0361,-1.0674,-1.1094,-1.1455,-1.2077,-1.2905,-1.2662,-1.2691,-1.2876,-1.2357,-1.267,-1.3471,-1.3031,-1.351,-1.446,-1.4677,-1.4462,-1.3815,-1.2367,-1.1201,-1.0035,-0.8124,-0.6941,-0.5993,-0.4196,-0.3344,-0.308,-0.3402,-0.3887,-0.4349,-0.4565,0.0,0.0,0.0,0.0,0.0,-0.6997,-0.6968,-0.6947,-0.7344,-0.7543,-0.7787,-0.8133,-0.9037,-0.9697,-0.9792,-0.9093,-0.8598,-0.8754,-0.8774,-0.8815,-0.8871,-0.8546,-0.8436,-0.8881,-0.8546,-0.8436,-0.8881,-0.8885,-0.8885,-0.8885,-0.8885,-0.8885,-0.8885,-0.8885,-1.0131,-1.2674,-1.2674,-1.4126,-1.6988,-1.6988,-1.7206,-1.7635,-1.861,-1.9065,-1.9102,-2.0171,-2.0406,-2.0112,-2.0456,-2.055,-2.0446,-2.0533,-2.0515,-2.0578,-2.1933,-2.2236,-2.2142,0.0,0.0,-1.4789,-1.4615,-1.422,-1.3796,-1.3449,-1.3931,-1.413,0.0,0.0,0.0,-1.3219,-1.3457,-1.3492,-1.2954,-1.2269,-1.1572,-1.0947,-1.0518,-1.0303,-1.0303,-1.0469,-1.0547,-1.0547,-1.0547,-1.0371,-1.001,-1.0195,-1.0156,-0.9873,-1.0576,-1.0975,-1.111,-1.1316,-1.1492,-1.1599,-1.0656,-1.1154,-1.2597,-1.3304,-1.3727,-1.3998,-1.4239,-1.3862,-1.3061,-1.1672,-1.0532,-0.9487,-0.8505,-0.7261,-0.598,-0.5081,-0.428,-0.3683,-0.381,-0.4252,-0.4664,-0.4428,-0.4768,-0.5289,-0.5723,0.0,0.0,-0.6763,-0.6734,-0.6674,-0.7596,-0.7868,-0.8212,-0.9112,-0.9926,-1.0578,-1.1189,-1.0729,-1.0068,-0.9493,-0.9402,-0.9251,-0.8879,-0.8845,-0.8814,-0.8875,-0.8885,-0.8885,-0.8885,-0.8885,-0.8885,-0.8885,-0.8885,-0.8885,-0.8885,-0.9482,-1.0945,-1.327,-1.3857,-1.531,-1.7635,-1.8146,-1.8454,-1.8506,-1.9826,-2.0358,-2.0261,-2.1346,-2.1758,-2.1605,-2.2026,-2.1822,-2.1374,-2.1672,-2.1722,-2.1627,-2.2382,-2.2527,-2.2458,0.0,0.0,-1.3926,-1.439,-1.4314,-1.4211,-1.4309,-1.479,-1.494,0.0,-1.4124,-1.3949,-1.3861,-1.4414,-1.4326,-1.3218,-1.2607,-1.1901,-1.1035,-1.0586,-1.0352,-1.0303,-1.0684,-1.0889,-1.084,-1.0889,-1.0468,-0.9592,-1.002,-0.9647,-0.8571,-1.001,-1.0293,-0.9612,-0.999,-1.0352,-1.0595,-0.9171,-0.9571,-1.1389,-1.3757,-1.3739,-1.2434,-1.3576,-1.3037,-1.1549,-1.0355,-0.9484,-0.8844,-0.8779,-0.7716,-0.647,-0.666,-0.5853,-0.479,-0.4568,-0.5024,-0.5451,-0.4708,-0.4815,-0.5237,-0.5687,-0.4911,0.0,-0.6993,-0.6652,-0.6286,-0.7899,-0.8303,-0.8696,-1.0033,-1.0438,-1.0993,-1.2217,-1.2759,-1.2466,-1.0888,-1.0647,-1.0193,-0.904,-0.8897,-0.8899,-0.8876,-0.8834,-0.8841,-0.8858,-0.8858,-0.8851,-0.8834,-0.8834,-0.8841,-0.8858,-1.0319,-1.1787,-1.3264,-1.4716,-1.6221,-1.7838,-1.902,-1.9657,-1.9825,-2.1188,-2.1595,-2.1237,-2.2536,-2.2906,-2.2608,-2.3379,-2.3055,-2.2162,-2.3271,-2.3486,-2.3091,-2.3091,-2.3091,-2.3135,-1.4606,-1.4213,-1.4041,-1.4815,-1.4797,-1.4893,-1.5606,-1.5507,-1.5427,-1.5674,-1.5349,-1.5358,-1.5985,-1.5312,-1.4687,-1.4461,-1.3398,-1.2396,-1.1516,-1.1046,-1.0635,-1.0322,-1.0684,-1.0752,-1.041,-1.0732,-1.0468,-0.9592,-0.9698,-0.9611,-0.9367,-0.9357,-0.9455,-0.9583,-0.9348,-0.9297,-0.9388,-0.9544,-1.0185,-1.1135,-1.1331,-1.2601,-1.4256,-1.3634,-1.3221,-1.2765,-1.134,-0.9844,-0.8496,-0.7914,-0.7526,-0.7142,-0.5842,-0.5584,-0.5473,-0.4182,-0.4386,-0.4885,-0.4147,-0.4022,-0.416,-0.4465,-0.4424,0.0,-0.4575,-0.4679,-0.4816,-0.524,-0.5649,-0.6263,-0.7283,-0.8804,-0.9951,-1.0111,-1.241,-1.3706,-1.2369,-1.2186,-1.1634,-1.0233,-1.0084,-0.968,-0.8673,-0.857,-0.8621,-0.8747,-0.8754,-0.8703,-0.8577,-0.857,-0.8628,-0.875,-1.0188,-1.1697,-1.3264,-1.4716,-1.6685,-1.922,-1.9472,-1.999,-2.0766,-2.2111,-2.2505,-2.2164,-2.3186,-2.3611,-2.3505,-2.3304,-2.3289,-2.338,-2.3266,-2.3169,-2.3091,-2.3091,-2.3091,-2.3222,-1.3752,-1.3563,-1.3749,-1.5033,-1.5355,-1.5821,-1.6865,-1.667,-1.6543,-1.6982,-1.6846,-1.6631,-1.6416,-1.584,-1.5195,-1.4521,-1.3486,-1.2533,-1.1665,-1.1152,-1.0723,-1.0322,-1.0684,-1.0918,-1.0939,-1.0918,-1.0596,-0.9961,-0.9718,-0.9271,-0.8649,-0.8889,-0.9679,-1.0818,-0.9365,-0.9493,-1.0738,-0.9094,-0.899,-1.0038,-1.1682,-1.3048,-1.3995,-1.3468,-1.2831,-1.2023,-1.0511,-0.9432,-0.8642,-0.8191,-0.7974,-0.7764,-0.7024,-0.6942,-0.6787,-0.526,-0.5277,-0.5536,-0.4322,-0.407,-0.4166,-0.4185,-0.4159,0.0,0.0,-0.44,-0.4631,-0.5253,-0.5431,-0.5967,-0.7609,-0.864,-0.9608,-1.0707,-1.3063,-1.4191,-1.2651,-1.3154,-1.3203,-1.1864,-1.101,-1.0321,-0.9734,-0.8994,-0.8513,-0.8591,-0.8598,-0.8564,-0.8486,-0.8482,-0.8917,-0.9762,-1.119,-1.2718,-1.4341,-1.5664,-1.7402,-1.9627,-2.0163,-2.098,-2.2048,-2.3435,-2.3692,-2.3101,-2.3606,-2.4009,-2.4287,-2.4054,-2.4574,-2.5459,-2.4352,-2.3963,-2.4036,-2.4898,-2.5187,-2.5305,-1.2886,-1.2905,-1.3394,-1.4902,-1.5694,-1.6506,-1.7705,-1.7598,-1.75,-1.7842,-1.8174,-1.8008,-1.7073,-1.6966,-1.6535,-1.5459,-1.46,-1.3619,-1.2406,-1.1895,-1.1465,-1.1045,-1.0947,-1.1191,-1.1851,-1.1143,-1.0508,-0.9931,-0.9561,-0.8841,-0.7846,-0.8461,-0.9767,-1.149,-0.9592,-0.9921,-1.1731,-0.8799,-0.8353,-0.987,-1.2763,-1.349,-1.2781,-1.2798,-1.2096,-1.0973,-0.9507,-0.9025,-0.8977,-0.884,-0.8634,-0.8452,-0.8464,-0.8429,-0.8115,-0.6514,-0.638,-0.6387,-0.4787,-0.448,-0.4528,-0.4244,-0.4058,-0.4063,0.0,0.0,0.0,-0.546,-0.5489,-0.595,-0.788,-0.8327,-0.8992,-1.0843,-1.275,-1.346,-1.1924,-1.319,-1.3757,-1.2532,-1.1858,-1.1198,-1.0505,-0.9123,-0.8286,-0.8431,-0.8282,-0.8245,-0.8391,-0.8654,-0.9395,-1.0708,-1.2382,-1.3901,-1.5211,-1.6491,-1.8032,-1.9783,-2.0651,-2.1804,-2.3206,-2.4325,-2.4533,-2.4009,-2.4009,-2.4428,-2.5168,-2.5485,-2.6464,-2.7637,-2.5934,-2.536,-2.5616,-2.7088,-2.7768,-2.8068,-1.2827,-1.2905,-1.3174,-1.4085,-1.5264,-1.6408,-1.7314,-1.7445,-1.7435,-1.7451,-1.876,-1.9795,-2.0067,-2.0087,-2.0028,-1.9881,-1.9053,-1.7539,-1.5127,-1.458,-1.415,-1.3685,-1.1882,-1.1484,-1.2729,-1.1193,-0.9794,-0.861,-0.8561,-0.8463,-0.8316,-0.7993,-0.8392,-0.938,-0.9817,-0.9648,-0.9107,-0.9678,-1.1048,-1.2859,-1.2934,-1.2271,-1.122,-1.1002,-1.1077,-1.1093,-0.9817,-0.933,-0.9319,-0.9102,-0.9249,-0.93,-0.8492,-0.8647,-0.8799,-0.6764,-0.6516,-0.6572,-0.5196,-0.4918,-0.4864,-0.419,-0.4321,-0.4334,-0.3358,0.0,-0.3485,-0.3314,0.0,-0.4655,-0.5048,0.0,0.0,-0.688,-0.8811,-1.012,-0.9624,-1.1115,-1.1746,-1.0405,-1.2672,-1.2863,-0.9153,-0.7878,-0.757,-0.8245,-0.7556,-0.7348,-0.8005,-0.9176,-0.9942,-1.0268,-1.2786,-1.4321,-1.4685,-1.6049,-1.7988,-2.05,-2.0604,-2.1754,-2.3699,-2.3881,-2.4221,-2.47,-2.47,-2.5306,-2.6412,-2.7842,-2.8904,-2.9416,-2.7679,-2.7305,-2.7827,-2.8474,-2.9407,-3.0525,-1.2981,-1.3236,-1.3762,-1.4834,-1.5787,-1.6626,-1.7298,-1.8223,-1.8769,-1.8516,-1.9326,-1.999,-2.0166,-1.9343,-1.9059,-1.9793,-1.9043,-1.7656,-1.5547,-1.5244,-1.4394,-1.2715,-1.179,-1.1426,-1.1728,-1.0781,-0.9794,-0.874,-0.8512,-0.8268,-0.7998,-0.7798,-0.9104,-1.1565,-1.0608,-1.117,-1.2689,-1.1391,-1.0982,-1.1313,-1.2004,-1.1672,-1.0975,-1.2916,-1.282,-1.1521,-1.1044,-1.0259,-0.9395,-0.9377,-0.9472,-0.9439,-0.8942,-0.8747,-0.8391,-0.7004,-0.6436,-0.6074,-0.5133,-0.4561,-0.4205,-0.4135,-0.3816,-0.3436,-0.3099,-0.3066,-0.3083,-0.3023,0.0,0.0,0.0,0.0,0.0,0.0,-0.7625,-0.8517,-0.7333,-0.9599,-1.137,-1.1283,-1.1536,-1.1127,-0.9627,-0.9143,-0.9129,-0.9646,-0.8298,-0.7642,-0.813,-0.9321,-1.0425,-1.1468,-1.3309,-1.5122,-1.6853,-1.7295,-1.889,-2.164,-2.1517,-2.2262,-2.3834,-2.443,-2.4728,-2.4893,-2.6912,-2.8403,-2.9577,-3.1552,-3.3136,-3.4174,-3.3433,-3.2689,-3.2181,-3.3405,-3.4155,-3.4731,-1.3044,-1.3476,-1.4142,-1.5241,-1.5848,-1.6428,-1.7168,-1.8375,-1.9199,-1.9121,-1.958,-2.0098,-2.0576,-1.9736,-1.9609,-2.0771,-2.041,-1.9299,-1.748,-1.6689,-1.5723,-1.4471,-1.2616,-1.1878,-1.249,-1.0928,-0.9687,-0.8838,-0.8408,-0.8154,-0.8051,-0.7812,-0.9396,-1.2371,-1.0926,-1.1894,-1.4516,-1.2562,-1.1662,-1.1605,-1.2472,-1.2784,-1.2824,-1.4763,-1.4227,-1.2511,-1.2646,-1.1636,-1.0175,-1.026,-0.9983,-0.9609,-0.9356,-0.8972,-0.8413,-0.7558,-0.6584,-0.5693,-0.5305,-0.4487,-0.3767,-0.4036,-0.3572,-0.3036,-0.2991,-0.3015,-0.3059,-0.3141,-0.3317,0.0,0.0,0.0,-0.5012,-0.5613,0.0,-0.737,-0.5812,-0.7809,-0.9753,-1.0635,-0.9751,-0.9385,-1.012,-0.9576,-0.9555,-1.0547,-0.9042,-0.8305,-0.8859,-1.0341,-1.149,-1.2232,-1.386,-1.5865,-1.8241,-1.8107,-1.9375,-2.2084,-2.1888,-2.2623,-2.4127,-2.5532,-2.6324,-2.683,-2.9903,-3.1876,-3.3052,-3.5142,-3.687,-3.8154,-3.8604,-3.814,-3.7257,-3.77,-3.8056,-3.8424,-1.2903,-1.3476,-1.4001,-1.4627,-1.497,-1.5571,-1.6839,-1.7278,-1.7754,-1.852,-1.9358,-2.0557,-2.2246,-2.3125,-2.3935,-2.4851,-2.5254,-2.4534,-2.2422,-1.9894,-1.9407,-2.1465,-1.5165,-1.315,-1.6443,-1.1999,-0.9221,-0.8414,-0.7944,-0.8149,-0.8945,-0.81,-0.8425,-0.9751,-1.0262,-1.0933,-1.1684,-1.2718,-1.4262,-1.606,-1.5491,-1.6299,-1.7516,-1.5245,-1.4342,-1.4339,-1.4454,-1.3453,-1.209,-1.197,-1.1081,-0.9928,-0.9614,-0.952,-0.9414,-0.8595,-0.7137,-0.5804,-0.5956,-0.5007,-0.3949,-0.3844,-0.3879,-0.3738,-0.2903,-0.3066,-0.3358,-0.3299,-0.4686,-0.5796,-0.5508,-0.6518,-0.7014,-0.5874,-0.6239,0.0,0.0,-0.5407,-0.5809,-0.6667,-0.754,-0.8597,-1.0043,-0.7957,-0.7598,-1.023,-0.9398,-0.921,-1.0262,-1.2757,-1.3445,-1.1965,-1.443,-1.64,-1.7721,-1.7707,-1.8934,-2.1338,-2.132,-2.2541,-2.484,-2.7099,-2.9266,-3.1428,-3.3738,-3.5398,-3.654,-3.8192,-3.9266,-4.0075,-4.1626,-4.2578,-4.2693,-3.9956,-3.9703,-4.0761,-1.3022,-1.3476,-1.3862,-1.4073,-1.485,-1.5784,-1.684,-1.7698,-1.8838,-2.0566,-2.1035,-2.1982,-2.3984,-2.3955,-2.4365,-2.581,-2.581,-2.5011,-2.3467,-2.1191,-2.0244,-2.1016,-1.6035,-1.4082,-1.579,-1.2607,-1.0371,-0.9192,-0.8763,-0.8704,-0.9004,-0.8694,-0.9094,-1.0099,-1.0646,-1.1989,-1.382,-1.3999,-1.4589,-1.5437,-1.5236,-1.5932,-1.7085,-1.6839,-1.6356,-1.5781,-1.5864,-1.4943,-1.3763,-1.3734,-1.2676,-1.1294,-1.1216,-1.0033,-0.8625,-0.839,-0.7526,-0.6654,-0.6714,-0.5981,-0.5129,-0.4902,-0.4292,-0.3605,-0.3085,-0.3148,-0.3395,-0.36,-0.4503,-0.5384,-0.5695,-0.6127,-0.6282,-0.5786,-0.5861,-0.5638,0.0,-0.4596,-0.4883,-0.5355,-0.7266,-0.8654,-0.8991,-1.0601,-1.1548,-1.1397,-1.2189,-1.2496,-1.2145,-1.3534,-1.4071,-1.3494,-1.4996,-1.6796,-1.8864,-1.891,-2.0459,-2.3611,-2.3611,-2.5232,-2.8217,-2.9711,-3.1622,-3.3911,-3.6952,-3.8484,-3.8996,-4.1003,-4.2001,-4.2223,-4.2792,-4.3135,-4.318,-4.2217,-4.2089,-4.241,-1.3017,-1.3463,-1.3862,-1.4073,-1.5102,-1.6129,-1.6892,-1.8045,-1.9482,-2.1191,-2.1553,-2.2412,-2.4441,-2.4121,-2.4365,-2.5791,-2.581,-2.5117,-2.3662,-2.2119,-2.1387,-2.174,-1.8164,-1.6775,-1.8144,-1.4727,-1.2373,-1.1209,-0.9874,-0.9289,-0.9453,-0.915,-0.9463,-1.0293,-1.0308,-1.1943,-1.4689,-1.4476,-1.5084,-1.6248,-1.6027,-1.6633,-1.7724,-1.7814,-1.738,-1.6815,-1.7201,-1.6518,-1.5429,-1.5429,-1.3966,-1.2055,-1.1996,-1.049,-0.8692,-0.8695,-0.7917,-0.7063,-0.7343,-0.6592,-0.574,-0.572,-0.5129,-0.4436,-0.3976,-0.4077,-0.4481,-0.5279,-0.5576,-0.6408,-0.8774,-0.7698,-0.6756,-0.7615,-0.6699,-0.5474,0.0,-0.4282,-0.4509,-0.483,-0.6672,-0.8123,-0.8643,-1.0366,-1.1881,-1.2906,-1.3274,-1.3567,-1.3767,-1.4769,-1.5003,-1.4309,-1.539,-1.7091,-1.9497,-1.9497,-2.1301,-2.4787,-2.5615,-2.7599,-3.0565,-3.2857,-3.4956,-3.6886,-3.9866,-4.1179,-4.1292,-4.2733,-4.329,-4.3275,-4.3075,-4.2985,-4.3015,-4.32,-4.314,-4.2895,-1.2935,-1.3429,-1.4047,-1.4635,-1.5615,-1.6477,-1.6955,-1.8305,-1.9637,-2.0605,-2.1103,-2.2009,-2.376,-2.3955,-2.4277,-2.5145,-2.5557,-2.5107,-2.3501,-2.2861,-2.2988,-2.3906,-2.1396,-2.0986,-2.3188,-1.8125,-1.504,-1.4202,-1.1139,-0.9874,-1.0283,-0.9453,-0.9482,-1.0205,-0.9321,-1.0886,-1.4193,-1.4151,-1.5792,-1.8437,-1.7949,-1.8433,-1.9391,-1.8224,-1.7642,-1.7461,-1.8519,-1.8084,-1.7126,-1.7085,-1.5004,-1.2419,-1.2292,-1.1079,-0.9707,-0.9552,-0.8353,-0.7209,-0.7875,-0.6985,-0.6002,-0.6386,-0.6521,-0.6408,-0.5703,-0.5899,-0.6686,-0.8346,-0.8052,-0.9055,-1.4134,-1.1074,-0.8535,-1.0874,-0.839,-0.5766,-0.4623,-0.4456,-0.4602,-0.5013,-0.5866,-0.7117,-0.8844,-0.7589,-0.8962,-1.4473,-1.2887,-1.2764,-1.5255,-1.6433,-1.6263,-1.4505,-1.5741,-1.7423,-1.9546,-1.9675,-2.1534,-2.5062,-2.7334,-2.9612,-3.2021,-3.6388,-3.9053,-4.0284,-4.2406,-4.329,-4.329,-4.329,-4.3275,-4.3185,-4.2635,-4.2381,-4.2425,-4.3,-4.2836,-4.2246,-1.335,-1.4235,-1.5051,-1.518,-1.5217,-1.5681,-1.707,-1.8139,-1.9687,-2.2158,-2.3091,-2.4258,-2.5996,-2.6182,-2.6269,-2.6494,-2.6621,-2.6504,-2.6055,-2.4414,-2.4277,-2.6103,-2.2783,-2.1758,-2.3594,-1.8877,-1.6123,-1.5596,-1.2227,-1.0478,-1.0293,-1.0078,-0.9727,-0.9341,-0.9342,-1.1158,-1.4193,-1.4151,-1.5792,-1.8568,-1.9174,-1.9022,-1.853,-2.0054,-2.0148,-1.9425,-1.8826,-1.8496,-1.8479,-1.8693,-1.7449,-1.5768,-1.5702,-1.3798,-1.1515,-1.1393,-1.0204,-0.8929,-0.887,-0.9367,-0.9711,-0.9175,-0.9707,-1.0139,-0.9403,-0.9407,-1.0118,-1.2074,-1.2747,-1.3062,-1.3356,-1.25,-1.0902,-0.8275,-0.6547,-0.5494,-0.5391,-0.519,-0.528,-0.583,-0.7318,-0.7807,-0.6503,-0.9747,-1.2385,-1.3421,-1.4554,-1.6133,-1.8371,-1.6183,-1.5358,-1.6405,-1.7527,-1.8816,-2.0297,-2.2197,-2.4886,-2.8321,-3.0288,-3.3294,-3.7141,-3.881,-4.0604,-4.2466,-4.3061,-4.329,-4.329,-4.329,-4.3045,-4.2635,-4.247,-4.2111,-4.1692,-4.1818,-4.1773,-4.1572,-1.3753,-1.5127,-1.6269,-1.6269,-1.6689,-1.7295,-1.8096,-1.8769,-1.9972,-2.2295,-2.333,-2.4316,-2.5478,-2.6113,-2.6405,-2.6405,-2.6405,-2.6133,-2.5323,-2.4893,-2.4932,-2.5576,-2.4424,-2.4307,-2.5459,-2.1943,-1.9316,-1.7744,-1.4297,-1.1895,-1.0547,-1.0176,-0.9728,-0.9293,-0.9767,-1.128,-1.3607,-1.4921,-1.6198,-1.7472,-1.934,-1.9888,0.0,-2.1137,-2.1718,-2.1647,-2.0703,-2.0075,-1.9836,-2.0208,-1.8842,-1.7026,-1.7026,-1.5246,-1.3205,-1.3149,-1.2469,-1.1666,-1.1508,-1.2008,-1.239,-1.1911,-1.2273,-1.2785,-1.2894,-1.2968,-1.3778,-1.6326,-1.6341,-1.6363,-1.7991,-1.505,-1.102,-0.6878,-0.5792,-0.5484,-0.5518,-0.5491,-0.5627,-0.603,-0.7188,-0.741,-0.6019,-1.0665,-1.3356,-1.2367,-1.4462,-1.6271,-1.7364,-1.5954,-1.6042,-1.8072,-1.8274,-1.963,-2.2223,-2.3789,-2.6638,-3.0761,-3.3262,-3.6207,-3.9499,-4.0837,-4.2125,-4.329,-4.329,-4.3125,-4.291,-4.291,-4.2521,-4.1946,-4.1647,-4.11,-4.0531,-4.0531,-4.0711,-4.0861,-1.4348,-1.6182,-1.7656,-1.7523,-1.8916,-2.0,-1.9746,-2.0068,-2.0771,-2.1982,-2.293,-2.3643,-2.4004,-2.5059,-2.5693,-2.5693,-2.5693,-2.505,-2.353,-2.4845,-2.5234,-2.4092,-2.5898,-2.7139,-2.762,-2.5449,-2.2852,-1.9834,-1.6445,-1.3369,-1.0624,-0.9884,-0.9503,-0.9467,-1.0141,-1.1318,-1.3042,-1.6052,-1.6974,-1.6662,-1.9354,-2.1047,-2.2005,-2.2156,-2.2976,-2.39,-2.3436,-2.2347,-2.1188,-2.1733,-2.0136,-1.7886,-1.7886,-1.6821,-1.5521,-1.5521,-1.5253,-1.503,-1.4998,-1.5004,-1.5006,-1.4979,-1.5137,-1.5508,-1.6576,-1.6798,-1.7702,-2.0727,-1.957,-1.9479,-2.413,-1.77,-1.0478,-0.6901,-0.627,-0.6239,-0.6271,-0.6306,-0.6363,-0.6444,-0.7136,0.0,-0.66,-1.0513,-1.2642,-1.1503,-1.3139,-1.4413,-1.4918,-1.5664,-1.7086,-1.9281,-1.9043,-2.0707,-2.4447,-2.5348,-2.8091,-3.2692,-3.6019,-3.8581,-4.0377,-4.2303,-4.317,-4.317,-4.308,-4.2761,-4.2276,-4.2276,-4.1886,-4.119,-4.0531,-3.9918,-3.9388,-3.9388,-3.9783,-4.0187,-1.5684,-1.7744,-1.9141,-1.8086,-1.9582,-2.1171,-2.1846,-2.2262,-2.274,-2.3379,-2.4521,-2.5265,-2.5343,-2.5557,-2.5693,-2.5693,-2.5693,-2.5557,-2.5255,-2.5518,-2.5586,-2.5362,-2.6103,-2.6699,-2.7119,-2.501,-2.2422,-1.9394,-1.6299,-1.292,-0.9336,-0.918,-0.8936,-0.8636,-0.9259,-1.1226,-1.4251,-1.6608,-1.8419,-1.981,-2.1413,-2.2565,-2.3484,-2.4559,-2.5177,-2.5439,-2.6022,-2.4595,-2.2508,-2.3156,-2.3087,-2.2622,-2.2622,-2.1481,-2.0224,-2.0224,-1.9314,-1.823,-1.8043,-1.8916,-1.9741,-1.9664,-2.0509,-2.1423,-2.1655,-2.1671,-2.2245,-2.4313,-2.4125,-2.3466,-2.2936,-1.7674,-1.2608,-1.0077,-0.93,-0.9588,-1.1243,-1.0472,-0.9657,-0.9382,-1.1432,-1.1231,-0.707,-0.8958,0.0,0.0,-1.0923,-1.2334,-1.6512,-1.5314,-1.6054,-1.9459,-2.2539,-2.4438,-2.4986,-2.9225,-3.2428,-3.4578,-3.7794,-4.027,-4.1984,-4.2378,-4.2575,-4.2545,-4.1953,-4.1654,-4.1587,-4.1587,-4.116,-4.0502,-3.9843,-3.9514,-3.9388,-3.9388,-3.9448,-3.9574,-1.8257,-1.9441,-2.0205,-2.0049,-2.1426,-2.2695,-2.3115,-2.4111,-2.458,-2.3887,-2.4336,-2.4727,-2.4727,-2.5284,-2.5693,-2.5693,-2.5693,-2.5693,-2.5693,-2.5693,-2.5693,-2.5693,-2.6162,-2.6592,-2.7002,-2.6221,-2.3769,-1.9609,-1.749,-1.4131,-0.9658,-0.8994,-0.8708,-0.8785,-1.033,-1.2094,-1.4119,-1.6639,-1.8281,-1.933,-2.1614,-2.2987,-2.384,-2.5177,-2.5693,-2.5801,-2.6709,-2.6102,-2.4947,-2.4953,-2.4488,-2.3822,-2.3822,-2.3279,-2.2615,-2.2615,-2.2143,-2.1519,-2.141,-2.1896,-2.2451,-2.2347,-2.2887,-2.3574,-2.4386,-2.4548,-2.504,-2.6661,-2.6654,-2.5475,-2.2551,-1.827,-1.4552,-1.2574,-1.0827,-1.0378,-1.2281,-1.208,-1.1678,-1.1531,-1.2827,-1.2339,-0.8752,-0.9513,0.0,0.0,0.0,-1.3464,-1.7702,-1.6128,-1.7438,-2.2566,-2.4639,-2.6766,-2.9079,-3.2574,-3.5368,-3.7533,-3.9979,-4.1587,-4.2396,-4.2396,-4.2216,-4.1871,-4.1557,-4.119,-4.0846,-4.0502,-4.0172,-3.9858,-3.9544,-3.9388,-3.9388,-3.9388,-3.9388,-3.9388,-2.0488,-2.0967,-2.1309,-2.1914,-2.3076,-2.3926,-2.3926,-2.5244,-2.5752,-2.4385,-2.4199,-2.4199,-2.4199,-2.5117,-2.5693,-2.5693,-2.5693,-2.5693,-2.5693,-2.5693,-2.5693,-2.5693,-2.6064,-2.6484,-2.7002,-2.7353,-2.5254,-2.0596,-1.8909,-1.5684,-1.0928,-0.9305,-0.8918,-0.9709,-1.1902,-1.3365,-1.4453,-1.7067,-1.8458,-1.9117,-2.19,-2.3462,-2.4254,-2.5274,-2.5693,-2.5791,-2.6602,-2.6943,-2.6914,-2.657,-2.5701,-2.4774,-2.4774,-2.4774,-2.4774,-2.4774,-2.4774,-2.4774,-2.4774,-2.4774,-2.4774,-2.4774,-2.4774,-2.5049,-2.6273,-2.6554,-2.6888,-2.8067,-2.766,-2.5863,-2.1721,-1.8827,-1.6401,-1.4348,-1.2257,-1.1443,-1.3013,-1.3364,-1.3546,-1.3796,-1.3726,-1.3125,-1.1712,-1.0948,-1.0988,0.0,0.0,-1.4548,-1.7617,-1.7031,-1.9144,-2.4707,-2.5873,-2.8302,-3.2204,-3.4977,-3.7544,-3.9935,-4.1457,-4.2261,-4.2396,-4.2111,-4.1707,-4.116,-4.1025,-4.0666,-4.0157,-3.9634,-3.9388,-3.9388,-3.9388,-3.9388,-3.9388,-3.9388,-3.9388,-3.9388,-2.1064,-2.2058,-2.276,-2.251,-2.3516,-2.4355,-2.4355,-2.5128,-2.5693,-2.5528,-2.5508,-2.5508,-2.5508,-2.5615,-2.5693,-2.5693,-2.5693,-2.5693,-2.5693,-2.5693,-2.5693,-2.5693,-2.5732,-2.6132,-2.6992,-2.7051,-2.5684,-2.2799,-1.9943,-1.6707,-1.3145,-1.0283,-0.9908,-1.1683,-1.3062,-1.4834,-1.6911,-1.8935,-2.0654,-2.2205,-2.3931,-2.4974,-2.5538,-2.5635,-2.5693,-2.5752,-2.6269,-2.6689,-2.7039,-2.7454,-2.7704,-2.7897,-2.7897,-2.7897,-2.7897,-2.7897,-2.7897,-2.7897,-2.7897,-2.7897,-2.7897,-2.7897,-2.7897,-2.7897,-2.8067,-2.8067,-2.8121,-2.8291,-2.6654,-2.3859,-1.934,-1.8972,-1.8185,-1.4907,-1.4625,-1.5197,-1.6159,-1.5913,-1.597,-1.7009,-1.5841,-1.5401,-1.6591,-1.2843,-1.1944,-1.5868,-1.3773,-1.3116,-1.4982,-1.7321,-1.9831,-2.2434,-2.6368,-2.9057,-3.0354,-3.5774,-3.9115,-4.0338,-4.1122,-4.1826,-4.2366,-4.113,-4.0546,-4.0457,-3.9858,-3.9574,-3.9514,-3.9454,-3.9388,-3.9388,-3.9388,-3.9388,-3.9388,-3.9388,-3.9388,-3.9388,-2.3057,-2.3144,-2.334,-2.3945,-2.4043,-2.4307,-2.504,-2.546,-2.5693,-2.5693,-2.5693,-2.5693,-2.5693,-2.5693,-2.5693,-2.5693,-2.5693,-2.5693,-2.5693,-2.5693,-2.5693,-2.5693,-2.5693,-2.6093,-2.6992,-2.7012,-2.5869,-2.3525,-2.0508,-1.7393,-1.4228,-1.1694,-1.1442,-1.3154,-1.46,-1.5965,-1.7383,-1.9656,-2.1357,-2.2687,-2.4948,-2.6267,-2.6945,-2.7626,-2.7484,-2.6911,-2.7311,-2.7112,-2.6748,-2.7483,-2.7949,-2.8291,-2.8291,-2.8291,-2.8291,-2.8291,-2.8291,-2.8291,-2.8291,-2.8291,-2.8291,-2.8291,-2.8291,-2.8291,-2.8291,-2.8291,-2.8291,-2.8291,-2.6645,-2.4323,-2.1453,-2.0144,-1.9358,-1.8862,-1.8067,-1.814,-1.9732,-1.9758,-1.9963,-2.0873,-2.0222,-1.9643,-1.9512,-1.6043,-1.4383,-1.58,-1.2642,-1.2328,-1.6155,-1.8344,-2.058,-2.309,-2.9374,-3.2787,-3.2869,-3.7843,-4.0573,-4.0995,-4.125,-4.1347,-4.1175,-4.0636,-4.0187,-3.9798,-3.9529,-3.9388,-3.9388,-3.9388,-3.9388,-3.9388,-3.9388,-3.9388,-3.9388,-3.9388,-3.9388,-3.9388,-2.4502,-2.4131,-2.4098,-2.5088,-2.4766,-2.4668,-2.5547,-2.5693,-2.5693,-2.5693,-2.5693,-2.5693,-2.5693,-2.5693,-2.5693,-2.5693,-2.5693,-2.5693,-2.5693,-2.5693,-2.5693,-2.5693,-2.5693,-2.6093,-2.6992,-2.7012,-2.6387,-2.5107,-2.1662,-1.8843,-1.659,-1.3755,-1.3187,-1.4633,-1.5863,-1.7104,-1.8369,-2.062,-2.2107,-2.3163,-2.5605,-2.6951,-2.7636,-2.8132,-2.8038,-2.7584,-2.7476,-2.7029,-2.6494,-2.7226,-2.7754,-2.8125,-2.8252,-2.8291,-2.8291,-2.8291,-2.8291,-2.8291,-2.8291,-2.8291,-2.8291,-2.8291,-2.8291,-2.8291,-2.8291,-2.8291,-2.8067,-2.7168,-2.5838,-2.4283,-2.257,-2.0814,-2.0081,-2.1321,-2.0553,-2.0201,-2.1412,-2.1829,-2.2139,-2.2579,-2.17,-2.1417,-2.2451,-1.8904,-1.7119,-1.8573,-1.55,-1.5025,-1.8374,-1.9944,-2.2105,-2.5134,-3.1396,-3.4737,-3.4708,-3.9148,-4.1422,-4.1422,-4.119,-4.0846,-4.0382,-4.0202,-3.9858,-3.9388,-3.9388,-3.9388,-3.9388,-3.9388,-3.9388,-3.9388,-3.9388,-3.9388,-3.9388,-3.9388,-3.9388,-3.9388,-2.494,-2.5096,-2.5195,-2.5596,-2.5674,-2.5674,-2.5693,-2.5693,-2.5693,-2.5693,-2.5693,-2.5693,-2.5693,-2.5693,-2.5693,-2.5693,-2.5693,-2.5693,-2.5693,-2.5693,-2.5693,-2.5693,-2.5693,-2.6093,-2.6992,-2.7012,-2.7412,-2.8242,-2.3736,-2.1372,-2.0918,-1.6586,-1.512,-1.6215,-1.6686,-1.8208,-2.0577,-2.2047,-2.3226,-2.4227,-2.5758,-2.6878,-2.7447,-2.6197,-2.6524,-2.7447,-2.6159,-2.6025,-2.6455,-2.6875,-2.7314,-2.7796,-2.8164,-2.8291,-2.8291,-2.8291,-2.8291,-2.8291,-2.8291,-2.8291,-2.8291,-2.8291,-2.8291,-2.8291,-2.8291,-2.8291,-2.7447,-2.4497,-2.3651,-2.2958,-2.141,-2.0539,-2.0289,-2.0897,-2.1353,-2.1337,-2.0434,-2.1194,-2.1653,-2.125,-1.8666,-1.941,-2.5813,-2.1014,-1.9975,-2.6008,-2.4271,-2.2399,-2.1126,-2.2287,-2.472,-2.8512,-3.1566,-3.3649,-3.4682,-3.9166,-4.1422,-4.1407,-4.0726,-4.0412,-4.0382,-3.9723,-3.9388,-3.9388,-3.9388,-3.9388,-3.9388,-3.9388,-3.9388,-3.9388,-3.9388,-3.9388,-3.9388,-3.9388,-3.9388,-3.9388,-2.5469,-2.5527,-2.5566,-2.5664,-2.5693,-2.5693,-2.5693,-2.5693,-2.5693,-2.5693,-2.5693,-2.5693,-2.5693,-2.5693,-2.5693,-2.5693,-2.5693,-2.5693,-2.5693,-2.5693,-2.5693,-2.5693,-2.6025,-2.6445,-2.7002,-2.6262,-2.618,-2.6825,-2.2588,-1.9714,-1.8187,-1.6595,-1.632,-1.7184,-1.8268,-1.9273,-2.0384,-2.2787,-2.3916,-2.432,-2.6695,-2.7624,-2.7731,-2.8993,-2.868,-2.7636,-2.8085,-2.7208,-2.6006,-2.6445,-2.668,-2.6865,-2.7295,-2.7627,-2.7861,-2.7861,-2.7656,-2.7422,-2.7422,-2.7637,-2.7861,-2.7861,-2.8086,-2.8291,-2.8291,-2.8291,-2.7736,-2.5763,-2.5283,-2.4726,-2.2999,-2.3249,-2.3608,-2.3285,-2.4186,-2.4697,-2.4065,-2.5001,-2.5792,-2.5932,-2.5858,-2.6733,-2.9106,-2.5774,-2.3629,-2.4179,-2.1815,-2.0771,-2.1658,-2.505,-2.7016,-2.7182,-3.3196,-3.6083,-3.534,-3.8891,-4.0711,-4.0711,-4.0053,-3.9723,-3.9723,-3.9514,-3.9388,-3.9388,-3.9388,-3.9388,-3.9388,-3.9388,-3.9388,-3.9388,-3.9388,-3.9388,-3.9388,-3.9388,-3.9388,-3.9388,-2.5693,-2.5693,-2.5693,-2.5693,-2.5693,-2.5693,-2.5693,-2.5693,-2.5693,-2.5693,-2.583,-2.5977,-2.5977,-2.5977,-2.5869,-2.5703,-2.5693,-2.5693,-2.5693,-2.5693,-2.5762,-2.5977,-2.624,-2.6388,-2.6423,-2.5757,-2.5371,-2.5261,-2.2006,-1.946,-1.7627,-1.7321,-1.7374,-1.7809,-1.9201,-2.0113,-2.0859,-2.3123,-2.4313,-2.4824,-2.6555,-2.7421,-2.7731,-2.8762,-2.8495,-2.7636,-2.7898,-2.702,-2.5752,-2.624,-2.6387,-2.6465,-2.6885,-2.71,-2.7217,-2.7373,-2.7226,-2.7012,-2.7012,-2.7217,-2.7461,-2.7679,-2.7861,-2.8096,-2.8262,-2.8291,-2.7897,-2.6381,-2.61,-2.5746,-2.4628,-2.495,-2.5447,-2.5544,-2.6059,-2.6478,-2.6622,-2.7373,-2.7887,-2.7782,-2.8645,-2.9576,-3.0554,-2.8957,-2.7912,-2.8064,-2.6348,-2.5812,-2.6994,-2.7397,-2.83,-2.9829,-3.5211,-3.7551,-3.6457,-3.9054,-4.0277,-4.0023,-3.9619,-3.9388,-3.9388,-3.9388,-3.9388,-3.9388,-3.9388,-3.9388,-3.9388,-3.9388,-3.9388,-3.9388,-3.9388,-3.9388,-3.9388,-3.9388,-3.9388,-3.9388,-2.5693,-2.5693,-2.5693,-2.5693,-2.5693,-2.5693,-2.5693,-2.5693,-2.5703,-2.5732,-2.6133,-2.6396,-2.6426,-2.6406,-2.6221,-2.5771,-2.5703,-2.5693,-2.5693,-2.5693,-2.5937,-2.6367,-2.6416,-2.6168,-2.5592,-2.5361,-2.4685,-2.3487,-2.18,-2.0222,-1.8918,-1.8604,-1.8365,-1.8198,-1.9582,-2.0844,-2.1954,-2.3276,-2.4559,-2.5693,-2.5693,-2.6428,-2.7363,-2.6245,-2.6524,-2.7315,-2.6245,-2.5781,-2.5752,-2.6201,-2.6338,-2.6406,-2.6807,-2.666,-2.6426,-2.6846,-2.6953,-2.6924,-2.6924,-2.6973,-2.7109,-2.7519,-2.7718,-2.7812,-2.8203,-2.8271,-2.7858,-2.6508,-2.6227,-2.6227,-2.6227,-2.5891,-2.6081,-2.7594,-2.7145,-2.7033,-2.8216,-2.8603,-2.8405,-2.7619,-2.8023,-2.902,-3.0726,-3.0896,-3.229,-3.5701,-3.5466,-3.5157,-3.5157,-2.9352,-2.8913,-3.5245,-3.709,-3.7951,-3.7869,-3.9426,-3.9949,-3.9388,-3.9388,-3.9388,-3.9388,-3.9388,-3.9388,-3.9388,-3.9388,-3.9388,-3.9388,-3.9388,-3.9388,-3.9388,-3.9388,-3.9388,-3.9388,-3.9388,-3.9388,-3.9388,-2.5693,-2.5693,-2.5693,-2.5693,-2.5693,-2.5693,-2.5693,-2.5693,-2.581,-2.6191,-2.6328,-2.6514,-2.6836,-2.6582,-2.6348,-2.624,-2.5928,-2.5693,-2.5693,-2.5693,-2.5937,-2.6367,-2.6699,-2.6956,-2.7146,-2.5207,-2.2959,-2.0429,-1.9785,-1.9251,-1.8911,-1.8342,-1.8638,-1.965,-2.0833,-2.2038,-2.3326,-2.4658,-2.543,-2.5693,-2.5693,-2.5878,-2.6197,-2.6897,-2.6706,-2.6245,-2.6897,-2.6524,-2.5703,-2.581,-2.5889,-2.5859,-2.5966,-2.5918,-2.5927,-2.6406,-2.6299,-2.5996,-2.5996,-2.6464,-2.7041,-2.7148,-2.7666,-2.8174,-2.8271,-2.8047,-2.776,-2.7372,-2.7319,-2.7319,-2.7319,-2.7482,-2.7945,-2.9055,-2.9073,-2.9245,-3.0222,-3.1183,-3.1786,-3.1558,-3.2455,-3.3276,-3.369,-3.3746,-3.3081,-3.1461,-3.1625,-3.1746,-3.1746,-3.0658,-3.1524,-3.4768,-3.6092,-3.6922,-3.729,-3.8053,-3.8744,-3.9388,-3.9388,-3.9388,-3.9388,-3.9388,-3.9388,-3.9388,-3.9388,-3.9388,-3.9388,-3.9388,-3.9388,-3.9388,-3.9388,-3.9388,-3.9388,-3.9388,-3.9388,-3.9388,-2.5693,-2.5693,-2.5693,-2.5693,-2.5693,-2.5693,-2.5693,-2.5859,-2.6123,-2.6357,-2.6728,-2.6982,-2.7012,-2.6816,-2.6602,-2.6406,-2.5986,-2.5693,-2.5693,-2.5693,-2.5966,-2.665,-2.6894,-2.6985,-2.699,-2.5611,-2.371,-2.1437,-2.053,-2.0097,-1.9956,-1.9499,-1.9618,-2.0166,-2.1989,-2.3459,-2.4564,-2.5353,-2.6062,-2.6524,-2.5917,-2.5693,-2.5781,-2.6476,-2.6294,-2.5781,-2.6476,-2.6294,-2.5693,-2.5693,-2.5693,-2.5693,-2.5693,-2.5693,-2.5732,-2.6025,-2.5918,-2.5693,-2.5693,-2.6221,-2.6826,-2.7217,-2.7803,-2.8242,-2.8047,-2.7885,-2.766,-2.7412,-2.8018,-2.8613,-2.8613,-2.9466,-3.0285,-3.0788,-3.0305,-3.029,-3.1592,-3.196,-3.2414,-3.3271,-3.4367,-3.5056,-3.5056,-3.5328,-3.4726,-3.293,-3.3068,-3.3244,-3.3244,-3.3508,-3.411,-3.5019,-3.5862,-3.6316,-3.6386,-3.7307,-3.8345,-3.9388,-3.9388,-3.9388,-3.9388,-3.8907,-3.8943,-3.9373,-3.887,-3.8943,-3.9388,-3.9388,-3.9388,-3.9388,-3.9388,-3.9388,-3.9388,-3.9388,-3.9388,-3.9388,-2.5693,-2.5693,-2.5693,-2.5693,-2.5693,-2.5693,-2.5693,-2.6113,-2.6406,-2.6475,-2.7119,-2.7451,-2.7148,-2.7002,-2.6777,-2.6416,-2.6055,-2.5762,-2.5693,-2.5752,-2.6132,-2.6982,-2.7012,-2.6783,-2.6326,-2.6064,-2.5149,-2.361,-2.2328,-2.163,-2.1412,-2.1186,-2.097,-2.0792,-2.3211,-2.4793,-2.5557,-2.5868,-2.6476,-2.722,-2.6159,-2.5693,-2.5693,-2.5693,-2.5693,-2.5693,-2.5693,-2.5693,-2.5693,-2.5693,-2.5693,-2.5693,-2.5693,-2.5693,-2.5693,-2.5693,-2.5732,-2.5791,-2.5791,-2.6201,-2.6768,-2.7568,-2.7978,-2.8105,-2.7796,-2.762,-2.7415,-2.7237,-2.838,-2.9558,-2.9823,-3.1155,-3.2107,-3.1885,-3.1112,-3.0948,-3.221,-3.2007,-3.2321,-3.3827,-3.4806,-3.5408,-3.5495,-3.5968,-3.6317,-3.6405,-3.6405,-3.6367,-3.6292,-3.6279,-3.5956,-3.527,-3.5762,-3.5817,-3.536,-3.6976,-3.8182,-3.8943,-3.8943,-3.8943,-3.8892,-3.7979,-3.8069,-3.8892,-3.8144,-3.8308,-3.9177,-3.9337,-3.9388,-3.9388,-3.9388,-3.9388,-3.9388,-3.9388,-3.9388,-3.9388,-2.5693,-2.5693,-2.5693,-2.5693,-2.5693,-2.5693,-2.5693,-2.6113,-2.6514,-2.6875,-2.7031,-2.7226,-2.7581,-2.6924,-2.6455,-2.6396,-2.6328,-2.6133,-2.5713,-2.6084,-2.6504,-2.6992,-2.7012,-2.7143,-2.7472,-2.5823,-2.4245,-2.2699,-2.2484,-2.2352,-2.2296,-2.2051,-2.2468,-2.3519,-2.473,-2.5412,-2.5752,-2.6839,-2.6802,-2.5965,-2.5781,-2.5693,-2.5693,-2.5693,-2.5693,-2.5693,-2.5693,-2.5693,-2.5693,-2.5693,-2.5693,-2.5693,-2.5693,-2.5693,-2.5693,-2.5693,-2.5996,-2.6289,-2.6289,-2.6865,-2.764,-2.8076,-2.7978,-2.7796,-2.7738,-2.7109,-2.6853,-2.7821,-2.8234,-2.8879,-3.0436,-3.1194,-3.1236,-3.0043,-3.1586,-3.2482,-3.1104,-3.2791,-3.4262,-3.4542,-3.4705,-3.4994,-3.5458,-3.5571,-3.5868,-3.6367,-3.6405,-3.6157,-3.5658,-3.5621,-3.5157,-3.4186,-3.4647,-3.4891,-3.4809,-3.6805,-3.742,-3.6682,-3.6682,-3.6682,-3.6682,-3.6526,-3.6526,-3.6721,-3.7472,-3.7866,-3.8107,-3.9017,-3.9388,-3.9388,-3.9388,-3.9388,-3.9388,-3.9388,-3.9388,-3.9388,-2.5732,-2.5693,-2.5693,-2.5693,-2.5693,-2.5771,-2.6055,-2.6455,-2.6885,-2.7314,-2.7363,-2.7353,-2.7314,-2.6758,-2.6299,-2.6055,-2.625,-2.6309,-2.6103,-2.6484,-2.6816,-2.7012,-2.7012,-2.7109,-2.7314,-2.6422,-2.5628,-2.4934,-2.4132,-2.3651,-2.3497,-2.3272,-2.344,-2.3953,-2.5088,-2.6041,-2.6706,-2.662,-2.662,-2.6658,-2.5965,-2.5693,-2.5693,-2.5693,-2.5693,-2.5693,-2.5693,-2.5693,-2.5693,-2.5693,-2.5693,-2.5693,-2.5693,-2.5693,-2.5693,-2.5693,-2.6045,-2.6484,-2.6953,-2.7415,-2.7826,-2.8193,-2.7978,-2.7607,-2.7373,-2.6836,-2.6695,-2.7668,-2.8598,-2.9741,-3.125,-3.2477,-3.3001,-3.2349,-3.2836,-3.3084,-3.2469,-3.2955,-3.3483,-3.3796,-3.4098,-3.4374,-3.4625,-3.4881,-3.5157,-3.5466,-3.5479,-3.5366,-3.5069,-3.5056,-3.4726,-3.3922,-3.4433,-3.4682,-3.4718,-3.62,-3.6682,-3.6198,-3.6198,-3.6198,-3.6158,-3.5628,-3.5708,-3.6237,-3.6735,-3.7266,-3.7866,-3.8943,-3.9388,-3.9388,-3.9388,-3.9388,-3.9388,-3.9388,-3.9388,-3.9388,-2.5908,-2.5762,-2.5693,-2.5693,-2.5693,-2.5801,-2.6182,-2.6592,-2.6992,-2.7376,-2.7425,-2.7236,-2.6904,-2.6494,-2.6143,-2.5859,-2.6289,-2.6582,-2.668,-2.6982,-2.7119,-2.7021,-2.6924,-2.6816,-2.6719,-2.6719,-2.6719,-2.6719,-2.5544,-2.4858,-2.4606,-2.4496,-2.4436,-2.4384,-2.5596,-2.6585,-2.728,-2.6478,-2.6524,-2.7078,-2.611,-2.5693,-2.5693,-2.5693,-2.5693,-2.5693,-2.5693,-2.5693,-2.5693,-2.5693,-2.5693,-2.5693,-2.5693,-2.5693,-2.5693,-2.5693,-2.6113,-2.6719,-2.7578,-2.7812,-2.7861,-2.8096,-2.7832,-2.7402,-2.6963,-2.6543,-2.6566,-2.7747,-2.9058,-3.0524,-3.2201,-3.3629,-3.4324,-3.3684,-3.3407,-3.3144,-3.2792,-3.2554,-3.2579,-3.3018,-3.3445,-3.3759,-3.3884,-3.4286,-3.4587,-3.4668,-3.468,-3.4663,-3.4537,-3.4525,-3.4363,-3.4089,-3.451,-3.4594,-3.4304,-3.5359,-3.5854,-3.5854,-3.5614,-3.5614,-3.5814,-3.4774,-3.4733,-3.5494,-3.5734,-3.6462,-3.751,-3.8583,-3.9177,-3.9388,-3.9388,-3.9388,-3.9388,-3.9388,-3.9388,-3.9388,-2.6348,-2.6016,-2.5693,-2.5693,-2.5693,-2.5703,-2.5732,-2.6162,-2.6445,-2.6475,-2.6484,-2.6465,-2.6435,-2.6045,-2.5937,-2.6309,-2.6728,-2.7139,-2.7601,-2.765,-2.7432,-2.7031,-2.6641,-2.624,-2.5791,-2.5781,-2.5781,-2.5781,-2.5683,-2.5615,-2.5586,-2.5576,-2.578,-2.6269,-2.7081,-2.7084,-2.6557,-2.7167,-2.6849,-2.583,-2.5732,-2.5693,-2.5693,-2.5693,-2.5693,-2.5693,-2.5693,-2.5693,-2.5693,-2.5693,-2.5693,-2.5693,-2.5693,-2.5693,-2.5693,-2.5693,-2.6328,-2.7158,-2.8018,-2.8252,-2.8164,-2.7855,-2.7393,-2.6953,-2.6533,-2.6094,-2.642,-2.8773,-2.9383,-3.0331,-3.3242,-3.3878,-3.3131,-3.057,-3.2227,-3.2767,-2.9678,-3.1436,-3.3074,-3.3111,-3.3106,-3.3332,-3.3847,-3.3935,-3.4173,-3.4675,-3.468,-3.45,-3.3985,-3.396,-3.415,-3.4632,-3.469,-3.4233,-3.324,-3.4275,-3.4815,-3.4787,-3.3784,-3.3869,-3.4787,-3.3713,-3.3283,-3.3398,-3.4387,-3.5359,-3.6408,-3.7472,-3.8509,-3.9388,-3.9388,-3.9388,-3.9388,-3.9388,-3.9388,-3.9388,-2.6435,-2.6035,-2.5693,-2.5693,-2.5693,-2.5781,-2.6103,-2.6279,-2.6484,-2.6738,-2.6543,-2.6387,-2.6387,-2.5996,-2.5752,-2.5967,-2.6621,-2.709,-2.7246,-2.7519,-2.7353,-2.666,-2.6211,-2.5859,-2.5693,-2.5693,-2.5693,-2.5693,-2.5693,-2.583,-2.6143,-2.6143,-2.6367,-2.6758,-2.6804,-2.6705,-2.6407,-2.6435,-2.6159,-2.5693,-2.5693,-2.5693,-2.5693,-2.5693,-2.5693,-2.5693,-2.5693,-2.5693,-2.5693,-2.5693,-2.5693,-2.5693,-2.5693,-2.5693,-2.5742,-2.6064,-2.6553,-2.7148,-2.7744,-2.8096,-2.8193,-2.7826,-2.7344,-2.7097,-2.7428,-2.7166,-2.7579,-2.9988,-3.0541,-3.1104,-3.3071,-3.3382,-3.3043,-3.2001,-3.2704,-3.2955,-3.1675,-3.2416,-3.3124,-3.3124,-3.3124,-3.3156,-3.337,-3.3382,-3.3483,-3.3684,-3.3709,-3.3608,-3.3395,-3.4033,-3.4763,-3.5588,-3.5628,-3.5426,-3.5034,-3.6081,-3.6279,-3.5628,-3.4581,-3.4317,-3.4664,-3.3598,-3.3124,-3.3154,-3.4233,-3.4938,-3.54,-3.7112,-3.8032,-3.8472,-3.9141,-3.9388,-3.9388,-3.9388,-3.9388,-3.9388,-2.6641,-2.6133,-2.5693,-2.5693,-2.5693,-2.5791,-2.6143,-2.6182,-2.6289,-2.6572,-2.6367,-2.6182,-2.6182,-2.5869,-2.5742,-2.5937,-2.6484,-2.6875,-2.7002,-2.7168,-2.7002,-2.6416,-2.5967,-2.5693,-2.5693,-2.5693,-2.5693,-2.5693,-2.5693,-2.6153,-2.7002,-2.6576,-2.6931,-2.7832,-2.6832,-2.6465,-2.6543,-2.5927,-2.5693,-2.5693,-2.5693,-2.5693,-2.5693,-2.5693,-2.5693,-2.5693,-2.5693,-2.5693,-2.5693,-2.5693,-2.5693,-2.5693,-2.5693,-2.5693,-2.5771,-2.626,-2.668,-2.7212,-2.8089,-2.8481,-2.859,-2.8161,-2.8006,-2.8037,-2.8471,-2.8357,-2.8727,-3.0765,-3.1223,-3.1589,-3.2884,-3.3124,-3.3124,-3.3124,-3.3124,-3.3124,-3.3124,-3.3124,-3.3124,-3.3124,-3.3124,-3.3124,-3.3124,-3.3124,-3.3124,-3.3124,-3.3124,-3.324,-3.3598,-3.4317,-3.5332,-3.6643,-3.6682,-3.6852,-3.72,-3.7252,-3.7098,-3.6682,-3.5682,-3.5332,-3.5655,-3.4581,-3.3911,-3.3641,-3.4387,-3.4705,-3.4828,-3.6593,-3.751,-3.7919,-3.898,-3.9388,-3.9388,-3.9388,-3.9388,-3.9388,-2.7012,-2.6328,-2.5693,-2.5693,-2.5693,-2.5693,-2.5693,-2.5693,-2.5693,-2.5693,-2.5693,-2.5693,-2.5693,-2.5693,-2.5908,-2.6348,-2.6387,-2.6562,-2.6982,-2.6621,-2.6387,-2.6387,-2.5967,-2.5693,-2.5693,-2.5693,-2.5693,-2.5684,-2.5684,-2.6659,-2.8378,-2.7051,-2.7623,-2.9604,-2.7402,-2.6621,-2.6953,-2.6044,-2.5693,-2.5693,-2.5693,-2.5693,-2.5693,-2.5693,-2.5693,-2.5693,-2.5693,-2.5693,-2.5693,-2.5693,-2.5693,-2.5693,-2.5693,-2.5693,-2.5771,-2.626,-2.668,-2.7406,-2.9226,-2.9635,-2.9419,-2.8948,-2.9391,-2.9907,-2.9519,-2.9407,-2.9772,-3.0944,-3.1223,-3.1589,-3.2884,-3.3124,-3.3124,-3.3124,-3.3124,-3.3124,-3.3124,-3.3124,-3.3124,-3.3124,-3.3124,-3.3124,-3.3124,-3.3124,-3.3124,-3.3124,-3.3124,-3.3598,-3.4664,-3.4705,-3.5655,-3.7753,-3.7791,-3.8308,-3.9388,-3.7291,-3.6774,-3.7791,-3.6735,-3.6774,-3.7753,-3.6682,-3.5668,-3.4705,-3.4705,-3.4705,-3.4787,-3.5774,-3.6852,-3.7904,-3.898,-3.9388,-3.9388,-3.9388,-3.9388,-3.9388,-2.6631,-2.6123,-2.5693,-2.5693,-2.5693,-2.5693,-2.5693,-2.5693,-2.5693,-2.5693,-2.5693,-2.5693,-2.5693,-2.5693,-2.5742,-2.5918,-2.6211,-2.6435,-2.6562,-2.6455,-2.625,-2.5947,-2.5762,-2.5693,-2.5693,-2.5693,-2.6159,-2.703,-2.703,-2.8084,-3.0145,-2.9758,-2.9614,-2.9676,-2.8678,-2.7592,-2.6543,-2.5927,-2.5693,-2.5693,-2.5693,-2.5693,-2.5693,-2.5693,-2.5693,-2.5693,-2.5693,-2.5693,-2.5693,-2.5693,-2.5693,-2.5693,-2.5693,-2.5693,-2.5966,-2.739,-2.8066,-2.8809,-3.0602,-3.1405,-3.1488,-3.0522,-3.016,-3.0141,-3.0567,-3.0676,-3.1,-3.2283,-3.2513,-3.2655,-3.3025,-3.3124,-3.3124,-3.3124,-3.3124,-3.3124,-3.3124,-3.3124,-3.3124,-3.3124,-3.3124,-3.3124,-3.3124,-3.3124,-3.3124,-3.3124,-3.3797,-3.4979,-3.6763,-3.688,-3.751,-3.887,-3.8907,-3.9068,-3.9388,-3.8767,-3.862,-3.8907,-3.7829,-3.751,-3.7753,-3.6682,-3.6053,-3.5734,-3.5734,-3.5359,-3.4828,-3.6593,-3.706,-3.6852,-3.8694,-3.9388,-3.9388,-3.9388,-3.9388,-3.9388,-2.6465,-2.6035,-2.5693,-2.5693,-2.5693,-2.5693,-2.5693,-2.5693,-2.5693,-2.5693,-2.5693,-2.5693,-2.5693,-2.5693,-2.5693,-2.5693,-2.5977,-2.6133,-2.6133,-2.6133,-2.6016,-2.5703,-2.5693,-2.5693,-2.5693,-2.6197,-2.6849,-2.7589,-2.8085,-2.9172,-3.0886,-3.0343,-2.993,-2.9676,-2.8672,-2.7552,-2.6357,-2.5918,-2.5693,-2.5693,-2.5693,-2.5693,-2.5693,-2.5693,-2.5693,-2.5693,-2.5693,-2.5693,-2.5693,-2.5693,-2.5693,-2.5693,-2.5693,-2.6062,-2.6742,-2.8209,-2.9174,-3.0161,-3.1919,-3.2556,-3.2593,-3.2206,-3.1667,-3.1333,-3.1849,-3.1965,-3.2152,-3.2939,-3.3124,-3.3124,-3.3124,-3.3124,-3.3124,-3.3124,-3.3124,-3.3124,-3.3124,-3.3124,-3.3124,-3.3124,-3.3471,-3.3713,-3.3713,-3.4315,-3.4727,-3.4727,-3.5325,-3.6302,-3.7729,-3.7791,-3.8308,-3.9373,-3.9388,-3.9388,-3.9388,-3.9388,-3.9388,-3.9388,-3.8745,-3.8435,-3.842,-3.7776,-3.7252,-3.6813,-3.6813,-3.6265,-3.544,-3.7112,-3.742,-3.7007,-3.8745,-3.9388,-3.9388,-3.9388,-3.9388,-3.9388,-2.6416,-2.6006,-2.5693,-2.5693,-2.5693,-2.5693,-2.5693,-2.5693,-2.5693,-2.5693,-2.5693,-2.5693,-2.5693,-2.5693,-2.5693,-2.5693,-2.5693,-2.5693,-2.5693,-2.5693,-2.5693,-2.5693,-2.583,-2.583,-2.5693,-2.6849,-2.7542,-2.7767,-2.8866,-2.9935,-3.0962,-2.9694,-2.9249,-2.9509,-2.7864,-2.682,-2.6309,-2.5859,-2.5693,-2.5693,-2.5693,-2.5693,-2.5693,-2.5693,-2.5693,-2.5693,-2.5693,-2.5693,-2.5693,-2.5693,-2.5693,-2.5742,-2.583,-2.6668,-2.7815,-2.9013,-3.016,-3.1467,-3.3184,-3.3291,-3.3056,-3.3756,-3.3483,-3.3124,-3.3124,-3.3124,-3.3124,-3.3124,-3.3124,-3.3124,-3.3124,-3.3124,-3.3124,-3.3124,-3.3124,-3.3124,-3.3124,-3.3124,-3.3124,-3.3124,-3.4037,-3.4731,-3.4784,-3.6307,-3.7287,-3.7353,-3.7353,-3.7526,-3.791,-3.7956,-3.8383,-3.9373,-3.9388,-3.9388,-3.9388,-3.9388,-3.9388,-3.9388,-3.9388,-3.9388,-3.9388,-3.9388,-3.887,-3.7956,-3.7956,-3.7343,-3.6448,-3.7496,-3.7866,-3.7919,-3.898,-3.9388,-3.9388,-3.9388,-3.9388,-3.9388,-2.5967,-2.5752,-2.5693,-2.5693,-2.5693,-2.5693,-2.5693,-2.5693,-2.5693,-2.5693,-2.5693,-2.5693,-2.5693,-2.5693,-2.5693,-2.5693,-2.5693,-2.5693,-2.5693,-2.5693,-2.5693,-2.5693,-2.6668,-2.6706,-2.5742,-2.5965,-2.7067,-2.8993,-2.9269,-3.0228,-3.1819,-3.1542,-3.0418,-2.8663,-2.8275,-2.7274,-2.583,-2.5732,-2.5693,-2.5693,-2.5693,-2.5693,-2.5693,-2.5693,-2.5693,-2.5693,-2.5693,-2.5693,-2.5693,-2.5693,-2.5693,-2.5878,-2.6849,-2.7352,-2.8183,-3.1175,-3.223,-3.2829,-3.4613,-3.4656,-3.4202,-3.3946,-3.3483,-3.3124,-3.3124,-3.3124,-3.3124,-3.3124,-3.3124,-3.3124,-3.3124,-3.3124,-3.3124,-3.3124,-3.3124,-3.3124,-3.3124,-3.3124,-3.3124,-3.3124,-3.4037,-3.489,-3.5381,-3.6974,-3.8111,-3.8443,-3.8453,-3.8621,-3.901,-3.9068,-3.9141,-3.9388,-3.9388,-3.9388,-3.9388,-3.9388,-3.9388,-3.9388,-3.9388,-3.9388,-3.9388,-3.9388,-3.9265,-3.9068,-3.9068,-3.842,-3.7548,-3.862,-3.8546,-3.7919,-3.898,-3.9388,-3.9388,-3.9388,-3.9388,-3.9388,-2.5771,-2.5693,-2.5693,-2.5693,-2.5693,-2.5693,-2.5693,-2.5693,-2.5693,-2.5693,-2.5693,-2.5693,-2.5693,-2.5693,-2.5693,-2.5693,-2.5693,-2.5693,-2.5693,-2.5693,-2.5693,-2.5693,-2.715,-2.7256,-2.5742,-2.7091,-2.8346,-2.9407,-3.0,-3.0854,-3.2019,-3.2019,-3.0661,-2.832,-2.832,-2.7306,-2.5693,-2.5693,-2.5693,-2.5693,-2.5693,-2.5693,-2.5693,-2.5693,-2.5693,-2.5693,-2.5693,-2.5693,-2.5781,-2.638,-2.662,-2.6802,-2.8085,-2.8855,-2.9782,-3.2217,-3.3293,-3.3977,-3.4882,-3.4893,-3.4525,-3.3709,-3.3294,-3.3124,-3.3124,-3.3124,-3.3124,-3.3124,-3.3124,-3.3124,-3.3124,-3.3124,-3.3124,-3.3124,-3.3124,-3.3124,-3.3124,-3.3124,-3.3283,-3.3797,-3.4774,-3.6183,-3.8185,-3.9182,-3.9822,-4.0021,-3.9751,-3.9512,-3.9418,-3.9388,-3.9388,-3.9388,-3.9388,-3.9388,-3.9388,-3.9388,-3.9388,-3.9388,-3.9388,-3.9388,-3.9388,-3.9388,-3.9388,-3.9388,-3.9388,-3.9068,-3.862,-3.9177,-3.9068,-3.862,-3.9177,-3.9388,-3.9388,-3.9388,-3.9388,-3.9388,-2.5762,-2.5693,-2.5693,-2.5693,-2.5693,-2.5693,-2.5693,-2.5693,-2.5693,-2.5693,-2.5693,-2.5693,-2.5693,-2.5693,-2.5693,-2.5693,-2.5693,-2.5781,-2.6014,-2.6014,-2.614,-2.6442,-2.8109,-2.8269,-2.6659,-2.9179,-3.0179,-2.9407,-3.0631,-3.1404,-3.1786,-3.1786,-3.057,-2.8375,-2.8193,-2.7331,-2.6014,-2.5781,-2.5693,-2.5693,-2.5693,-2.583,-2.6014,-2.5781,-2.583,-2.6014,-2.5781,-2.583,-2.6197,-2.7494,-2.7908,-2.8143,-2.9315,-3.0406,-3.1458,-3.2721,-3.378,-3.4575,-3.4575,-3.4575,-3.4336,-3.3332,-3.3124,-3.3124,-3.3124,-3.3124,-3.3124,-3.3124,-3.3124,-3.3124,-3.3124,-3.3124,-3.3124,-3.3124,-3.3124,-3.3154,-3.3356,-3.3356,-3.3755,-3.4815,-3.5964,-3.7845,-4.0934,-4.1309,-4.1324,-4.122,-4.0711,-4.0113,-3.9454,-3.9388,-3.9388,-3.9388,-3.9388,-3.9388,-3.9388,-3.9388,-3.9388,-3.9388,-3.9388,-3.9388,-3.9388,-3.9388,-3.9388,-3.9388,-3.9388,-3.9388,-3.9388,-3.9388,-3.9388,-3.9388,-3.9388,-3.9388,-3.9388,-3.9388,-3.9388,-3.9388,-2.5703,-2.5693,-2.5693,-2.5693,-2.5693,-2.5693,-2.5693,-2.5693,-2.5693,-2.5693,-2.5693,-2.5693,-2.5693,-2.5693,-2.5693,-2.5693,-2.5693,-2.6149,-2.7268,-2.7363,-2.8041,-2.9506,-3.087,-3.117,-3.0278,-3.1321,-3.1031,-2.9407,-3.0631,-3.1214,-3.1285,-3.1285,-3.0556,-2.9185,-2.8134,-2.7557,-2.7268,-2.6149,-2.5693,-2.5693,-2.5693,-2.6342,-2.722,-2.611,-2.638,-2.722,-2.611,-2.639,-2.7542,-2.8773,-2.9177,-2.9361,-3.0586,-3.1078,-3.152,-3.3266,-3.3877,-3.401,-3.401,-3.401,-3.3859,-3.3232,-3.3124,-3.3124,-3.3124,-3.3124,-3.3124,-3.3124,-3.3124,-3.3124,-3.3124,-3.3124,-3.3124,-3.3124,-3.3124,-3.3441,-3.4345,-3.447,-3.4856,-3.5894,-3.7447,-3.8991,-4.039,-4.1055,-4.1145,-4.0576,-4.0442,-4.0113,-3.9454,-3.9388,-3.9388,-3.9388,-3.9388,-3.9388,-3.9388,-3.9388,-3.9388,-3.9388,-3.9388,-3.9388,-3.9388,-3.9388,-3.9388,-3.9388,-3.9388,-3.9388,-3.9388,-3.9388,-3.9388,-3.9388,-3.9388,-3.9388,-3.9388,-3.9388,-3.9388,-3.9388,-2.5693,-2.5693,-2.5693,-2.5693,-2.5693,-2.5693,-2.5693,-2.5693,-2.5693,-2.5693,-2.5693,-2.5693,-2.5693,-2.5693,-2.6245,-2.7662,-2.7163,-2.7305,-2.8541,-2.8885,-2.9407,-3.0171,-3.2008,-3.2383,-3.1019,-3.2671,-3.2678,-3.0892,-3.1097,-3.1545,-3.2283,-3.2283,-3.1601,-3.0406,-2.9863,-2.8866,-2.7542,-2.6982,-2.6332,-2.5781,-2.6476,-2.7078,-2.7589,-2.772,-2.8132,-2.8541,-2.7992,-2.8132,-2.8773,-3.0,-3.0406,-3.0631,-3.1877,-3.2283,-3.2481,-3.3602,-3.3897,-3.3897,-3.3897,-3.3897,-3.3771,-3.3219,-3.3124,-3.3124,-3.3124,-3.3124,-3.3124,-3.3124,-3.3124,-3.3124,-3.3124,-3.3124,-3.3313,-3.3911,-3.3995,-3.4345,-3.54,-3.5547,-3.5908,-3.6982,-3.862,-3.9868,-4.036,-4.0666,-4.0711,-4.0427,-4.0053,-3.9723,-3.9439,-3.9388,-3.9388,-3.9388,-3.9388,-3.9388,-3.9388,-3.9388,-3.9388,-3.9388,-3.9388,-3.9388,-3.9388,-3.9388,-3.9388,-3.9388,-3.9388,-3.9388,-3.9388,-3.9388,-3.9388,-3.9388,-3.9388,-3.9388,-3.9388,-3.9388,-3.9388,-3.9388]},{"header":{"parameterUnit":"m.s-1","parameterCategory":1,"la1":30.6,"la2":28.766,"lo1":-90.7593,"lo2":-88.6598,"dx":0.0162,"dy":0.0183,"nx":116,"ny":114,"refTime":"2022-12-31T18:00:00:Z","depth":0,"parameterNumber":3,"parameterNumberName":"V-component_of_WINDS"},"data":[0.0,0.0,0.0,0.0,0.0,0.0,0.0,0.0,0.0,0.0,0.0,0.0,0.0,0.0,0.0,0.0,0.0,0.0,0.0,0.0,0.0,0.0,0.0,0.0,0.0,0.0,0.0,0.0,0.0,0.0,0.0,0.0,0.0,0.0,0.0,0.0,0.0,0.0,0.0,0.0,0.0,0.0,0.0,0.0,0.0,0.0,0.0,0.0,0.0,0.0,0.0,0.0,0.0,0.0,0.0,0.0,0.0,0.0,0.0,0.0,0.0,0.0,0.0,0.0,0.0,0.0,0.0,0.0,0.0,0.0,0.0,0.0,0.0,0.0,0.0,0.0,0.0,0.0,0.0,0.0,0.0,0.0,0.0,0.0,0.0,0.0,0.0,0.0,0.0,0.0,0.0,0.0,0.0,0.0,0.0,0.0,0.0,0.0,0.0,0.0,0.0,0.0,0.0,0.0,0.0,0.0,0.0,0.0,0.0,0.0,0.0,0.0,0.0,0.0,0.0,0.0,0.0,0.0,0.0,0.0,0.0,0.0,0.0,0.0,0.0,0.0,0.0,0.0,0.0,0.0,0.0,0.0,0.0,0.0,0.0,0.0,0.0,0.0,0.0,0.0,0.0,0.0,0.0,0.0,0.0,0.0,0.0,0.0,0.0,0.0,0.0,0.0,0.0,0.0,0.0,0.0,0.0,0.0,0.0,0.0,0.0,0.0,0.0,0.0,0.0,0.0,0.0,0.0,0.0,0.0,0.0,0.0,0.0,0.0,0.0,0.0,0.0,0.0,0.0,0.0,0.0,0.0,0.0,0.0,0.0,0.0,0.0,0.0,0.0,0.0,0.0,0.0,0.0,0.0,0.0,0.0,0.0,0.0,0.0,0.0,0.0,0.0,0.0,0.0,0.0,0.0,0.0,0.0,0.0,0.0,0.0,0.0,0.0,0.0,0.0,0.0,0.0,0.0,0.0,0.0,0.0,0.0,0.0,0.0,0.0,0.0,0.0,0.0,0.0,0.0,0.0,0.0,0.0,0.0,0.0,0.0,0.0,0.0,0.0,0.0,0.0,0.0,0.0,0.0,0.0,0.0,0.0,0.0,0.0,0.0,0.0,0.0,0.0,0.0,0.0,0.0,0.0,0.0,0.0,0.0,0.0,0.0,0.0,0.0,0.0,0.0,0.0,0.0,0.0,0.0,0.0,0.0,0.0,0.0,0.0,0.0,0.0,0.0,0.0,0.0,0.0,0.0,0.0,0.0,0.0,0.0,0.0,0.0,0.0,0.0,0.0,0.0,0.0,0.0,0.0,0.0,0.0,0.0,0.0,0.0,0.0,0.0,0.0,0.0,0.0,0.0,0.0,0.0,0.0,0.0,0.0,0.0,0.0,0.0,0.0,0.0,0.0,0.0,0.0,0.0,0.0,0.0,0.0,0.0,0.0,0.0,0.0,0.0,0.0,0.0,0.0,0.0,0.0,0.0,0.0,0.0,0.0,0.0,0.0,0.0,0.0,0.0,0.0,0.0,0.0,0.0,0.0,0.0,0.0,0.0,0.0,0.0,0.0,0.0,0.0,0.0,0.0,0.0,0.0,0.0,0.0,0.0,0.0,0.0,0.0,0.0,0.0,0.0,0.0,0.0,0.0,0.0,0.0,0.0,0.0,0.0,0.0,0.0,0.0,0.0,0.0,0.0,0.0,0.0,0.0,0.0,0.0,0.0,0.0,0.0,0.0,0.0,0.0,0.0,0.0,0.0,0.0,0.0,0.0,0.0,0.0,0.0,0.0,0.0,0.0,0.0,0.0,0.0,0.0,0.0,0.0,0.0,0.0,0.0,0.0,0.0,0.0,0.0,0.0,0.0,0.0,0.0,0.0,0.0,0.0,0.0,0.0,0.0,0.0,0.0,0.0,0.0,0.0,0.0,0.0,0.0,0.0,0.0,0.0,0.0,0.0,0.0,0.0,0.0,0.0,0.0,0.0,0.0,0.0,0.0,0.0,0.0,0.0,0.0,0.0,0.0,0.0,0.0,0.0,0.0,0.0,0.0,0.0,0.0,0.0,0.0,0.0,0.0,0.0,0.0,0.0,0.0,0.0,0.0,0.0,0.0,0.0,0.0,0.0,0.0,0.0,0.0,0.0,0.0,0.0,0.0,0.0,0.0,0.0,0.0,0.0,0.0,0.0,0.0,0.0,0.0,0.0,0.0,0.0,0.0,0.0,0.0,0.0,0.0,0.0,0.0,0.0,0.0,0.0,0.0,0.0,0.0,0.0,0.0,0.0,0.0,0.0,0.0,0.0,0.0,0.0,0.0,0.0,0.0,0.0,0.0,0.0,0.0,0.0,0.0,0.0,0.0,0.0,0.0,0.0,0.0,0.0,0.0,0.0,0.0,0.0,0.0,0.0,0.0,0.0,0.0,0.0,0.0,0.0,0.0,0.0,0.0,0.0,0.0,0.0,0.0,0.0,0.0,0.0,0.0,0.0,0.0,0.0,0.0,0.0,0.0,0.0,0.0,0.0,0.0,0.0,0.0,0.0,0.0,0.0,0.0,0.0,0.0,0.0,0.0,0.0,0.0,0.0,0.0,0.0,0.0,0.0,0.0,0.0,0.0,0.0,0.0,0.0,0.0,0.0,0.0,0.0,0.0,0.0,0.0,0.0,0.0,0.0,0.0,0.0,0.0,0.0,0.0,0.0,0.0,0.0,0.0,0.0,0.0,0.0,0.0,0.0,0.0,0.0,0.0,0.0,0.0,0.0,0.0,0.0,0.0,0.0,0.0,0.0,0.0,0.0,0.0,0.0,0.0,0.0,0.0,0.0,0.0,0.0,0.0,0.0,0.0,0.0,0.0,0.0,0.0,0.0,0.0,0.0,0.0,0.0,0.0,0.0,0.0,0.0,0.0,0.0,0.0,0.0,0.0,0.0,0.0,0.0,0.0,0.0,0.0,0.0,0.0,0.0,0.0,0.0,0.0,0.0,0.0,0.0,0.0,0.0,0.0,0.0,0.0,0.0,0.0,0.0,0.0,0.0,0.0,0.0,0.0,0.0,0.0,0.0,0.0,0.0,0.0,0.0,0.0,0.0,0.0,0.0,0.0,0.0,0.0,0.0,0.0,0.0,0.0,0.0,0.0,0.0,0.0,0.0,0.0,0.0,0.0,0.0,0.0,0.0,0.0,0.0,0.0,0.0,0.0,0.0,0.0,0.0,0.0,0.0,0.0,0.0,0.0,0.0,0.0,0.0,0.0,0.0,0.0,0.0,0.0,0.0,0.0,0.0,0.0,0.0,0.0,0.0,0.0,0.0,0.0,0.0,0.0,0.0,0.0,0.0,0.0,0.0,0.0,0.0,0.0,0.0,0.0,0.0,0.0,0.0,0.0,0.0,0.0,0.0,0.0,0.0,0.0,0.0,0.0,0.0,0.0,0.0,0.0,0.0,0.0,0.0,0.0,0.0,0.0,0.0,0.0,0.0,0.0,0.0,0.0,0.0,0.0,0.0,0.0,0.0,0.0,0.0,0.0,0.0,0.0,0.0,0.0,0.0,0.0,0.0,0.0,0.0,0.0,0.0,0.0,0.0,0.0,0.0,0.0,0.0,0.0,0.0,0.0,0.0,0.0,0.0,0.0,0.0,0.0,0.0,0.0,0.0,0.0,0.0,0.0,0.0,0.0,0.0,0.0,0.0,0.0,0.0,0.0,0.0,0.0,0.0,0.0,0.0,0.0,0.0,0.0,0.0,0.0,0.0,0.0,0.0,0.0,0.0,0.0,0.0,0.0,0.0,0.0,0.0,0.0,0.0,0.0,0.0,0.0,0.0,0.0,0.0,0.0,0.0,0.0,0.0,0.0,0.0,0.0,0.0,0.0,0.0,0.0,0.0,0.0,0.0,0.0,0.0,0.0,0.0,0.0,0.0,0.0,0.0,0.0,0.0,0.0,0.0,0.0,0.0,0.0,0.0,0.0,0.0,0.0,0.0,0.0,0.0,0.0,0.0,0.0,0.0,0.0,0.0,0.0,0.0,0.0,0.0,0.0,0.0,0.0,0.0,0.0,0.0,0.0,0.0,0.0,0.0,0.0,0.0,0.0,0.0,0.0,0.0,0.0,0.0,0.0,0.0,0.0,0.0,0.0,0.0,0.0,0.0,0.0,0.0,0.0,0.0,0.0,0.0,0.0,0.0,0.0,0.0,0.0,0.0,0.0,0.0,0.0,0.0,0.0,0.0,0.0,0.0,0.0,0.0,0.0,0.0,0.0,0.0,0.0,0.0,0.0,0.0,0.0,0.0,0.0,0.0,0.0,0.0,0.0,0.0,0.0,0.0,0.0,0.0,0.0,0.0,0.0,0.0,0.0,0.0,0.0,0.0,0.0,0.0,0.0,0.0,0.0,0.0,0.0,0.0,0.0,0.0,0.0,0.0,0.0,0.0,0.0,0.0,0.0,0.0,0.0,0.0,0.0,0.0,0.0,0.0,0.0,0.0,0.0,0.0,0.0,0.0,0.0,0.0,0.0,0.0,0.0,0.0,0.0,0.0,0.0,0.0,0.0,0.0,0.0,0.0,0.0,0.0,0.0,0.0,0.0,0.0,0.0,0.0,0.0,0.0,0.0,0.0,0.0,0.0,0.0,0.0,0.0,0.0,0.0,0.0,0.0,0.0,0.0,0.0,0.0,0.0,0.0,0.0,0.0,0.0,0.0,0.0,0.0,0.0,0.0,0.0,0.0,0.0,0.0,0.0,0.0,0.0,0.0,0.0,0.0,0.0,0.0,0.0,0.0,0.0,0.0,0.0,0.0,0.0,0.0,0.0,0.0,0.0,0.0,0.0,0.0,0.0,0.0,0.0,0.0,0.0,0.0,0.0,0.0,0.0,0.0,0.0,0.0,0.0,0.0,0.0,0.0,0.0,0.0,0.0,0.0,0.0,0.0,0.0,0.0,0.0,0.0,0.0,0.0,0.0,0.0,0.0,0.0,0.0,0.0,0.0,0.0,0.0,0.0,0.0,0.0,0.0,0.0,0.0,0.0,0.0,0.0,0.0,0.0,0.0,0.0,0.0,0.0,0.0,0.0,0.0,0.0,0.0,0.0,0.0,0.0,0.0,0.0,0.0,0.0,0.0,0.0,0.0,0.0,0.0,0.0,0.0,0.0,0.0,0.0,0.0,0.0,0.0,0.0,0.0,0.0,0.0,0.0,0.0,0.0,0.0,0.0,0.0,0.0,0.0,0.0,0.0,0.0,0.0,0.0,0.0,0.0,0.0,0.0,0.0,0.0,0.0,0.0,0.0,0.0,0.0,0.0,0.0,0.0,0.0,0.0,0.0,0.0,0.0,0.0,0.0,0.0,0.0,0.0,0.0,0.0,0.0,0.0,0.0,0.0,0.0,0.0,0.0,0.0,0.0,0.0,0.0,0.0,0.0,0.0,0.0,0.0,0.0,0.0,0.0,0.0,0.0,0.0,0.0,0.0,0.0,0.0,0.0,0.0,0.0,0.0,0.0,0.0,0.0,0.0,0.0,0.0,0.0,0.0,0.0,0.0,0.0,0.0,0.0,0.0,0.0,0.0,0.0,0.0,0.0,0.0,0.0,0.0,0.0,0.0,0.0,0.0,0.0,0.0,0.0,0.0,0.0,0.0,0.0,0.0,0.0,0.0,0.0,0.0,0.0,0.0,0.0,0.0,0.0,0.0,0.0,0.0,0.0,0.0,0.0,0.0,0.0,0.0,0.0,0.0,0.0,0.0,0.0,0.0,0.0,0.0,0.0,0.0,0.0,0.0,0.0,0.0,0.0,0.0,0.0,0.0,0.0,0.0,0.0,0.0,0.0,0.0,0.0,0.0,0.0,0.0,0.0,0.0,0.0,0.0,0.0,0.0,0.0,0.0,0.0,0.0,0.0,0.0,0.0,0.0,0.0,0.0,0.0,0.0,0.0,0.0,0.0,0.0,0.0,0.0,0.0,0.0,0.0,0.0,0.0,0.0,0.0,0.0,0.0,0.0,0.0,0.0,0.0,0.0,0.0,0.0,0.0,0.0,0.0,0.0,0.0,0.0,0.0,0.0,0.0,0.0,0.0,0.0,0.0,0.0,0.0,0.0,0.0,0.0,1.8644,1.514,0.0,0.0,0.0,0.0,0.0,0.0,0.0,0.0,0.0,0.0,0.0,0.0,0.0,0.0,0.0,0.0,0.0,0.0,0.0,0.0,0.0,0.0,0.0,0.0,0.0,0.0,0.0,0.0,0.0,0.0,0.0,0.0,0.0,0.0,0.0,0.0,1.0149,1.1637,1.3083,1.5707,1.9299,1.7354,1.568,1.4259,0.0,0.0,0.0,0.0,0.0,0.0,0.0,0.0,0.0,0.0,0.0,0.0,0.0,0.0,0.0,0.0,0.0,0.0,0.0,0.0,0.0,0.0,0.0,0.0,0.0,0.0,0.0,0.0,0.0,0.0,0.0,0.0,0.0,0.0,0.0,0.0,0.0,0.0,0.0,0.0,0.0,0.0,0.0,0.0,0.0,0.0,0.0,0.0,0.0,0.0,0.0,0.0,0.0,0.0,0.0,0.0,0.0,0.0,0.0,0.0,0.0,0.0,0.0,0.0,0.0,0.0,0.0,0.0,0.0,0.0,2.2235,2.0003,0.0,0.0,0.0,0.0,0.0,0.0,0.0,0.0,0.0,0.0,0.0,0.0,0.0,0.0,0.0,0.0,0.0,0.0,0.0,0.0,0.0,0.0,0.0,1.0944,1.14,1.1671,1.1577,1.1231,0.0,0.0,0.0,0.0,0.0,0.0,0.9281,1.0149,1.1773,1.4166,1.7433,2.1004,2.4763,2.5017,2.3427,2.0196,1.7191,0.0,0.0,0.0,0.0,0.0,0.0,0.0,0.0,0.0,0.0,0.0,0.0,0.0,0.0,0.0,0.0,0.0,0.0,0.0,0.0,0.0,0.0,0.0,0.0,0.0,0.0,0.0,0.0,0.0,0.0,0.0,0.0,0.0,0.0,0.0,0.0,0.0,0.0,0.0,0.0,0.0,0.0,0.0,0.0,0.0,0.0,0.0,0.0,0.0,0.0,0.0,0.0,0.0,0.0,0.0,0.0,0.0,0.0,0.0,0.0,0.0,0.0,0.0,2.6254,2.6857,2.7537,2.7672,2.8547,2.9742,2.6193,2.5669,2.6929,2.2397,0.0,0.0,0.0,0.0,0.0,0.0,0.0,0.0,0.0,0.0,0.0,0.0,0.0,0.0,0.0,0.0,0.0,0.0,0.0,0.0,0.0,1.2077,1.2669,1.3946,1.3472,1.3057,1.2956,0.0,0.0,0.0,0.0,0.0,1.0815,1.222,1.4353,1.7208,2.4678,2.8958,3.0192,3.1478,3.1478,3.0127,2.4002,2.0856,1.9938,0.0,0.0,0.0,0.0,0.0,0.0,0.0,0.0,0.0,0.0,0.0,0.0,0.0,0.0,0.0,0.0,0.0,0.0,0.0,0.0,0.0,0.0,0.0,0.0,0.0,0.0,0.0,0.0,0.0,0.0,0.0,0.0,0.0,0.0,0.0,0.0,0.0,0.0,0.0,0.0,0.0,1.9626,1.9764,0.0,0.0,0.0,0.0,0.0,0.0,0.0,0.0,0.0,0.0,0.0,0.0,0.0,2.4606,2.5925,2.7733,2.8594,2.8524,3.085,3.2253,3.2821,3.3523,3.4367,3.5251,3.4687,0.0,2.8255,2.6583,0.0,0.0,0.0,0.0,0.0,0.0,0.0,0.0,0.0,0.0,0.0,0.0,0.0,0.0,0.0,0.0,0.0,0.0,0.0,0.0,0.0,1.5764,1.661,1.8132,1.7975,1.7061,1.5378,1.4945,0.0,0.0,0.0,1.1299,1.1756,1.4462,1.8978,2.5338,3.0596,3.3791,3.4979,3.5639,3.5757,3.5301,3.1935,2.7926,2.3511,2.1025,0.0,0.0,0.0,0.0,0.0,0.0,0.0,0.0,0.0,0.0,0.0,0.0,0.0,0.0,0.0,0.0,0.0,0.0,0.0,0.0,0.0,0.0,0.0,0.0,0.0,0.0,0.0,0.0,0.0,0.0,0.0,0.0,0.0,0.0,0.0,0.0,0.0,0.0,0.0,1.8981,2.0524,2.1542,2.0538,1.9547,0.0,0.0,0.0,0.0,0.0,0.0,0.0,0.0,0.0,2.7764,2.7948,2.9111,3.139,3.2504,3.3217,3.3569,3.4929,3.5612,3.5681,3.6024,3.6304,3.653,3.6366,3.5087,3.3,3.0815,2.854,2.6269,0.0,0.0,0.0,0.0,2.3842,2.3726,0.0,0.0,0.0,0.0,0.0,0.0,0.0,0.0,0.0,0.0,0.0,0.0,1.8403,1.9502,2.067,2.2189,2.2155,2.1173,1.9109,1.8262,1.6773,1.4368,1.3143,1.2897,1.3684,1.8285,2.4408,3.2036,3.503,3.7077,3.8193,3.8379,3.8362,3.8159,3.7601,3.3931,2.801,2.5778,2.268,1.9024,0.0,0.0,0.0,0.0,0.0,0.0,0.0,0.0,0.0,0.0,0.0,0.0,0.0,0.0,0.0,0.0,0.0,0.0,0.0,0.0,0.0,0.0,0.0,0.0,0.0,0.0,0.0,0.0,0.0,0.0,0.0,0.0,0.0,0.0,0.0,0.0,0.0,2.0526,2.2285,2.3485,2.3325,2.2713,0.0,0.0,0.0,0.0,0.0,0.0,2.7085,2.7827,2.9445,3.209,3.2154,3.3325,3.5771,3.6081,3.6516,3.7101,3.7356,3.746,3.7422,3.7344,3.7314,3.731,3.7026,3.7044,3.7005,3.439,3.2545,3.1178,2.947,2.8219,2.7562,2.9073,2.9303,2.9163,0.0,0.0,0.0,0.0,0.0,0.0,0.0,0.0,0.0,0.0,0.0,1.7732,2.0699,2.2307,2.3765,2.5253,2.4745,2.4575,2.5135,2.2544,2.0581,1.9647,1.7557,1.6773,1.7512,2.4678,3.0381,3.432,3.7347,3.887,3.8954,3.9673,3.9622,3.8937,3.8903,3.7483,3.4822,3.0531,2.774,2.5693,1.9959,0.0,0.0,0.0,0.0,0.0,0.0,0.0,0.0,0.0,0.0,0.0,0.0,0.0,0.0,0.0,0.0,0.0,0.0,0.0,0.0,0.0,0.0,0.0,0.0,0.0,0.0,0.0,0.0,0.0,0.0,0.0,0.0,0.0,0.0,0.0,0.0,0.0,0.0,2.5895,2.7467,0.0,0.0,0.0,0.0,2.7408,2.7829,2.9382,3.2437,3.2657,3.382,3.6311,3.6398,3.6466,3.6639,3.6906,3.7057,3.7101,3.7112,3.7557,3.8327,3.8003,3.8268,3.8955,3.8704,3.8594,3.8481,3.6798,3.5133,3.362,3.3505,3.2515,3.1317,3.2936,3.3486,3.3652,0.0,0.0,0.0,1.2238,1.1997,1.1705,1.1188,1.1932,1.3219,1.4986,1.7771,2.0733,2.3714,2.5355,2.6826,2.8348,2.8264,2.7588,2.6387,2.444,2.2984,2.2226,2.053,2.1732,2.6319,2.9973,3.366,3.7398,3.8962,3.9935,4.0426,4.0679,4.0916,4.1119,4.1119,4.0409,3.8988,3.5487,3.2019,2.8619,2.5491,2.162,0.0,0.0,0.0,0.0,0.0,0.0,0.0,0.0,0.0,0.0,0.0,0.0,0.0,0.0,0.0,0.0,0.0,0.0,0.0,0.0,0.0,0.0,0.0,0.0,0.0,0.0,0.0,0.0,0.0,0.0,0.0,0.0,0.0,0.0,0.0,0.0,0.0,2.8143,2.9895,0.0,2.9605,3.0951,3.1987,3.2278,3.3515,3.4754,3.5904,3.6119,3.653,3.7188,3.7215,3.7303,3.7476,3.7939,3.8365,3.8724,3.9671,4.0177,4.0275,4.0721,4.1075,4.1325,4.0797,4.0696,4.0806,3.9804,3.8432,3.6945,3.6945,3.6597,3.6174,3.6743,3.6945,3.6949,0.0,0.0,0.0,1.2737,1.2677,1.2491,1.1966,1.2948,1.4563,1.6786,1.9908,2.3171,2.6404,2.8061,2.9364,3.0378,3.048,3.004,2.9025,2.686,2.5406,2.4915,2.346,2.5592,3.1799,3.3389,3.5994,3.9732,4.0223,4.0832,4.1576,4.1576,4.183,4.2286,4.2286,4.2016,4.1424,3.9208,3.6129,3.2544,3.0243,2.6657,2.2327,0.0,0.0,0.0,0.0,0.0,0.0,0.0,0.0,0.0,0.0,0.0,0.0,0.0,0.0,0.0,0.0,0.0,0.0,0.0,0.0,0.0,0.0,0.0,0.0,0.0,0.0,0.0,0.0,0.0,0.0,0.0,0.0,0.0,0.0,2.75,2.9948,2.9916,3.2371,3.3662,3.2583,3.453,3.5881,3.5881,3.7024,3.7857,3.8163,3.8233,3.8253,3.8212,3.8111,3.8209,3.8563,3.9093,3.9709,4.046,4.1552,4.2017,4.1915,4.2271,4.2433,4.2381,4.1712,4.1551,4.1735,4.128,4.0471,3.9515,3.9515,3.9515,3.9515,3.9515,3.9515,3.9441,0.0,0.0,1.3396,1.3396,1.3396,1.3396,1.3396,1.4056,1.5856,1.9512,2.1992,2.4863,2.8587,3.033,3.119,3.119,3.119,3.1799,3.3203,2.9835,2.779,2.7858,2.6623,2.8317,3.3444,3.5001,3.7533,4.1204,4.1221,4.161,4.232,4.232,4.2337,4.2354,4.2354,4.2354,4.2286,4.1576,4.0003,3.7686,3.3969,3.1546,2.9651,0.0,0.0,0.0,0.0,0.0,0.0,0.0,0.0,0.0,0.0,0.0,0.0,0.0,0.0,0.0,0.0,0.0,0.0,0.0,0.0,0.0,0.0,0.0,0.0,0.0,0.0,0.0,0.0,0.0,0.0,0.0,0.0,0.0,2.7635,3.0019,3.1855,3.1372,3.5062,3.7035,3.5479,3.6991,3.8084,3.8084,3.8084,3.845,3.9284,3.9065,3.9115,3.9611,3.9351,3.9435,3.9934,4.0284,4.0999,4.2096,4.2452,4.2795,4.309,4.2454,4.2184,4.2146,4.1489,4.1185,4.1185,4.1185,4.1168,4.1168,4.1113,4.1095,4.1095,4.1095,4.1095,4.1095,1.3396,1.3396,1.3396,1.3396,1.3396,1.3396,1.3396,1.4488,1.6431,1.9579,2.2446,2.5422,2.8654,3.033,3.119,3.119,3.119,3.114,3.1021,2.8501,2.7657,2.9109,3.1708,3.4411,3.7115,3.8086,3.9433,4.1204,4.1728,4.2371,4.3115,4.3115,4.3403,4.3972,4.3972,4.3639,4.3098,4.2868,4.1847,4.007,3.7415,3.481,3.2222,0.0,0.0,0.0,0.0,0.0,0.0,0.0,0.0,0.0,0.0,0.0,0.0,0.0,0.0,0.0,0.0,0.0,0.0,0.0,0.0,0.0,0.0,0.0,0.0,0.0,0.0,0.0,0.0,0.0,0.0,0.0,3.11,3.2645,3.1337,3.3426,3.5346,3.6029,3.7724,3.865,3.8224,3.9165,3.9804,3.9804,3.9804,3.9919,4.0169,4.0683,4.0817,4.0474,4.0992,4.1115,4.0763,4.1093,4.1432,4.1754,4.2655,4.3166,4.3255,4.3724,4.39,4.3888,4.3405,4.3197,4.3166,4.2934,4.2837,4.2708,4.157,4.1095,4.1095,4.1095,4.1095,4.1095,1.3396,1.3396,1.3396,1.3396,1.3396,1.3396,1.3396,1.4911,1.7236,2.0538,2.3308,2.6234,2.9568,3.0683,3.119,3.119,3.119,3.0886,3.014,2.8748,2.9125,3.1756,3.3934,3.6301,3.8926,3.944,4.0472,4.204,4.2521,4.3149,4.391,4.391,4.4147,4.4615,4.4615,4.4333,4.3876,4.3527,4.2902,4.1965,4.0054,3.7872,3.5554,3.3744,3.2036,3.0328,2.8113,2.7114,2.6725,2.5981,0.0,0.0,0.0,0.0,0.0,0.0,0.0,0.0,0.0,0.0,0.0,0.0,0.0,0.0,0.0,0.0,0.0,0.0,0.0,0.0,0.0,0.0,0.0,0.0,3.4231,3.5654,3.5479,3.668,3.7808,3.8481,3.9284,3.9804,3.9804,4.0566,4.1046,4.1046,4.1373,4.1593,4.1593,4.1916,4.1856,4.136,4.1713,4.1791,4.1607,4.1927,4.2437,4.3107,4.3603,4.402,4.4365,4.4344,4.4364,4.4337,4.3958,4.3788,4.3772,4.358,4.3515,4.3423,0.0,0.0,0.0,0.0,4.2121,4.2121,1.3396,1.3396,1.3396,1.3396,1.3396,1.3396,1.3396,1.5208,1.7958,2.1803,2.4154,2.6945,3.0768,3.119,3.1157,3.1072,3.114,3.0908,3.0219,3.03,3.1717,3.4727,3.4544,3.5954,3.9403,3.977,4.096,4.3093,4.3394,4.391,4.4615,4.4615,4.4615,4.4615,4.4615,4.4564,4.4401,4.3623,4.325,4.302,4.1644,4.0341,3.9022,3.6924,3.5707,3.4844,3.2713,3.1529,3.0852,3.0025,0.0,0.0,0.0,0.0,0.0,0.0,0.0,0.0,0.0,0.0,0.0,0.0,0.0,0.0,0.0,0.0,0.0,0.0,0.0,0.0,0.0,0.0,0.0,0.0,3.7088,3.8591,3.9333,3.9515,3.9592,3.9592,4.0208,4.0689,4.0785,4.1489,4.1942,4.1942,4.2662,4.3104,4.3104,4.2862,0.0,0.0,0.0,4.2102,4.2433,4.2746,4.3602,4.5,4.4646,4.4912,4.5641,4.4479,4.4033,4.4188,4.3796,4.3698,4.3772,4.3772,4.3772,4.3753,4.357,4.3515,4.3515,4.3515,4.3515,4.3515,1.3396,1.3396,1.3396,1.3396,1.3396,1.3396,1.3396,1.4776,1.7371,2.1721,2.3714,2.6369,3.0717,3.119,3.0954,3.0362,3.0852,3.1047,3.0698,3.311,3.458,3.4656,3.6646,3.8287,3.9378,4.0602,4.1644,4.2481,4.3756,4.4462,4.4615,4.4615,4.4615,4.4615,4.4615,4.4231,4.3589,4.2828,4.2168,4.1559,4.0679,4.051,4.0663,3.9614,3.9148,3.8809,3.7178,3.6518,3.6197,3.4793,3.2848,3.0855,2.9973,2.8146,0.0,0.0,0.0,0.0,0.0,0.0,0.0,0.0,0.0,0.0,0.0,0.0,0.0,0.0,0.0,0.0,0.0,0.0,0.0,3.642,3.8037,3.9437,4.0161,4.0873,4.1316,4.1316,4.145,4.1816,4.2527,4.2758,4.2854,4.2854,4.3008,4.3104,4.3104,4.3639,4.3693,4.3089,4.3685,4.3791,4.3276,4.3343,4.3505,4.3818,4.3753,0.0,4.4878,4.3999,4.4297,4.5494,4.4781,4.4837,4.5443,4.5443,4.5443,4.5314,4.401,4.3515,4.3515,4.3515,4.3515,4.3515,1.3396,1.3396,1.3396,1.3396,1.3396,1.3396,1.3396,1.4962,1.7354,2.0707,2.2784,2.5235,2.8569,2.8619,2.8247,2.7874,2.818,2.9244,3.122,3.3129,3.4819,3.6188,3.7825,3.8864,3.9239,4.043,4.1433,4.2201,4.3413,4.4198,4.4598,4.4181,4.3995,4.3978,4.3606,4.3014,4.2286,4.1914,4.1322,4.0603,4.008,3.998,4.0104,4.0113,4.0096,4.0011,3.9283,3.8751,3.8278,3.7121,3.5504,3.3761,3.2645,3.1164,2.9265,0.0,0.0,0.0,0.0,0.0,0.0,0.0,0.0,0.0,0.0,0.0,0.0,0.0,0.0,3.3434,3.4834,0.0,3.7517,3.8672,3.9922,4.0834,4.1112,4.1893,4.2297,4.1846,4.22,4.2624,4.3066,4.3451,4.3701,4.3701,4.4105,4.4355,4.4355,4.4565,4.4459,4.397,4.418,4.4236,4.4085,4.4488,4.5112,4.5902,4.5902,4.6104,4.6471,4.5681,4.5516,4.5883,4.548,4.5535,4.592,4.6131,4.6198,4.614,4.5549,4.5186,4.4994,4.4994,4.4846,4.4631,1.3608,1.3498,1.3379,1.3337,1.3363,1.3379,1.3329,1.5001,1.7117,1.949,2.1461,2.354,2.5915,2.5528,2.5156,2.5356,2.5953,2.7855,3.1445,3.2803,3.473,3.7569,3.8243,3.8682,3.8942,3.9824,4.0688,4.1485,4.2346,4.3098,4.3718,4.3064,4.2777,4.2743,4.2134,4.1457,4.0764,4.0629,4.0223,3.963,3.9271,3.9042,3.8972,3.9477,3.9747,3.9812,3.9812,3.9438,3.8802,3.797,3.6874,3.5605,3.4381,3.3313,3.2053,2.953,2.9274,0.0,0.0,0.0,0.0,0.0,0.0,0.0,0.0,3.1157,3.1924,3.395,3.5059,3.6202,3.7878,3.8765,3.9676,4.1042,4.1868,4.225,4.2075,4.2797,4.3066,4.2374,4.2912,4.3393,4.3566,4.4162,4.4547,4.4547,4.521,4.5594,4.5594,4.5342,4.5011,4.4606,4.4294,4.4302,4.4709,4.5498,4.6544,4.7847,4.7994,4.8086,4.8049,4.7223,4.6672,4.6361,4.6361,4.6452,4.661,4.6859,4.7018,4.7127,4.7438,4.7424,4.7147,4.6772,4.6392,4.6019,1.4385,1.3862,1.3329,1.3085,1.3234,1.332,1.3085,1.4005,1.5781,1.864,1.9549,2.1048,2.3982,2.3632,2.3591,2.4543,2.7233,2.9468,3.0837,3.4262,3.6436,3.6898,3.7618,3.8115,3.8382,3.9133,3.9486,3.9348,4.0104,4.0519,4.0603,4.0519,4.0468,4.0468,4.0392,3.9952,3.9191,3.8548,3.8227,3.8091,3.7407,3.7741,3.8606,3.8265,3.8406,3.8777,3.8777,3.8725,3.8463,3.7296,3.6812,3.6616,3.6178,3.5503,3.4725,3.4253,3.2722,3.098,3.0083,2.9963,3.0368,3.1464,3.1874,3.3014,0.0,3.6811,3.6644,3.9343,4.0094,4.0554,4.1558,4.1811,4.212,4.2815,4.3001,4.3053,4.2964,4.3643,4.4124,4.4028,4.4105,4.447,4.5248,4.5402,4.546,4.546,4.5537,4.5594,4.5594,4.5568,4.5253,4.4618,4.4553,4.4591,4.4709,4.5498,4.5993,4.6177,4.6874,4.7223,4.7204,4.6416,4.6764,4.8031,4.8031,4.845,4.9059,4.8765,4.8827,4.9181,4.9206,4.9422,4.948,4.7689,4.6989,4.6941,1.4898,1.4602,1.4249,1.377,1.3883,1.4004,1.3888,1.46,1.5731,1.7399,1.7633,1.8274,1.9969,1.9883,2.0124,2.1147,2.4729,2.7512,2.8956,3.2754,3.5148,3.563,3.6692,3.7285,3.7381,3.8277,3.8758,3.8763,3.9227,3.969,4.0096,3.9673,3.9469,3.9453,3.9022,3.8413,3.7709,3.7381,3.6992,3.6558,3.6556,3.6679,3.6891,3.7326,3.7137,3.6755,3.734,3.7327,0.0,3.6319,3.5865,3.559,3.5665,3.5539,3.5279,3.4752,3.4436,3.444,3.5288,3.4866,3.4355,3.4949,3.523,3.5863,3.7715,3.8158,3.88,4.1045,4.1917,4.2415,4.2863,4.2932,4.3,4.3168,4.3634,4.3923,4.3811,4.4509,4.5056,4.5056,4.5056,4.521,4.5556,4.5594,4.5594,4.5594,4.5594,4.5594,4.5594,4.5594,4.5283,4.4618,4.5051,4.5331,4.5388,4.7404,4.8638,4.9119,5.038,5.0509,4.9601,4.9195,4.9021,4.8996,4.8996,4.9187,4.9522,4.9575,4.9706,4.9866,5.0104,5.0294,5.0314,4.9231,4.866,4.8418,1.5445,1.5179,1.4826,1.4397,1.4589,1.4768,1.4578,1.5074,1.5768,1.6587,1.637,1.6338,1.687,1.71,1.7602,1.8515,2.2263,2.5363,2.7265,3.0836,3.3421,3.4637,3.5696,3.6296,3.6381,3.72,3.7654,3.7672,3.7933,3.8345,3.886,3.8311,3.8058,3.8041,3.7516,3.6975,3.6451,3.6451,3.6129,3.5627,3.6011,3.6049,3.5847,3.6073,3.5624,3.4965,3.5662,3.5483,3.4848,3.4235,3.3867,3.3776,3.4175,3.4393,3.4596,3.5046,3.5922,3.6989,3.807,3.7999,3.7709,3.8061,3.8626,3.9076,3.9099,3.9757,4.0749,4.2067,4.2819,4.335,4.3641,4.3709,4.3746,4.384,4.4392,4.4773,4.4669,4.521,4.5691,4.5932,4.5748,4.5691,4.5932,4.5748,4.5594,4.5594,4.5594,4.5594,4.5594,4.5825,4.5687,4.5098,4.5978,4.6443,4.6393,4.9027,5.0486,5.0721,5.2343,5.2322,5.0871,5.0837,5.0391,4.9664,4.9547,4.9636,4.984,5.0031,5.0171,5.0283,5.0594,5.0712,5.0663,5.0369,5.0059,4.9721,1.6175,1.5321,1.4622,1.4599,1.5193,1.5443,1.479,1.493,1.5497,1.6555,1.613,1.5723,1.5751,1.6386,1.708,1.7772,2.0979,2.3925,2.6193,2.9136,3.1859,3.4308,3.4687,3.5063,3.5533,3.5812,3.5759,3.5296,3.5577,3.5701,3.5735,3.5701,3.5701,3.5701,3.5667,3.565,3.5633,3.5633,3.5616,3.56,3.5622,3.592,3.6156,3.4252,3.3656,3.3824,3.3653,3.3124,3.226,3.0618,3.0582,3.1292,3.1837,3.2002,3.2715,3.6336,3.7632,3.7673,3.6806,3.773,3.9204,4.0318,4.1813,4.3015,4.2953,4.3021,4.3105,4.315,4.328,4.3603,4.4324,4.4466,4.4703,4.5406,4.5545,4.5565,4.5556,4.5575,4.5913,4.6759,4.6105,4.5932,4.6778,4.6105,4.5594,4.5594,4.5594,4.5594,4.5594,4.6394,4.6657,4.6271,4.7458,4.798,4.7648,4.9731,5.0174,4.899,5.0611,5.074,4.955,4.955,4.9744,5.0056,4.9678,4.9936,5.0624,5.026,5.0336,5.0683,5.0702,5.0712,5.0712,5.0683,5.0664,5.0673,1.6969,1.6451,1.5987,1.5775,1.5921,1.6103,1.6094,1.5947,1.5962,1.6315,1.5585,0.0,0.0,0.0,0.0,0.0,2.0348,2.2794,2.4284,2.7417,2.9841,3.1152,3.2792,3.3864,3.4296,3.4621,3.4685,3.4528,3.4273,3.4404,3.4878,3.4878,3.5131,3.56,3.56,3.56,3.56,3.56,3.5312,3.4878,3.4878,3.4398,3.3693,3.4016,3.2344,2.9868,0.0,3.009,2.9758,2.9314,2.9404,2.9777,3.0178,3.0148,3.0477,3.2982,3.5649,3.7941,3.8742,3.9977,4.1277,4.2133,4.2768,4.3183,4.3115,4.3123,4.3285,4.3825,4.3365,4.3126,4.394,4.4104,4.4173,4.4422,4.5121,4.5594,4.5594,4.5594,4.571,4.599,4.5787,4.5729,4.6009,4.5768,4.5594,4.5594,4.5594,4.5845,4.6432,4.674,4.6973,4.7152,4.8367,4.8964,4.8961,5.0705,5.1525,5.1357,5.1329,5.1087,5.0683,5.0145,5.0123,5.0493,5.0347,5.0442,5.0683,5.0554,5.0584,5.0712,5.0712,5.0712,5.0712,5.0712,5.0712,5.0712,1.7344,1.7027,1.6686,1.6369,1.6394,0.0,0.0,0.0,0.0,0.0,0.0,0.0,0.0,0.0,0.0,0.0,0.0,2.099,2.2383,2.4842,2.6852,2.8171,2.9541,3.0508,3.1055,3.1394,3.1771,3.2174,3.2485,3.2983,3.3732,3.3981,3.437,3.4805,3.4805,3.4805,3.4788,3.4539,3.4455,3.4404,3.3355,3.2682,3.2226,3.1562,2.9364,0.0,2.6382,2.6282,2.6272,2.6598,2.7176,2.7798,2.8312,2.9363,3.0702,3.2166,3.5237,3.8581,4.0438,4.1742,4.2813,4.3903,4.4147,4.4014,4.3615,4.3449,4.353,4.401,4.2994,4.2256,4.3102,4.3254,4.3254,4.3254,4.4366,4.5283,4.541,4.5419,4.5591,4.6,4.5787,4.5845,4.6432,4.622,4.5932,4.5614,4.5893,4.6317,4.6865,4.7759,4.8404,4.8701,4.9773,5.0298,5.021,5.1235,5.1884,5.2126,5.1426,5.1079,5.1067,5.0543,5.0462,5.0712,5.0712,5.0712,5.0712,5.0712,5.0712,5.0712,5.0712,5.0712,5.0712,5.0712,5.0712,5.0712,1.7448,1.7133,1.6772,0.0,0.0,0.0,0.0,0.0,0.0,0.0,0.0,0.0,0.0,0.0,0.0,0.0,0.0,0.0,2.0539,2.1526,2.311,2.5463,2.5236,2.5433,2.6204,2.6613,2.7326,2.8345,3.0074,3.1286,3.2013,3.2718,3.3073,3.3107,3.3107,3.3107,3.3056,3.2388,3.2878,3.3875,3.1052,3.0717,3.1447,2.7215,2.5067,2.4141,2.2641,2.2115,2.2195,2.2846,2.4209,2.5764,2.661,2.9742,3.3193,3.3868,3.6421,3.9521,4.1699,4.2872,4.3857,4.5486,4.5853,4.5536,4.4512,4.4049,4.3793,4.3626,4.2052,4.0884,4.1578,4.1831,4.1944,4.1912,4.3441,4.4732,4.5074,4.5137,4.5568,4.677,4.6163,4.6297,4.7952,4.7413,4.6624,4.5787,4.6547,4.7038,4.7077,4.9433,5.077,5.077,5.1591,5.1798,5.135,5.1331,5.1315,5.1255,5.0877,5.0712,5.0712,5.0712,5.0712,5.0712,5.0712,5.0712,5.0712,5.0712,5.0712,5.0712,5.0712,5.0712,5.0712,5.0712,5.0712,5.0712,0.0,0.0,0.0,0.0,0.0,0.0,0.0,0.0,0.0,0.0,0.0,0.0,0.0,0.0,0.0,0.0,0.0,0.0,1.854,1.9429,2.062,2.2301,2.3835,2.4756,2.4945,2.5499,2.5923,2.6193,2.6658,2.7276,2.8053,2.825,2.8628,2.9137,2.9137,2.9137,2.9157,2.9281,2.9215,2.8968,2.7971,2.7131,2.642,2.5828,2.412,2.217,2.3244,2.2988,2.2278,2.3494,2.593,2.8745,3.0406,3.2243,3.3964,3.4751,3.7171,3.9967,4.1688,4.3273,4.467,4.5587,4.5815,4.5488,4.4269,4.3443,4.2531,4.1046,3.9164,3.7479,3.6546,3.8321,3.9808,3.9471,4.2538,4.5096,4.5429,4.5457,4.583,4.6788,4.6701,4.6971,4.8009,4.7913,4.7702,4.749,4.8279,4.9048,4.9702,5.0914,5.1587,5.1587,5.215,5.2221,5.1743,5.1741,5.1454,5.0851,5.0749,5.0712,5.0712,5.0712,5.0712,5.0712,5.0712,5.0712,5.0712,5.0712,5.0712,5.0712,5.0712,5.0712,5.0712,5.0712,5.0712,5.0712,0.0,0.0,0.0,0.0,0.0,0.0,0.0,0.0,0.0,0.0,0.0,0.0,0.0,0.0,0.0,0.0,0.0,0.0,0.0,1.7653,1.8402,1.9186,2.0413,2.116,2.1342,2.1709,2.2255,2.3018,2.3393,2.4196,2.5415,2.5451,2.5755,2.6295,2.6295,2.6295,2.6297,2.6179,2.6266,0.0,0.0,2.4186,2.3964,2.3533,2.234,2.1086,2.2464,2.3775,2.513,2.713,2.9355,3.1515,3.2756,3.4075,3.5357,3.6399,3.8403,4.0562,4.1847,4.3123,4.4197,4.4548,4.4525,4.3921,4.2116,4.1121,3.9963,3.7777,3.5749,3.4105,3.3233,3.5857,3.8053,3.78,4.1749,4.5007,4.5332,4.5678,4.6139,4.6818,4.7212,4.7759,4.8586,4.8663,4.8836,4.9202,4.9336,4.9606,5.0087,5.1625,5.2462,5.2462,5.2552,5.2124,5.1111,5.1296,5.1144,5.0712,5.0712,5.0712,5.0712,5.0712,5.0712,5.0712,5.0712,5.0712,5.0712,5.0712,5.0712,5.0712,5.0712,5.0712,5.0712,5.0712,5.0712,5.0712,0.0,0.0,0.0,0.0,0.0,0.0,0.0,0.0,0.0,1.8149,1.7154,1.6466,1.6356,1.6014,0.0,0.0,0.0,0.0,0.0,0.0,1.6502,1.6577,1.6651,1.6864,1.7206,1.7371,1.8185,1.9685,2.0383,2.1568,2.3145,2.3194,2.3402,2.373,2.373,2.373,2.3712,2.3119,2.3605,2.455,2.1941,2.1732,2.2759,0.0,2.0477,2.0749,2.145,2.4561,2.8744,3.1482,3.3172,3.4229,3.4776,3.5913,3.7292,3.8444,3.9781,4.1087,4.2017,4.2633,4.3085,4.3247,4.3013,4.2085,3.9519,3.8459,3.7187,3.4342,3.2329,3.1029,3.0809,3.3759,3.6379,3.6805,4.1142,4.4694,4.5393,4.6097,4.6746,4.7347,4.8029,4.8836,4.9817,4.9894,5.0221,5.0981,5.0337,4.9894,4.9894,5.2202,5.3433,5.3222,5.2744,5.1761,5.0202,5.0534,5.0712,5.0712,5.0712,5.0712,5.0712,5.0712,5.0712,5.0712,5.0712,5.0712,5.0712,5.0712,5.0712,5.0712,5.0712,5.0712,5.0712,5.0712,5.0712,5.0712,0.0,0.0,0.0,0.0,0.0,0.0,0.0,0.0,0.0,0.0,1.9404,1.7361,0.0,0.0,0.0,0.0,0.0,0.0,0.0,0.0,0.0,1.5934,1.6443,1.6727,1.6788,1.736,1.7799,1.8106,1.8245,1.8622,1.9186,1.9202,1.9417,1.9794,1.9794,1.9794,1.9793,2.001,2.0235,2.0409,1.9626,1.9824,2.0526,1.9855,2.035,0.0,2.2844,2.5532,2.8877,3.1507,3.4409,3.7196,3.8854,3.9656,4.0028,4.0255,4.0552,4.0999,4.1829,4.2133,4.2447,4.3454,4.3652,4.2805,3.9838,3.8559,3.664,3.1887,3.0098,2.9005,2.7677,3.0655,3.4204,3.6869,4.0844,4.4531,4.7213,4.7694,4.8347,4.9856,5.0173,5.0856,5.2395,5.2549,5.2606,5.276,5.2626,5.2549,5.2549,5.426,5.4626,5.3241,5.242,5.1554,5.0604,5.0663,5.0712,5.0712,5.0712,5.0712,5.0712,5.0712,5.0712,5.0712,5.0712,5.0712,5.0712,5.0712,5.0712,5.0712,5.0712,5.0712,5.0712,5.0712,5.0712,5.0712,0.0,0.0,0.0,0.0,0.0,0.0,0.0,2.1454,2.2686,2.5358,2.4001,2.1762,1.9075,1.7273,1.6144,0.0,0.0,0.0,0.0,0.0,0.0,1.5784,1.6069,1.6234,1.6234,1.6548,1.6877,1.7174,0.0,1.733,1.7993,1.7797,1.7939,1.8286,1.8286,1.8286,1.8299,1.8489,1.8581,1.8601,1.9001,1.9361,1.9786,2.0707,2.185,0.0,2.372,2.5866,2.8598,2.9848,3.298,3.6851,3.9704,4.0655,4.0715,4.0732,4.0747,4.0824,4.1219,4.1168,4.1242,4.2258,4.2234,4.1142,3.7991,3.6526,3.44,2.9363,2.7695,2.6888,2.6117,2.906,3.2393,3.481,3.9599,4.3702,4.5639,4.7972,4.976,5.0596,5.1471,5.2318,5.3126,5.3203,5.3203,5.3203,5.3626,5.3683,5.3222,5.4395,5.4491,5.3241,5.2788,5.1972,5.0712,5.0712,5.0712,5.0712,5.0712,5.0712,5.0712,5.0712,5.0712,5.0712,5.0712,5.0712,5.0712,5.0712,5.0712,5.0712,5.0712,5.0712,5.0712,5.0712,5.0712,5.0712,0.0,0.0,0.0,0.0,0.0,0.0,0.0,2.4479,2.5883,2.8793,2.8116,2.6036,2.2516,1.9386,1.7182,0.0,0.0,0.0,0.0,0.0,0.0,0.0,0.0,0.0,1.5799,0.0,0.0,1.6502,1.6368,0.0,0.0,0.0,0.0,0.0,1.78,1.78,1.78,1.78,1.7816,0.0,0.0,1.9541,1.9945,0.0,0.0,0.0,0.0,2.5616,2.7577,2.8119,3.0868,3.4641,3.8091,3.9567,4.0089,4.0327,4.0355,4.0359,4.0584,4.038,4.0329,4.1218,4.1023,3.9723,3.6409,3.4694,3.243,2.7603,2.5952,2.5448,2.5631,2.8221,3.108,3.335,3.8254,4.242,4.4208,4.7741,5.0414,5.1144,5.2395,5.3337,5.3703,5.3741,5.3741,5.3741,5.4376,5.4453,5.378,5.4376,5.428,5.3241,5.3203,5.2395,5.0731,5.0712,5.0712,5.0712,5.0712,5.0712,5.0712,5.0712,5.0712,5.0712,5.0712,5.0712,5.0712,5.0712,5.0712,5.0712,5.0712,5.0712,5.0712,5.0712,5.0712,5.0712,0.0,0.0,0.0,0.0,0.0,0.0,0.0,2.4207,2.6192,3.1274,2.9426,2.7424,2.6765,2.2891,1.95,0.0,0.0,0.0,0.0,0.0,0.0,0.0,0.0,0.0,0.0,0.0,0.0,1.5888,1.6153,0.0,0.0,0.0,0.0,0.0,0.0,1.78,1.78,1.78,0.0,0.0,0.0,0.0,0.0,0.0,0.0,0.0,0.0,2.4478,2.52,2.752,2.92,3.0768,3.3425,3.5926,3.8044,3.8844,3.9065,3.9282,4.025,4.0311,4.0393,4.1621,4.1713,4.0564,3.7034,3.4972,3.243,2.7603,2.5952,2.5613,2.6355,2.7938,3.0519,3.4708,3.7354,4.0606,4.5573,4.7462,4.949,5.2606,5.3106,5.3799,5.5318,5.5472,5.5472,5.5472,5.553,5.5549,5.5472,5.5549,5.4857,5.326,5.3203,5.2395,5.0731,5.0712,5.0712,5.0712,5.0712,5.0712,5.0712,5.0712,5.0712,5.0712,5.0712,5.0712,5.0712,5.0712,5.0712,5.0712,5.0712,5.0712,5.0712,5.0712,5.0712,5.0712,0.0,0.0,0.0,0.0,0.0,0.0,2.5144,2.533,2.6966,3.2266,3.1502,3.0259,2.9715,2.6285,2.2232,1.7792,0.0,0.0,0.0,0.0,0.0,0.0,0.0,0.0,0.0,0.0,1.5979,1.6338,1.672,0.0,0.0,0.0,0.0,0.0,0.0,1.78,1.7811,1.7971,0.0,0.0,0.0,0.0,0.0,0.0,0.0,0.0,0.0,0.0,2.446,2.5486,2.6851,2.8266,2.9128,3.122,3.4072,3.758,3.8928,3.9621,4.1024,4.1215,4.1249,4.222,4.1526,3.9825,3.6952,3.4247,3.1403,2.8026,2.6311,2.5797,2.7071,2.7446,2.8761,3.247,3.4749,3.7122,4.0227,4.4402,4.7844,4.9724,5.1872,5.3857,5.553,5.5703,5.5703,5.5703,5.5703,5.5703,5.5703,5.5703,5.5164,5.401,5.3472,5.2626,5.1433,5.0933,5.0712,5.0712,5.0712,5.0712,5.0712,5.0712,5.0712,5.0712,5.0712,5.0712,5.0712,5.0712,5.0712,5.0712,5.0712,5.0712,5.0712,5.0712,5.0712,5.0712,0.0,0.0,0.0,0.0,0.0,2.2452,2.5863,2.6116,2.7486,3.1867,3.1968,3.1368,3.0633,2.7366,2.3473,1.909,1.7008,0.0,0.0,0.0,0.0,0.0,0.0,0.0,0.0,0.0,1.6383,1.701,1.7379,1.8012,0.0,0.0,1.851,1.8872,0.0,0.0,0.0,0.0,0.0,0.0,0.0,0.0,0.0,0.0,0.0,0.0,0.0,0.0,0.0,0.0,0.0,2.6488,2.6309,2.7867,3.0695,3.5431,3.7743,3.9124,4.0822,4.1451,4.1789,4.2597,4.1339,3.9258,3.6853,3.3752,3.0717,2.8312,2.6715,2.6164,2.7559,2.753,2.8136,3.0632,3.2564,3.4575,3.6971,4.158,4.5428,4.7316,4.9787,5.2183,5.4376,5.5261,5.5703,5.5703,5.5703,5.5703,5.5703,5.5703,5.5318,5.453,5.3895,5.3049,5.1904,5.1337,5.0933,5.0712,5.0712,5.0712,5.0712,5.0712,5.0712,5.0712,5.0712,5.0712,5.0712,5.0712,5.0712,5.0712,5.0712,5.0712,5.0712,5.0712,5.0712,5.0712,0.0,0.0,0.0,0.0,0.0,0.0,2.5206,2.6218,2.752,2.9837,3.0123,2.9844,2.9112,2.5387,2.262,2.1815,1.8419,0.0,0.0,0.0,0.0,0.0,0.0,0.0,0.0,0.0,1.7025,1.7699,1.8037,1.8436,1.8892,1.8491,1.8514,1.8872,0.0,0.0,0.0,0.0,0.0,0.0,0.0,0.0,0.0,0.0,0.0,0.0,0.0,0.0,0.0,0.0,0.0,0.0,0.0,2.6513,2.8519,3.2106,3.4836,3.715,3.9096,4.0583,4.1789,4.2597,4.1339,3.9258,3.6853,3.3752,3.0717,2.8312,2.7145,2.6851,2.764,2.8436,2.9244,3.0081,3.1333,3.3696,3.789,3.9687,4.2143,4.6404,4.6942,4.8269,5.1615,5.4222,5.5703,5.5703,5.5703,5.5703,5.5703,5.5703,5.5318,5.453,5.4491,5.3645,5.1923,5.1885,5.1491,5.0712,5.0712,5.0712,5.0712,5.0712,5.0712,5.0712,5.0712,5.0712,5.0712,5.0712,5.0712,5.0712,5.0712,5.0712,5.0712,5.0712,5.0712,5.0712,0.0,0.0,0.0,0.0,0.0,0.0,0.0,2.3208,2.4214,2.6996,2.716,2.7315,2.8111,2.5228,2.3059,2.2588,1.9394,0.0,0.0,0.0,0.0,0.0,0.0,0.0,0.0,1.704,1.7473,1.9061,1.9185,1.9843,2.0991,2.0382,2.0217,2.0412,1.9142,1.8602,0.0,0.0,0.0,0.0,0.0,0.0,2.3865,0.0,0.0,0.0,0.0,0.0,0.0,0.0,0.0,0.0,0.0,0.0,0.0,2.816,3.153,3.4977,3.6136,3.76,3.8571,3.769,3.6591,3.5385,3.4082,3.1274,2.8716,2.7952,2.7163,2.6686,2.6924,2.72,2.8161,3.0613,3.0914,3.2154,3.5923,3.947,4.2675,4.5419,5.0073,5.3464,5.4519,5.5369,5.5833,5.5833,5.5749,5.5703,5.5703,5.5703,5.5568,5.5318,5.478,5.4241,5.3683,5.25,5.2058,5.2395,5.1241,5.0991,5.151,5.0952,5.0712,5.0712,5.0712,5.0712,5.0712,5.0712,5.0712,5.0712,5.0712,5.0712,5.0712,5.0712,5.0712,5.0712,0.0,0.0,0.0,0.0,0.0,0.0,0.0,2.1746,2.2459,2.434,2.4531,2.4979,2.6203,2.3822,2.2274,2.2682,2.0254,0.0,0.0,0.0,0.0,0.0,0.0,0.0,1.8057,1.7413,1.8311,2.0831,2.0831,2.1642,2.3159,2.2694,2.2167,2.1566,2.0602,1.992,0.0,0.0,0.0,0.0,0.0,0.0,2.3511,0.0,0.0,0.0,0.0,0.0,0.0,0.0,0.0,0.0,0.0,0.0,0.0,0.0,2.8484,3.1531,3.3555,3.555,3.6813,3.5752,3.4651,3.3513,3.2394,2.9898,2.7714,2.7402,2.6704,2.6245,2.6528,2.6602,2.7365,2.9671,2.9955,3.1366,3.5589,3.8953,4.2188,4.553,5.0974,5.451,5.4562,5.5454,5.5981,5.5904,5.5825,5.5759,5.5695,5.5415,5.5241,5.5241,5.5049,5.4645,5.401,5.326,5.2991,5.3183,5.1818,5.1414,5.1865,5.1068,5.0712,5.0712,5.0712,5.0712,0.0,5.0712,5.0712,5.0712,5.0712,5.0712,5.0712,5.0712,5.0712,5.0712,0.0,0.0,0.0,0.0,0.0,0.0,0.0,2.1518,2.1968,2.1968,2.2345,2.2883,2.3588,2.1516,2.0699,2.2182,0.0,0.0,0.0,0.0,0.0,0.0,0.0,0.0,1.8672,1.8042,1.9313,2.2628,2.2718,2.358,2.5103,2.5274,2.4294,2.2459,2.2451,2.1667,0.0,0.0,0.0,0.0,2.2806,2.3159,0.0,0.0,0.0,0.0,0.0,0.0,0.0,0.0,0.0,0.0,0.0,0.0,0.0,0.0,0.0,0.0,0.0,3.3848,3.5632,3.5522,3.4367,3.2863,3.1384,2.9285,0.0,2.6667,2.5925,2.5668,2.6539,2.6638,2.6943,2.8004,2.9005,3.1509,3.6775,3.8756,4.1577,4.6738,5.0227,5.2259,5.2378,5.4655,5.6049,5.5839,5.5865,5.5822,5.5628,5.4914,5.4434,5.4318,5.5107,5.4799,5.3318,5.403,5.4068,5.3376,5.2442,5.1981,5.1962,5.1144,5.075,5.0712,5.0712,5.0712,5.0712,5.0712,5.0712,5.0712,5.0712,5.0712,5.0712,5.0712,5.0712,5.0712,0.0,0.0,0.0,0.0,0.0,0.0,0.0,0.0,0.0,0.0,2.1391,2.1716,2.1334,2.1078,2.1069,0.0,0.0,0.0,0.0,0.0,0.0,0.0,0.0,0.0,1.8672,1.8042,1.9089,2.1934,2.2906,2.4037,2.5299,2.6846,2.6308,2.4065,2.4004,2.2539,0.0,0.0,0.0,0.0,2.22,2.263,0.0,0.0,0.0,0.0,2.3996,2.4123,0.0,0.0,0.0,0.0,0.0,0.0,0.0,0.0,2.5044,2.5888,2.6843,0.0,2.9117,2.7894,2.7749,2.7882,0.0,2.6814,2.5907,2.5723,2.5521,2.5833,2.7255,2.7016,2.7753,3.1202,3.2017,3.3946,3.8898,4.3929,4.7774,4.962,5.1857,5.3008,5.2388,5.4157,5.5303,5.5149,5.5613,5.5571,5.482,5.4607,5.3895,5.2538,5.3337,5.3914,5.4184,5.3741,5.4049,5.5088,5.3606,5.2895,5.2876,5.201,5.1279,5.0712,5.0712,5.0712,5.0712,5.0712,5.0712,5.0712,5.0712,5.0712,5.0712,5.0712,5.0712,5.0712,0.0,0.0,0.0,0.0,0.0,0.0,0.0,0.0,0.0,0.0,0.0,0.0,0.0,0.0,0.0,0.0,0.0,0.0,0.0,0.0,0.0,0.0,0.0,1.6891,1.8207,1.7893,1.9447,2.302,2.3415,2.4669,2.6748,2.7794,2.6989,2.4615,2.384,2.2581,0.0,0.0,0.0,2.1735,2.2127,0.0,0.0,0.0,0.0,0.0,2.3847,2.4074,0.0,2.5474,2.5897,2.5933,0.0,0.0,0.0,0.0,2.4511,2.4812,2.4655,2.6308,2.7863,2.6995,2.7105,2.7387,2.7185,2.6237,2.5301,2.4934,2.4842,2.5227,2.6476,2.7744,2.9355,3.1579,3.4434,3.7827,4.206,4.6603,4.9853,5.0777,5.2135,5.3009,5.3083,5.3994,5.4677,5.4874,5.5249,5.5176,5.4531,5.4126,5.3299,5.1942,5.201,5.2645,5.3895,5.3837,5.4434,5.5684,5.4414,5.3799,5.376,5.2481,5.1654,5.1221,5.0856,5.0712,5.0712,5.0712,5.0712,5.0712,5.0712,5.0712,5.0712,5.0712,5.0712,5.0712,0.0,0.0,0.0,0.0,0.0,0.0,0.0,0.0,0.0,0.0,0.0,0.0,0.0,0.0,0.0,0.0,0.0,0.0,0.0,0.0,0.0,0.0,1.6559,1.6593,1.7983,1.7908,1.9971,2.4306,2.4148,2.5447,2.8126,2.8798,2.7699,2.5087,2.3385,2.2513,2.2296,2.2296,2.2296,2.2296,2.2296,0.0,0.0,0.0,0.0,0.0,0.0,0.0,0.0,2.6536,2.694,2.6614,2.7097,0.0,0.0,0.0,0.0,0.0,2.4301,2.6786,2.9177,2.8391,2.8471,2.8482,2.7482,2.6384,2.5356,2.4548,2.4483,2.5064,2.6671,2.9248,3.1393,3.2192,3.7244,4.229,4.5771,4.8353,5.0182,5.0996,5.1706,5.2464,5.3317,5.3633,5.4045,5.4665,5.4702,5.4588,5.433,5.3491,5.2606,5.1731,5.1048,5.1433,5.2991,5.3876,5.4761,5.5684,5.5011,5.4626,5.4453,5.2837,5.2019,5.1865,5.1048,5.0712,5.0712,5.0712,5.0712,5.0712,5.0712,5.0712,5.0712,5.0712,5.0712,5.0683,0.0,0.0,0.0,0.0,0.0,0.0,0.0,0.0,0.0,0.0,0.0,0.0,0.0,0.0,0.0,0.0,0.0,0.0,0.0,0.0,0.0,1.9123,1.747,1.7459,1.9346,1.8837,2.0004,2.3002,2.5114,2.6381,2.6952,3.0867,3.0784,2.7229,2.5103,2.346,2.2296,2.2296,2.2296,2.2296,2.2296,0.0,0.0,0.0,0.0,0.0,0.0,0.0,0.0,2.4444,2.5385,2.6014,2.5055,0.0,0.0,0.0,0.0,0.0,2.6625,2.9067,2.9978,2.5601,2.6052,2.7077,2.5167,2.5621,2.619,2.5374,2.575,2.7825,3.3071,3.2783,3.3505,3.8802,4.2725,4.6309,4.9746,5.1269,5.1799,5.1161,5.1264,5.1177,5.0653,5.2007,5.3147,5.3745,5.3793,5.3676,5.3406,5.2558,5.1741,5.0914,5.077,5.1144,5.2096,5.2972,5.4164,5.5703,5.5568,5.5164,5.4472,5.3453,5.2596,5.1865,5.1048,5.0712,5.0712,5.0712,5.0712,5.0712,5.0712,5.0712,5.0712,5.0712,5.0712,5.0653,0.0,0.0,0.0,0.0,0.0,0.0,0.0,0.0,0.0,0.0,0.0,0.0,0.0,0.0,0.0,0.0,0.0,0.0,0.0,0.0,0.0,2.041,1.9078,1.8909,2.0213,2.0288,2.1964,2.5353,2.6551,2.769,2.8723,2.9184,2.8232,2.6027,2.4149,2.2936,2.2296,2.2296,2.2296,2.2296,0.0,0.0,0.0,0.0,0.0,0.0,0.0,0.0,0.0,0.0,2.5898,2.6614,2.5758,0.0,0.0,0.0,0.0,0.0,2.5548,2.7633,2.8994,2.7045,2.9387,3.195,3.1172,3.1244,3.0976,2.9266,2.9706,3.1182,3.3829,3.5188,3.8138,4.4997,4.6441,4.7591,5.0147,5.0413,5.0371,5.0495,5.0525,5.0614,5.0732,5.1503,5.2275,5.2956,5.2932,5.2802,5.2629,5.2156,5.1529,5.0731,5.0712,5.1087,5.1885,5.2288,5.3356,5.5049,5.5491,5.5511,5.5126,5.428,5.3433,5.2558,5.1722,5.1106,5.0712,5.0712,5.0712,5.0712,5.0712,5.0712,5.0712,5.0712,5.0554,5.0325,0.0,0.0,0.0,0.0,0.0,0.0,0.0,0.0,0.0,0.0,0.0,0.0,0.0,0.0,0.0,0.0,0.0,0.0,0.0,0.0,1.9893,2.1027,2.0485,2.0692,2.1809,2.2203,2.4163,2.7839,2.8304,2.9345,3.0893,2.7992,2.605,2.4882,2.3455,2.2617,2.2296,2.2296,2.2296,2.2296,0.0,0.0,0.0,0.0,0.0,0.0,0.0,0.0,0.0,0.0,0.0,0.0,0.0,0.0,0.0,2.5271,2.463,2.4593,2.5162,2.6814,2.8594,2.9592,3.2247,3.4921,3.6211,3.5752,3.4742,3.3684,3.4319,3.5126,3.5382,3.8553,4.3035,4.885,4.8911,4.8877,5.0674,5.0098,4.9772,5.0539,5.0445,5.0613,5.1328,5.1406,5.1714,5.2447,5.2204,5.2036,5.2097,5.1797,5.1347,5.0777,5.0758,5.1038,5.1674,5.1847,5.282,5.4511,5.5126,5.5511,5.5665,5.4664,5.3837,5.3145,5.2087,5.1279,5.0712,5.0712,5.0712,5.0712,5.0712,5.0712,5.0683,5.0585,5.0358,5.0031,0.0,0.0,0.0,0.0,0.0,0.0,0.0,0.0,0.0,0.0,0.0,0.0,0.0,0.0,0.0,0.0,0.0,0.0,0.0,0.0,2.0717,2.0376,2.1118,2.2712,2.5196,2.4679,2.5741,2.8532,3.033,3.157,3.2213,2.9925,2.7742,2.5671,2.4743,2.3579,2.2296,2.2296,2.2296,2.2296,2.2296,0.0,0.0,0.0,0.0,0.0,0.0,0.0,0.0,0.0,0.0,0.0,0.0,0.0,2.6256,2.6391,2.5897,2.5797,2.8051,2.9335,3.0411,3.194,3.0913,3.0604,3.4748,3.4487,3.4287,3.7456,3.8788,3.9903,4.1685,4.4492,4.7,4.8409,4.9965,5.1632,5.3456,5.2949,5.2421,5.25,5.1796,5.1328,5.1387,5.1406,5.1714,5.2447,5.1682,5.1453,5.2078,5.1266,5.0815,5.0879,5.0886,5.0905,5.0963,5.1718,5.2908,5.4491,5.4549,5.4972,5.5645,5.403,5.326,5.3106,5.1491,5.075,5.0712,5.0712,5.0712,5.0712,5.0712,5.0712,5.0644,5.0272,5.0116,4.9987,0.0,0.0,0.0,0.0,0.0,0.0,0.0,0.0,0.0,0.0,0.0,0.0,0.0,0.0,0.0,0.0,0.0,0.0,0.0,2.0147,2.0814,2.1927,2.1801,2.2727,2.4933,2.6353,2.8592,3.1644,3.1988,3.182,3.1167,2.8397,2.6443,2.5185,2.3765,2.3071,2.2953,2.2482,2.2564,2.2936,2.2482,2.2296,0.0,0.0,0.0,0.0,0.0,0.0,0.0,0.0,2.3606,2.402,2.4193,2.4753,2.5278,2.49,2.473,2.486,2.5768,2.8212,3.072,3.1624,3.2108,3.3515,3.7954,3.9693,4.0655,4.1679,4.2709,4.3165,4.2402,4.5395,4.7937,4.7827,4.9801,5.1598,5.2285,5.2109,5.1894,5.1894,5.1601,5.1406,5.1406,5.1406,5.1523,5.1789,5.1416,5.1277,5.1529,5.1163,5.0966,5.1027,5.1014,5.0985,5.0908,5.1199,5.1863,5.2895,5.3972,5.4664,5.4934,5.4299,5.3414,5.2365,5.1722,5.1164,5.0712,5.0712,5.0712,5.0712,5.0712,5.0544,5.0313,5.0159,4.9787,4.9307,0.0,0.0,0.0,0.0,0.0,0.0,0.0,0.0,0.0,0.0,0.0,0.0,0.0,0.0,0.0,0.0,0.0,0.0,1.9847,2.0082,2.0879,2.2313,2.2058,2.2631,2.4246,2.6916,2.9579,3.2258,3.2228,3.1357,2.9731,2.7595,2.6347,2.584,2.4115,2.3748,2.4357,2.3156,2.2801,2.3004,2.2499,2.2296,0.0,0.0,0.0,0.0,0.0,0.0,0.0,0.0,2.3154,2.3507,2.3731,2.423,2.4698,2.4511,2.523,2.6098,2.6098,2.8518,3.132,3.2432,3.3832,3.6136,4.0875,4.2568,4.3634,4.5291,4.562,4.5181,4.3866,4.607,4.8059,4.7847,4.9838,5.1406,5.1406,5.1406,5.1406,5.1406,5.1406,5.1406,5.1406,5.1406,5.1386,5.1343,5.1244,5.1194,5.1167,5.112,5.1089,5.1089,5.1089,5.1045,5.0889,5.0908,5.1244,5.1904,5.3106,5.3818,5.4087,5.3799,5.3029,5.1885,5.1615,5.1202,5.0712,5.0712,5.0712,5.0683,5.0554,5.0347,5.0068,4.9813,4.9367,4.888,0.0,0.0,0.0,0.0,0.0,0.0,0.0,0.0,0.0,0.0,0.0,0.0,0.0,0.0,0.0,0.0,0.0,0.0,2.0486,2.0809,2.1023,2.1023,2.1827,2.2679,2.3556,2.6192,2.8229,2.9592,3.0866,3.0337,2.817,2.811,2.8067,2.8017,2.6352,2.6015,2.6522,2.4323,2.2987,2.2313,2.2313,2.2296,2.2296,0.0,0.0,0.0,0.0,0.0,0.0,0.0,2.2902,2.2618,2.4493,2.4747,2.4615,2.5745,2.802,3.0155,3.0136,3.0967,3.2441,3.4955,3.5835,3.7497,4.2804,4.1871,4.1683,4.8078,4.7384,4.5921,4.6912,4.7217,4.7637,4.8552,5.0228,5.1406,5.1406,5.1406,5.1406,5.1406,5.1406,5.1406,5.1406,5.1406,5.1344,5.1206,5.1201,5.1171,5.1099,5.1094,5.1094,5.1094,5.1094,5.1045,5.0889,5.0908,5.1225,5.1885,5.1885,5.2327,5.3164,5.2288,5.1904,5.1846,5.1048,5.0712,5.0712,5.0702,5.0683,5.0663,5.0249,5.0092,4.9987,4.9202,4.8897,4.8847,0.0,0.0,0.0,0.0,0.0,0.0,0.0,0.0,0.0,0.0,0.0,0.0,0.0,0.0,0.0,0.0,0.0,0.0,2.0179,2.0947,2.1414,2.1414,2.1533,2.1491,2.1268,2.3169,2.5713,2.8891,2.9554,2.8879,2.6925,2.7146,2.6974,2.648,2.6402,2.5913,2.5083,2.3915,2.3274,2.3071,2.3071,2.2767,2.2347,0.0,0.0,0.0,0.0,0.0,0.0,0.0,0.0,0.0,2.2957,2.371,2.4353,2.413,2.5378,2.6696,2.6135,3.0343,3.4743,3.4084,3.8645,4.3732,4.5383,4.5104,4.5258,4.7943,4.7513,4.6568,4.6242,4.7838,4.9084,4.8753,5.0228,5.1366,5.127,5.1343,5.1366,5.127,5.1344,5.1366,5.1268,5.1265,5.1223,5.1137,5.1174,5.1194,5.1171,5.1254,5.1277,5.1171,5.1167,5.1083,5.0889,5.0908,5.0963,5.1048,5.1048,5.1491,5.2269,5.2019,5.1587,5.1029,5.0808,5.0712,5.0673,5.038,5.0272,5.0249,4.9846,4.9504,4.9234,4.8978,4.8709,4.8477,0.0,0.0,0.0,0.0,0.0,0.0,0.0,0.0,2.2296,2.2296,2.2296,2.2296,0.0,0.0,0.0,2.066,2.0687,2.0687,2.0629,2.123,2.1597,2.1597,2.1488,2.1327,2.11,2.2587,2.4193,2.5854,2.7067,2.6902,2.5545,2.7385,2.8124,2.7992,2.8928,2.8383,2.664,2.527,2.4188,2.3441,2.3729,2.3393,2.2818,0.0,0.0,0.0,0.0,0.0,0.0,0.0,0.0,0.0,2.1854,2.2319,2.3099,2.4312,2.6081,2.7988,2.9699,3.4006,3.8174,3.8766,4.2271,4.586,4.6954,4.7212,4.7307,4.7632,4.7397,4.7215,4.7432,4.8851,4.9948,4.979,5.0636,5.1295,5.1208,5.1252,5.1245,5.1161,5.1235,5.1245,5.1161,5.1154,5.1113,5.1039,5.1136,5.1191,5.1158,5.1261,5.1265,5.1158,5.1117,5.0992,5.083,5.0822,5.0773,5.0712,5.0712,5.0952,5.1414,5.1414,5.1164,5.0712,5.0712,5.0712,5.0673,5.026,5.0092,5.0043,4.9489,4.9108,4.888,4.8709,4.8513,4.8306,0.0,0.0,0.0,0.0,0.0,0.0,0.0,2.2296,2.2296,2.2296,2.2296,2.2296,0.0,0.0,0.0,2.1567,2.0878,2.0749,2.1552,2.1643,2.1658,2.1658,2.1694,2.1924,2.2378,2.3479,2.3277,2.1684,2.403,2.478,2.4124,2.8252,3.0479,3.1055,3.2476,3.1884,2.9651,2.7402,2.5217,2.3359,2.4132,2.3996,2.3376,2.4051,0.0,0.0,0.0,0.0,0.0,0.0,0.0,0.0,2.119,2.0937,2.1406,2.5321,2.8539,3.1934,3.7054,3.9658,4.1917,4.6111,4.5889,4.5285,4.7644,4.8262,4.8134,4.7372,4.728,4.7883,4.9677,5.0061,5.0409,5.1269,5.1294,5.1201,5.1194,5.1141,5.1108,5.1074,5.1084,5.1108,5.1074,5.1074,5.1033,5.0894,5.1054,5.1147,5.1098,5.1147,5.1154,5.1079,5.0959,5.0827,5.0693,5.0712,5.0712,5.0712,5.0712,5.0712,5.0712,5.0712,5.0712,5.0712,5.0663,5.0653,5.0614,5.0171,4.9987,4.9905,4.9155,4.8864,4.8813,4.8439,4.8306,4.8306,0.0,0.0,0.0,0.0,0.0,0.0,2.2296,2.2296,2.2296,2.2296,2.2296,2.2296,2.2296,2.1794,0.0,2.1582,2.143,2.1414,2.1582,2.1943,2.2149,2.2149,2.234,2.2622,2.3,2.1904,2.1406,2.154,2.3337,2.3919,2.3481,2.7422,2.9355,2.9517,3.0412,2.955,2.73,2.5343,2.3739,2.2612,2.3624,2.3431,2.255,2.2702,2.2209,0.0,0.0,0.0,0.0,0.0,0.0,0.0,2.119,2.1455,2.1934,2.2857,2.6116,2.989,3.2043,3.7151,4.2208,4.35,4.565,4.7417,4.7305,4.7976,4.8534,4.8258,4.8296,4.8713,4.9801,5.0592,5.1151,5.1367,5.1294,5.1183,5.1124,5.1108,5.1053,5.0966,5.1045,5.1067,5.094,5.0945,5.0894,5.0748,5.0882,5.0953,5.0933,5.1063,5.1074,5.0952,5.0911,5.0827,5.0693,5.0712,5.0712,5.0712,5.0712,5.0712,5.0712,5.0712,5.0712,5.0673,5.0358,5.0237,5.0171,4.9441,4.9155,4.9108,4.8622,4.8421,4.8421,4.8326,4.8306,4.8306,0.0,0.0,0.0,0.0,0.0,0.0,0.0,0.0,2.2296,2.2296,2.2296,2.2209,2.1988,2.1749,0.0,0.0,2.1597,2.1688,2.1913,2.2149,2.2296,2.2296,2.278,2.2857,2.2443,2.1504,2.1086,2.1266,2.1935,2.26,2.3291,2.6782,2.8619,2.9044,3.0142,2.9161,2.6606,2.527,2.3977,2.2914,2.4001,2.3874,2.3069,2.3171,2.2531,2.152,2.1145,0.0,0.0,0.0,0.0,0.0,0.0,0.0,2.0834,2.2887,2.5204,2.8261,3.3657,3.8302,4.2218,4.4729,4.6841,4.7972,4.6762,4.6972,4.7687,4.8526,4.9077,4.9677,5.0516,5.1024,5.1321,5.1386,5.121,5.106,5.1094,5.0991,5.0886,5.0814,5.0875,5.0879,5.0805,5.0797,5.0784,5.0721,5.0811,5.0908,5.0908,5.0979,5.0966,5.0889,5.0835,5.0764,5.0693,5.0712,5.0712,5.0712,5.0712,5.0604,5.041,5.041,5.041,5.0399,4.9987,4.9813,4.9773,4.9155,4.8897,4.8863,4.8458,4.8306,4.8306,4.8306,4.8306,4.8306,0.0,0.0,0.0,0.0,0.0,0.0,0.0,0.0,0.0,2.2296,2.2223,2.2032,2.1643,2.1597,2.1597,0.0,0.0,0.0,2.2265,2.2296,2.2347,2.2482,2.3071,2.2925,2.1932,2.1592,2.1314,2.1102,2.058,2.1428,2.3575,2.6315,2.8044,2.884,2.9939,2.889,2.6268,2.53,2.4111,2.2966,2.3912,2.3927,2.3367,2.341,2.2676,2.1523,2.0859,2.0601,2.0742,2.1699,0.0,0.0,0.0,0.0,1.9563,2.3125,2.4599,2.6914,3.5331,3.9231,4.207,4.6897,4.8102,4.7721,4.6246,4.6147,4.6794,4.8337,4.9334,5.0233,5.119,5.1263,5.1223,5.1339,5.1102,5.0945,5.1061,5.084,5.0712,5.0712,5.0712,5.0712,5.0712,5.0731,5.073,5.073,5.0867,5.0925,5.0889,5.0908,5.0894,5.0875,5.0757,5.0712,5.0712,5.0712,5.0712,5.0712,5.0712,5.0483,5.0092,5.0031,5.0006,4.9974,4.9561,4.9401,4.9371,4.8963,4.8796,4.8761,4.8439,4.8306,4.8306,4.8306,4.8306,4.8306,0.0,0.0,0.0,0.0,0.0,0.0,0.0,0.0,0.0,0.0,2.1959,2.1673,2.1613,2.1597,2.1597,2.1597,2.1957,2.2223,2.2296,0.0,0.0,2.3224,2.3342,2.3327,2.3167,2.1568,2.0986,2.1521,2.0245,2.1378,2.4775,2.6185,2.7249,2.7942,2.7503,2.6369,2.4675,2.288,2.1621,2.0837,2.1271,2.1348,2.1145,2.052,2.0181,1.9997,1.9881,1.9845,2.0075,2.1505,2.145,0.0,0.0,0.0,2.0101,2.0661,2.2982,2.585,2.8237,3.456,4.1701,4.6828,4.7724,4.7097,4.6128,4.6672,4.7438,4.7574,4.8285,4.9378,5.0941,5.1151,5.1122,5.1139,5.1016,5.0916,5.0925,5.0808,5.0712,5.0712,5.0712,5.0712,5.0712,5.0816,5.0871,5.0871,5.0997,5.1027,5.0916,5.0908,5.0851,5.073,5.0712,5.0712,5.0712,5.0712,5.0712,5.0712,5.0712,5.0483,5.008,4.9746,4.9575,4.9547,4.9155,4.8996,4.8947,4.855,4.8383,4.8383,4.8325,4.8306,4.8306,4.8306,4.8306,4.8306,0.0,0.0,0.0,0.0,0.0,0.0,0.0,0.0,0.0,0.0,0.0,2.1899,2.1643,2.1823,2.1899,2.1612,2.1647,2.1498,2.1045,2.1431,2.182,2.2155,2.2172,2.2172,2.2172,2.0521,2.0227,2.1368,1.9893,2.1278,2.5346,2.5426,2.6302,2.7756,2.6607,2.549,2.4371,2.2252,2.1161,2.0844,2.0879,2.2236,2.3922,2.1179,2.1575,2.3216,2.0463,1.9469,1.965,2.0769,2.0634,2.0083,2.0535,0.0,0.0,0.0,2.0116,2.2703,2.9097,3.6171,4.2648,4.6482,4.7627,4.7466,4.6158,4.6263,4.6774,4.721,4.754,4.8287,5.0096,5.034,5.0439,5.1001,5.0925,5.0814,5.0894,5.0782,5.0712,5.0712,5.0712,5.0721,5.0797,5.0875,5.0908,5.0908,5.1014,5.1031,5.0916,5.0908,5.0871,5.0814,5.074,5.0712,5.0712,5.0712,5.0712,5.0712,5.0472,5.0159,4.9746,4.9356,4.9155,4.9139,4.8745,4.8568,4.855,4.8383,4.8306,4.8306,4.8306,4.8306,4.8306,4.8306,4.8306,4.8306,0.0,0.0,0.0,0.0,0.0,0.0,0.0,0.0,0.0,0.0,0.0,2.1988,2.1643,0.0,0.0,0.0,2.1345,2.0856,2.0052,2.0568,2.0987,2.119,2.1004,2.0903,2.0903,1.9582,1.9464,2.0615,1.9655,2.138,2.5592,2.522,2.6251,2.8314,2.664,2.5253,2.4085,2.2053,2.123,2.131,2.1691,2.3684,2.6188,2.4069,2.5152,2.7218,2.2528,2.0858,2.0829,2.0649,2.0175,1.9748,2.0177,1.9472,0.0,0.0,0.0,1.9578,2.9153,3.506,3.9658,4.4372,4.6097,4.6537,4.6177,4.6,4.6089,4.6703,4.6756,4.7178,4.8771,4.9336,4.988,5.0843,5.0819,5.074,5.0847,5.0766,5.0712,5.0712,5.073,5.0773,5.0844,5.0903,5.0939,5.0896,5.1014,5.1031,5.0916,5.0908,5.0886,5.0851,5.0748,5.0712,5.0712,5.0712,5.0653,5.0544,5.0249,4.9827,4.9341,4.9027,4.8846,4.8727,4.8439,4.8306,4.8306,4.8306,4.8306,4.8306,4.8306,4.8306,4.8287,4.8132,4.8075,4.8055,0.0,0.0,0.0,0.0,0.0,0.0,0.0,0.0,0.0,0.0,0.0,2.1628,2.1597,2.1612,2.1628,2.1597,2.1345,2.0856,2.0052,2.0035,2.0403,2.1156,2.0467,0.0,2.0052,1.9299,1.8939,1.9012,1.9642,2.189,2.5609,2.6285,2.7807,2.9888,2.7638,2.5472,2.3359,2.1833,2.1314,2.1658,2.3614,2.468,2.5524,2.9368,3.0974,3.0625,2.6531,2.5081,2.4632,2.175,2.0759,2.0602,1.9951,1.9675,1.9294,0.0,0.0,0.0,2.4464,2.6631,2.929,3.936,4.1966,4.2909,4.6195,4.6402,4.5886,4.5886,4.5867,4.6116,4.6906,4.8345,4.9692,5.0577,5.0702,5.0693,5.0712,5.0702,5.0712,5.0712,5.0814,5.0844,5.0712,5.0945,5.1045,5.0903,5.1014,5.1031,5.0916,5.0908,5.0844,5.0721,5.0693,5.0712,5.0712,5.0712,5.0504,5.0135,5.0104,4.9687,4.893,4.8913,4.8692,4.8344,4.8306,4.8306,4.8306,4.8306,4.8306,4.8306,4.8306,4.8306,4.823,4.7674,4.7467,4.7363,0.0,0.0,0.0,0.0,0.0,0.0,0.0,0.0,0.0,0.0,0.0,0.0,0.0,2.2046,2.1862,2.1376,2.0351,1.9401,1.8645,1.9034,1.9418,1.9718,1.9452,1.9299,1.9299,1.8572,1.8437,1.8894,1.8679,2.0504,2.4188,2.3968,2.5084,2.7199,2.6843,2.5998,2.4661,2.224,2.124,2.1533,2.4224,2.6939,2.9458,3.0313,3.2577,3.4743,3.0375,2.7672,2.6051,2.5289,2.3156,2.0679,1.9982,1.9038,1.7829,1.6082,1.6043,1.764,2.2346,2.5156,2.8218,3.4249,3.8722,4.1802,4.2481,4.467,4.6368,4.5785,4.5673,4.5918,4.6749,4.7817,4.8856,4.9721,5.0346,5.0712,5.0712,5.0712,5.0712,5.0712,5.0749,5.0791,5.0811,5.0911,5.094,5.0896,5.1014,5.1031,5.0916,5.0908,5.0879,5.0819,5.073,5.0584,5.0325,5.0306,5.0104,4.9719,4.946,4.9187,4.8897,4.8621,4.8439,4.8306,4.8306,4.8306,4.8306,4.8306,4.8306,4.8306,4.8306,4.8306,4.823,4.7614,4.7099,4.6603,0.0,0.0,0.0,0.0,0.0,0.0,0.0,0.0,2.1779,2.2237,0.0,0.0,0.0,0.0,2.189,2.0889,1.9858,1.8848,1.7867,1.8268,1.864,1.8888,1.8657,1.864,1.8894,1.8172,1.7929,1.8161,1.8166,1.957,2.2245,2.2533,2.3731,2.5592,2.5592,2.5592,2.5439,2.2984,2.1935,2.2303,2.6458,2.8953,3.0467,3.3209,3.5257,3.6319,3.3701,3.139,2.9654,2.9934,2.8062,2.5173,2.2486,1.9295,1.6304,1.5109,1.5674,1.7187,1.9463,2.206,2.5263,2.9956,3.3775,3.7288,4.0691,4.3174,4.5009,4.5855,4.6028,4.6124,4.6413,4.7144,4.8067,4.9202,4.9894,5.0366,5.0654,5.0712,5.0712,5.0712,5.074,5.0782,5.0839,5.0871,5.0879,5.0827,5.0911,5.0925,5.0835,5.0827,5.0827,5.0827,5.0758,5.0504,5.0092,5.0092,4.9827,4.9295,4.9027,4.883,4.8692,4.8421,4.8306,4.8287,4.8075,4.8094,4.8287,4.8075,4.7851,4.7614,4.7397,4.7134,4.6858,4.6251,4.5713,4.5218,0.0,0.0,0.0,0.0,0.0,0.0,0.0,0.0,2.1779,2.2237,0.0,0.0,0.0,0.0,0.0,2.0187,2.0018,1.9376,1.7918,1.7817,1.8115,1.8843,0.0,0.0,1.8843,1.8166,1.7456,1.6733,1.8178,1.9249,2.0018,2.2226,2.4052,2.5406,2.3968,2.4137,2.5356,2.3917,2.3342,2.3949,3.0308,3.0553,2.8259,3.8389,3.935,3.5492,3.6646,3.6487,3.5691,3.5496,3.5232,3.3822,2.7199,2.0485,1.5034,1.4923,1.5395,1.5906,0.0,0.0,0.0,2.6439,2.7077,2.9125,4.0816,4.1833,4.1527,4.5836,4.6731,4.6528,4.5787,4.6308,4.7414,4.9038,4.9336,4.9663,5.0539,5.0654,5.0673,5.0712,5.0814,5.0844,5.0712,5.0822,5.0835,5.0712,5.0712,5.0712,5.0712,5.0712,5.0712,5.0712,5.0712,5.0493,5.008,5.008,4.9673,4.888,4.888,4.8675,4.8306,4.8287,4.8267,4.823,4.7617,4.7679,4.8174,4.7578,4.6916,4.6191,4.5517,4.4835,4.4129,4.3515,4.3273,4.3158,0.0,0.0,0.0,0.0,0.0,2.1913,2.2254,2.1899,2.1779,0.0,0.0,0.0,2.2304,2.2296,2.2127,2.1705,2.064,1.9608,1.8657,1.8099,1.7884,1.8099,1.7901,1.7901,1.8099,1.7901,1.7698,1.7507,1.7901,1.8488,1.9215,1.9841,2.097,2.2409,2.1986,2.2037,2.2358,2.135,2.189,2.375,2.7865,3.0885,3.3454,3.8613,4.1704,4.3319,4.3308,4.1261,3.8801,4.0382,3.5917,2.8657,2.2642,1.8608,1.5936,1.519,1.5959,1.6891,1.6185,0.0,0.0,0.0,0.0,0.0,3.0156,3.3502,3.703,4.1385,4.2777,4.3885,4.6124,4.6493,4.6619,4.7078,4.7894,4.8759,4.9644,4.976,4.999,5.0635,5.073,5.0749,5.0693,5.073,5.0749,5.0693,5.0712,5.0712,5.0712,5.0712,5.0712,5.0712,5.0712,5.0358,4.9678,4.9678,4.9265,4.8477,4.8477,4.842,4.8287,4.7856,4.7635,4.7578,4.639,4.5967,4.6118,4.5945,4.5753,4.5521,4.4796,4.4374,4.4129,4.3515,4.2944,4.2421,0.0,0.0,2.1023,2.1617,2.232,2.2904,2.3177,2.2845,2.2723,0.0,0.0,0.0,2.2724,2.3308,2.331,2.2381,2.1197,2.0044,1.8961,1.8217,1.78,1.78,1.8087,1.8268,1.8268,1.8268,1.7963,1.7337,1.7659,1.7546,1.7101,1.8318,1.9058,1.9341,1.965,1.9955,2.0141,1.8835,1.9967,2.3141,2.8858,3.1856,3.3586,3.9795,4.2504,4.3226,4.5338,4.387,4.1508,4.5064,3.9415,3.0235,2.645,2.189,1.7707,1.6339,1.7378,1.8705,1.7515,1.8356,1.9652,1.9957,0.0,0.0,2.9588,3.2553,3.6008,4.2808,4.4624,4.5416,4.6876,4.695,4.6748,4.6605,4.7174,4.7879,4.8553,4.8651,4.9017,5.0038,5.0164,5.0308,5.0654,5.0712,5.0712,5.0712,5.0712,5.0712,5.0712,5.0712,5.0712,5.0712,5.0544,5.0147,4.9522,4.9341,4.893,4.8287,4.8055,4.7917,4.7897,4.7281,4.682,4.6458,4.5387,4.4735,4.4419,4.3818,4.3768,4.3945,4.3231,4.2747,4.2445,4.2095,4.1707,4.1256,0.0,0.0,2.1859,2.2698,2.3823,2.4677,2.4846,2.4494,2.438,0.0,2.3276,2.2651,2.3887,2.4966,2.4814,2.2837,2.1837,2.0666,1.9113,1.8335,1.7884,1.78,1.8504,1.886,1.8775,1.886,1.8178,1.6699,1.7354,1.6667,1.4808,1.7337,1.7873,1.6733,1.7304,1.7929,1.8443,1.6934,1.8534,2.278,3.099,3.2763,3.1565,4.1323,4.2641,3.9946,4.5076,4.5347,4.3963,4.8251,4.3758,3.6005,3.4062,2.7988,2.1064,1.8406,1.9601,2.1366,1.9518,2.0055,2.1299,2.1891,2.0554,0.0,3.2898,3.4024,3.5423,4.4797,4.6788,4.6637,4.5968,4.5898,4.5789,4.5396,4.5815,4.6523,4.7398,4.7533,4.7952,4.9077,4.9202,4.9519,5.0337,5.0423,5.0462,5.0558,5.0558,5.0519,5.0423,5.0423,5.0462,5.0558,5.016,4.9816,4.9504,4.9092,4.8656,4.8191,4.7674,4.7309,4.7133,4.6493,4.5788,4.5028,4.4349,4.3652,4.297,4.164,4.1485,4.2013,4.1342,4.0679,4.0096,4.0096,4.0096,4.007,2.1055,2.1322,2.204,2.3423,2.4627,2.5795,2.6962,2.659,2.6387,2.708,2.632,2.6269,2.7757,2.6522,2.5439,2.4984,2.3207,2.1417,1.9896,1.9084,1.842,1.7834,1.8504,1.8623,1.8031,1.8589,1.8178,1.6699,1.6841,1.6688,1.6265,1.6248,1.6417,1.6682,1.6231,1.6103,1.6343,1.7997,2.1174,2.523,2.7186,3.0993,3.6074,4.1345,4.4992,4.7433,4.8877,4.8384,4.6694,4.4318,4.2681,4.025,3.2507,3.0687,2.9894,2.2028,2.2964,2.5732,2.1975,2.1184,2.1277,2.0676,2.0704,0.0,2.1411,2.2746,2.5069,2.9162,3.0477,3.1851,3.5012,3.5809,3.573,3.4974,3.8478,4.2657,4.6569,4.7121,4.7321,4.7884,4.7955,4.8118,4.8567,4.8606,4.8894,4.9606,4.9644,4.9356,4.8644,4.8606,4.8933,4.9625,4.925,4.9195,4.9504,4.9092,4.8458,4.7572,4.7449,4.6809,4.5698,4.5085,4.4408,4.3617,4.2372,4.1733,4.1546,4.0671,4.0748,4.1325,4.0604,4.0231,4.0096,4.0096,4.0096,4.002,2.1691,2.1811,2.2658,2.4895,2.6068,2.7334,2.9211,2.8873,2.8653,2.9414,2.9178,2.8805,2.8433,2.7367,2.6252,2.5152,2.3359,2.1654,2.0103,1.9316,1.8572,1.7834,1.8504,1.891,1.8899,1.891,1.8352,1.7253,1.6874,1.614,1.5056,1.5436,1.6807,1.8833,1.6221,1.6778,1.9572,1.7944,1.9728,2.4086,2.9005,3.4552,4.0357,4.4572,4.7679,4.984,5.026,4.9977,4.9009,4.6451,4.3553,4.0413,3.6995,3.4703,3.2103,2.6295,2.6989,2.865,2.4048,2.3081,2.3183,2.2306,2.1774,0.0,0.0,2.3041,2.4686,2.9417,2.9663,2.9998,3.3122,3.311,3.2699,3.2829,3.7145,4.0495,4.043,4.4055,4.7009,4.7808,4.7691,4.7785,4.8386,4.8231,4.8279,4.8721,4.8759,4.8567,4.8125,4.8105,4.8404,4.9077,4.8712,4.8739,4.9202,4.8387,4.781,4.7385,4.6649,4.5772,4.4833,4.419,4.3297,4.2218,4.1511,4.0759,4.0024,3.964,3.9711,3.9962,3.9641,3.9489,3.9513,3.9462,3.9441,3.9435,2.2262,2.2296,2.3141,2.5812,2.7114,2.8517,3.0666,3.048,3.0311,3.0903,3.1478,3.119,2.9497,2.9311,2.8568,2.6776,2.5287,2.353,2.1434,2.0602,1.9858,1.913,1.8961,1.9384,2.0424,1.9299,1.82,1.7157,1.6559,1.5351,1.3625,1.4691,1.6959,2.0001,1.7215,1.8416,2.2297,1.8762,1.9858,2.4661,3.2506,3.7573,4.1003,4.6149,4.8515,4.9241,5.0678,5.1183,5.0914,4.9192,4.494,4.0415,4.0691,3.8022,3.3966,2.9844,3.0672,3.1747,2.6306,2.5409,2.5678,2.4221,2.3163,2.3043,0.0,0.0,0.0,3.0769,3.0169,2.9245,3.1027,3.0282,2.9643,3.041,3.4912,3.6857,3.2761,3.8857,4.4136,4.5189,4.648,4.7326,4.7385,4.6934,4.699,4.7817,4.6971,4.6759,4.7586,4.7559,4.7776,4.83,4.7878,4.7886,4.8429,4.7388,4.6823,4.6748,4.5579,4.4582,4.3759,4.3214,4.2172,4.0759,4.0759,3.9961,3.8663,3.8595,3.8595,3.8656,3.8813,3.8957,3.907,3.9138,3.9019,3.89,2.2161,2.2296,2.2818,2.4457,2.6437,2.8348,2.9989,3.014,3.0123,3.0226,3.2493,3.4286,3.467,3.4704,3.4602,3.4349,3.3,3.0378,2.6201,2.5253,2.4509,2.3763,2.0632,1.9891,2.1992,1.9338,1.6921,1.4875,1.4791,1.4622,1.4368,1.3879,1.4573,1.637,1.9745,2.0002,1.8266,2.3008,2.8227,3.3391,3.4595,3.3715,3.2471,4.0181,4.4018,4.5985,5.1097,5.2914,5.2182,4.7376,4.5714,4.4228,3.6064,3.8214,4.1619,3.0829,3.2757,3.6801,2.9467,2.8068,2.7761,2.3913,2.4505,2.4582,1.9042,0.0,1.9515,1.8792,0.0,1.8163,1.909,0.0,0.0,1.8904,2.4125,2.7805,2.6531,3.0852,3.4356,3.4847,4.1773,4.5421,4.2602,4.1743,4.2931,4.6759,4.2854,4.1939,4.5691,4.5609,4.5789,4.6557,4.5909,4.5945,4.6752,4.6281,4.552,4.4467,4.4311,4.3277,4.157,4.1467,4.0611,3.9148,3.9148,3.8689,3.7895,3.754,3.7669,3.8162,3.8626,3.9177,3.9742,4.029,3.9832,3.8982,2.1183,2.1599,2.2513,2.4445,2.5326,2.6737,2.9661,3.1562,3.251,3.207,3.3474,3.4624,3.4928,3.3419,3.2929,3.4197,3.2983,3.0581,2.6928,2.6404,2.4932,2.2023,2.0369,1.979,2.0314,1.8674,1.6921,1.5138,1.4706,1.4284,1.3853,1.354,1.5808,2.0183,2.1511,2.3819,2.6753,2.7415,2.8609,3.0259,3.2648,3.1959,3.0778,4.2413,4.7843,4.9657,5.2523,5.3398,5.2942,5.1219,4.7084,4.2799,4.3465,4.0931,3.727,3.5009,3.4939,3.4449,2.93,2.9631,3.0157,2.4874,2.5537,2.5669,1.8769,1.7388,1.7484,1.7257,0.0,0.0,0.0,0.0,0.0,0.0,2.0878,2.34,2.0215,2.6374,3.1777,3.3358,3.6174,3.8645,4.0292,4.0204,4.2048,4.6889,4.22,4.1231,4.6105,4.556,4.538,4.5994,4.5475,4.5358,4.5682,4.5056,4.4369,4.364,4.3156,4.2313,4.1178,4.0759,3.996,3.8887,3.8523,3.795,3.7267,3.7188,3.7208,3.7376,3.7624,3.7937,3.8267,3.8428,3.8184,3.782,2.0475,2.1103,2.2092,2.3638,2.4058,2.5358,2.8785,3.1587,3.3254,3.3119,3.3914,3.481,3.5639,3.4184,3.3964,3.5977,3.5351,3.3512,3.0277,2.8907,2.7232,2.5001,2.1742,2.0521,2.1634,1.8927,1.6779,1.5308,1.4563,1.4124,1.398,1.3599,1.6316,2.159,2.2464,2.6174,3.1762,3.1093,3.1088,3.1775,3.4266,3.5004,3.5717,4.5435,5.0657,5.2876,5.3707,5.3875,5.3593,5.2782,4.7996,4.3122,4.7306,4.29,3.6624,3.8882,3.8068,3.5444,3.0876,3.1676,3.2124,2.5127,2.502,2.4953,1.849,1.7099,1.735,1.793,1.7063,0.0,0.0,0.0,1.554,1.5686,0.0,2.0181,1.5967,2.1455,2.6796,2.9219,3.0347,3.2866,3.7769,3.6862,3.8681,4.5232,4.0367,3.9927,4.6388,4.57,4.5243,4.5453,4.4983,4.4648,4.4449,4.385,4.3262,4.2649,4.2046,4.1344,4.0553,4.0077,3.9304,3.8318,3.7931,3.7322,3.6628,3.663,3.663,3.6685,3.6554,3.6671,3.6933,3.7291,3.7235,3.7025,2.0449,2.1103,2.1508,2.1183,2.2671,2.4678,2.6949,2.8969,3.0751,3.2158,3.3613,3.5605,3.8531,4.0054,4.1457,4.2936,4.3741,4.2601,3.8836,3.4544,3.3698,3.7178,2.6201,2.2719,2.8553,2.0835,1.6011,1.4537,1.3794,1.4149,1.5494,1.4065,1.4666,1.7148,2.2389,2.5679,2.7695,3.357,3.9184,4.3975,4.2561,4.4782,4.8787,4.727,4.9406,5.328,5.4179,5.4718,5.4255,4.9149,4.7995,4.7728,4.206,4.2942,4.5262,4.1323,4.2649,4.3718,3.6074,3.4798,3.3361,2.3931,2.2282,2.1613,1.6465,1.717,1.8923,1.8953,2.0607,2.1821,2.1109,2.0595,1.9271,1.6194,1.7142,0.0,0.0,1.4805,1.5906,1.8317,2.447,3.0105,3.418,2.9695,3.0614,4.0465,3.5698,3.6432,4.5818,4.5613,4.5028,4.4655,4.3921,4.3286,4.2783,4.2747,4.2154,4.099,4.0955,4.0251,3.899,3.9154,3.84,3.696,3.7061,3.6655,3.5908,3.5537,3.5667,3.6083,3.5709,3.5886,3.6625,3.8249,3.809,3.7187,2.0489,2.1103,2.1552,2.1414,2.1456,2.2805,2.6625,2.9674,3.2628,3.5622,3.6434,3.8075,4.1542,4.1491,4.2202,4.4705,4.4705,4.343,4.0646,3.6705,3.5064,3.6309,2.7774,2.4391,2.7419,2.1837,1.7918,1.596,1.5216,1.5114,1.5595,1.5097,1.5791,1.7669,2.3094,2.8159,3.2856,3.6949,4.0084,4.2269,4.1719,4.3773,4.7261,4.8218,5.0339,5.285,5.3131,5.3884,5.444,5.2632,5.0141,4.7965,4.8826,4.5968,4.2632,4.4191,4.3514,4.1719,3.9076,4.032,3.9965,2.9894,2.8507,2.7381,1.8811,1.7968,1.8658,1.7405,1.9506,2.1101,1.9538,1.9141,1.8308,1.606,1.6157,1.549,0.0,1.2585,1.3416,1.4762,2.1253,2.5959,2.6773,2.9127,3.3185,3.9421,3.8077,4.009,4.7173,4.606,4.5143,4.5013,4.402,4.3051,4.2121,4.2101,4.1261,3.9587,3.9587,3.9133,3.8308,3.7858,3.7436,3.7008,3.6631,3.6282,3.6048,3.6038,3.6111,3.6302,3.6146,3.6194,3.6474,3.7024,3.6992,3.6624,2.1138,2.1389,2.1552,2.1414,2.1923,2.3468,2.6708,3.0331,3.3744,3.6705,3.733,3.8819,4.2226,4.1779,4.2202,4.4671,4.4705,4.3504,4.0984,3.8311,3.7043,3.756,3.1461,2.9128,3.1427,2.5507,2.1431,1.9464,1.7145,1.613,1.6373,1.5849,1.639,1.7963,2.198,2.7967,3.5245,3.8209,4.1442,4.4489,4.3884,4.4784,4.6628,4.845,4.9767,5.0805,5.1973,5.3197,5.4255,5.4255,5.2349,5.0455,5.3015,4.9885,4.5784,4.8385,4.6994,4.4284,4.2733,4.3784,4.3234,3.4411,3.3081,3.1565,2.2404,2.1472,2.2149,2.0785,2.1274,2.2626,2.4864,2.1889,1.9011,1.8789,1.7282,1.4989,0.0,1.1764,1.2264,1.2707,1.7669,2.1797,2.3666,2.5577,3.0355,3.9282,3.7878,3.9967,4.762,4.6664,4.5665,4.5211,4.438,4.3249,4.181,4.181,4.081,3.8908,3.8977,3.8515,3.7576,3.722,3.6916,3.6725,3.6371,3.6193,3.6212,3.6337,3.6405,3.6392,3.6144,3.6069,3.6094,3.6329,3.6279,3.5994,2.2347,2.2076,2.1735,2.1343,2.393,2.6369,2.7199,3.0767,3.3926,3.56,3.6552,3.8217,4.1153,4.1491,4.2049,4.3443,4.4265,4.3487,4.0603,3.9597,3.9817,4.1407,3.706,3.6349,4.0062,3.1393,2.6116,2.466,1.9391,1.7145,1.7766,1.6373,1.6424,1.7766,1.927,2.5338,3.4584,3.7476,4.3387,5.0655,4.8983,4.7862,4.725,4.7942,4.766,4.7331,5.0708,5.2706,5.3702,5.3777,5.4333,5.4882,5.4049,5.4152,5.4355,5.349,5.2741,5.1293,4.706,4.5383,4.3395,3.7408,3.5837,3.3951,2.7122,2.7459,2.9105,2.8633,2.6131,2.6772,3.5766,2.8385,2.1597,2.3655,1.9948,1.5735,1.2701,1.2242,1.2187,1.2066,1.425,1.8125,2.4134,1.9514,2.2898,3.9232,3.505,3.6422,4.7124,4.7057,4.6247,4.5313,4.4919,4.3811,4.1917,4.1835,4.0821,3.8871,3.9038,3.8331,3.6836,3.7109,3.6818,3.6113,3.6299,3.6405,3.6405,3.6405,3.6392,3.6317,3.5696,3.5483,3.552,3.6081,3.5943,3.537,2.3122,2.4347,2.5362,2.5263,2.5514,2.6555,2.8979,3.1182,3.41,3.8379,4.0096,4.2016,4.5026,4.5348,4.55,4.5889,4.6109,4.5906,4.5128,4.2286,4.2049,4.5213,3.9462,3.7686,4.0865,3.2696,2.7926,2.6945,2.1177,1.8149,1.7783,1.7411,1.6847,1.6302,1.9368,2.5817,3.4584,3.7476,4.3387,5.067,4.9146,4.6641,4.4054,4.6122,4.5654,4.4542,4.9364,5.1693,5.2548,5.3156,5.3701,5.4096,5.3871,5.433,5.4759,5.3887,5.3747,5.3359,5.0952,4.993,4.8271,4.2937,4.0433,3.8007,3.3064,3.2941,3.3485,3.208,3.3099,3.348,3.0995,2.8577,2.5374,2.0481,1.7111,1.5044,1.4811,1.4261,1.4311,1.544,1.8697,1.9322,1.5508,2.2021,2.7817,3.1052,3.4814,4.0057,4.709,4.3284,4.263,4.6487,4.5511,4.4464,4.3527,4.2414,4.0711,3.8449,3.8249,3.7303,3.571,3.6191,3.64,3.6349,3.6373,3.6405,3.6405,3.6405,3.6119,3.5696,3.5558,3.5257,3.4906,3.509,3.5052,3.4806,2.3881,2.6201,2.818,2.818,2.8907,2.9956,3.1343,3.251,3.468,3.8616,4.0409,4.2117,4.413,4.5229,4.585,4.585,4.585,4.5263,4.3972,4.3115,4.3183,4.4299,4.2303,4.21,4.4096,3.8007,3.3457,3.0734,2.4763,2.0602,1.8268,1.7625,1.6891,1.6218,1.9377,2.4608,3.1482,3.8247,4.3613,4.7681,4.8324,4.6852,0.0,4.585,4.5405,4.4507,4.8479,5.0639,5.1675,5.2474,5.3208,5.3796,5.3796,5.4286,5.4738,5.4249,5.4009,5.3729,5.2723,5.2011,5.0876,4.7997,4.6412,4.4224,3.9245,3.8479,3.8508,3.7435,3.6488,3.6114,3.6989,3.1642,2.4897,1.8155,1.5912,1.5068,1.516,1.5086,1.5203,1.5656,1.8307,1.7944,1.2514,2.2741,2.9307,2.8273,3.2771,3.7309,4.1409,4.0632,4.152,4.4729,4.4668,4.4089,4.3148,4.1204,3.9493,3.8071,3.7514,3.6684,3.5643,3.605,3.6297,3.6405,3.6405,3.6267,3.6006,3.6006,3.568,3.5119,3.4868,3.4487,3.401,3.401,3.4161,3.4286,2.4914,2.8027,3.0581,3.0275,3.2763,3.4641,3.4201,3.4759,3.5977,3.8075,3.9715,4.095,4.1576,4.3403,4.4615,4.4615,4.4615,4.3498,4.0857,4.3142,4.3707,4.1728,4.4857,4.7005,4.772,4.4079,3.958,3.4353,2.8484,2.3156,1.8448,1.7162,1.6502,1.6523,1.9073,2.3142,2.8785,3.9731,4.4364,4.4565,4.7455,4.7691,4.6264,4.6192,4.5833,4.5667,4.7785,4.9464,5.0839,5.167,5.2627,5.3454,5.3454,5.3758,5.4127,5.4127,5.3635,5.3069,5.2956,5.2325,5.1694,5.16,5.1513,5.0137,4.493,4.3761,4.3678,4.3454,3.8932,3.7619,4.623,3.55,2.3534,1.7979,1.711,1.7142,1.7172,1.7326,1.7076,1.6102,1.7887,0.0,1.3274,2.2229,2.8065,2.7516,2.9084,3.1444,3.4618,3.8287,4.0996,4.2554,4.3537,4.3291,4.1815,3.9407,3.7963,3.7443,3.6814,3.6293,3.6038,3.621,3.6304,3.6304,3.6229,3.5881,3.5395,3.5395,3.5069,3.4562,3.401,3.3495,3.3124,3.3124,3.3382,3.3721,2.7097,3.0734,3.3152,3.1326,3.4003,3.6761,3.7838,3.8657,3.9486,4.0493,4.2472,4.387,4.4005,4.4378,4.4615,4.4615,4.4615,4.4378,4.3853,4.431,4.4429,4.4039,4.5213,4.6244,4.6972,4.3318,3.8836,3.3592,2.823,2.2378,1.617,1.59,1.5477,1.4996,1.7551,2.4847,3.5719,4.2432,4.661,4.8724,4.881,4.7576,4.5597,4.5115,4.4841,4.4963,4.6584,4.8012,4.939,5.0812,5.1401,5.1564,5.1564,5.186,5.2174,5.2174,5.2352,5.2387,5.1667,5.1103,5.0602,4.9919,4.9514,4.8977,4.7933,4.769,4.7705,4.7717,4.6343,4.4483,4.2352,3.5644,2.9084,2.502,2.4547,2.6253,3.0785,2.8675,2.6353,2.5517,2.9587,2.7797,1.588,2.0725,0.0,0.0,2.3029,2.8031,3.7417,3.4295,3.6594,4.6122,4.496,4.3195,4.1176,3.9676,3.7801,3.5573,3.6101,3.61,3.562,3.5638,3.5646,3.5621,3.5203,3.4951,3.4818,3.4818,3.4537,3.3985,3.3432,3.3156,3.3124,3.3124,3.3174,3.3206,3.1543,3.3588,3.4996,3.4726,3.711,3.9309,4.0037,4.1762,4.2574,4.1373,4.2151,4.2828,4.2828,4.3904,4.4615,4.4615,4.4615,4.4615,4.4615,4.4615,4.4615,4.4615,4.5314,4.6058,4.6769,4.5415,4.117,3.3964,3.0294,2.4475,1.6728,1.5578,1.5044,1.5293,2.0383,2.677,3.4192,4.2105,4.5677,4.6239,4.8123,4.7525,4.5433,4.4841,4.4615,4.4801,4.6261,4.721,4.805,4.9911,5.077,5.1086,5.1086,5.1228,5.1397,5.1397,5.1538,5.1633,5.1213,5.0964,5.0722,5.0341,5.0076,4.9843,4.9451,4.937,4.9276,4.8975,4.8333,4.6195,4.0893,3.5474,3.1207,2.9354,2.7664,2.8418,3.3628,3.3078,3.1977,3.1574,3.2879,3.0067,2.0494,2.1056,0.0,0.0,0.0,2.6568,3.4931,3.2704,3.4976,4.3234,4.2675,4.1513,4.0024,3.7804,3.6385,3.5695,3.5839,3.5754,3.5495,3.5495,3.5345,3.5056,3.4793,3.4562,3.4274,3.3985,3.3709,3.3445,3.3181,3.3124,3.3124,3.3124,3.3124,3.3124,3.5487,3.6225,3.6907,3.7956,3.9969,4.1441,4.1441,4.3724,4.4604,4.2236,4.1914,4.1914,4.1914,4.3504,4.4615,4.4615,4.4615,4.4615,4.4615,4.4615,4.4615,4.4615,4.5145,4.5872,4.6769,4.7378,4.3741,3.5673,3.2835,2.7165,1.8927,1.6076,1.5802,1.7975,2.4335,2.9496,3.3946,4.1849,4.4698,4.4229,4.737,4.7315,4.5258,4.4786,4.4615,4.4784,4.6075,4.6667,4.7089,4.8936,5.0035,5.0653,5.0653,5.0653,5.0653,5.0653,5.0653,5.0653,5.0653,5.0653,5.0653,5.0653,5.0653,5.0517,4.9936,4.9809,4.9652,4.9107,4.8395,4.6181,4.0744,3.7251,3.4676,3.3098,3.1215,3.1439,3.5752,3.6102,3.5992,3.6294,3.3656,3.0095,2.5699,2.2018,2.0237,0.0,0.0,2.5519,3.1457,3.1779,3.4184,3.9444,3.9275,3.8511,3.7375,3.5593,3.5087,3.58,3.5486,3.5382,3.5495,3.5257,3.4919,3.4537,3.4424,3.4123,3.3696,3.3257,3.3124,3.3124,3.3124,3.3124,3.3124,3.3124,3.3124,3.3124,3.6485,3.8302,3.952,3.8988,4.073,4.2185,4.2185,4.3633,4.4615,4.4327,4.4293,4.4293,4.4293,4.4479,4.4615,4.4615,4.4615,4.4615,4.4615,4.4615,4.4615,4.4615,4.4682,4.5376,4.6752,4.6853,4.4485,3.9588,3.4629,2.901,2.2767,1.7811,1.8733,2.4701,2.7462,3.4015,4.3068,4.4073,4.5985,4.8305,4.7998,4.6601,4.4682,4.4626,4.4615,4.4716,4.55,4.6227,4.695,4.7793,4.8595,4.9182,4.9182,4.9182,4.9182,4.9182,4.9182,4.9182,4.9182,4.9182,4.9182,4.9182,4.9182,4.9182,4.9107,4.9107,4.9077,4.9001,4.8333,4.6326,4.1711,4.3632,4.3902,3.7602,3.8988,4.1754,4.4397,4.1319,3.928,4.0562,3.5064,3.1059,3.0796,2.305,2.0844,2.7554,2.3915,2.397,2.9806,3.0459,3.3086,3.8468,3.6127,3.3797,3.1778,3.4172,3.4988,3.4149,3.4582,3.5019,3.547,3.4512,3.4022,3.3947,3.3445,3.3206,3.3156,3.3106,3.3124,3.3124,3.3124,3.3124,3.3124,3.3124,3.3124,3.3124,3.9935,4.0087,4.0426,4.1474,4.1644,4.21,4.3481,4.4209,4.4615,4.4615,4.4615,4.4615,4.4615,4.4615,4.4615,4.4615,4.4615,4.4615,4.4615,4.4615,4.4615,4.4615,4.4615,4.5309,4.6752,4.6786,4.4807,4.0747,3.552,3.0125,2.4644,2.2052,2.4123,3.0252,3.4711,3.9514,4.4414,4.7162,4.8536,4.8792,4.7543,4.5727,4.3756,4.3259,4.335,4.3914,4.4677,4.5458,4.6329,4.7483,4.8409,4.9001,4.9001,4.9001,4.9001,4.9001,4.9001,4.9001,4.9001,4.9001,4.9001,4.9001,4.9001,4.9001,4.9001,4.9001,4.9001,4.9001,4.8694,4.7866,4.6006,4.4329,4.3098,4.2742,4.1427,4.197,4.6345,4.5441,4.4839,4.6336,4.2159,3.8655,3.7382,2.9092,2.4849,2.7436,2.1952,2.1569,2.8627,2.9716,3.1465,3.4394,3.5952,3.5468,3.2869,3.4299,3.4806,3.4399,3.4613,3.4618,3.455,3.4098,3.3721,3.3395,3.3169,3.3124,3.3124,3.3124,3.3124,3.3124,3.3124,3.3124,3.3124,3.3124,3.3124,3.3124,4.2439,4.1796,4.1634,4.3453,4.2895,4.2726,4.4361,4.4615,4.4615,4.4615,4.4615,4.4615,4.4615,4.4615,4.4615,4.4615,4.4615,4.4615,4.4615,4.4615,4.4615,4.4615,4.4615,4.5309,4.6752,4.6786,4.5703,4.3487,3.8482,3.3994,3.0084,2.8125,3.0238,3.5881,4.027,4.3559,4.6041,4.9023,4.9507,4.8156,4.6792,4.5077,4.3276,4.2909,4.297,4.3402,4.4185,4.4984,4.5889,4.7158,4.8071,4.8714,4.8934,4.9001,4.9001,4.9001,4.9001,4.9001,4.9001,4.9001,4.9001,4.9001,4.9001,4.9001,4.9001,4.9001,4.9107,4.9521,4.937,4.924,4.9383,4.5805,4.3434,4.5334,4.3212,4.2472,4.5788,4.6153,4.6286,4.6812,4.2473,3.9754,4.0502,3.2092,2.7396,2.9365,2.4098,2.3358,2.9191,2.9919,3.1062,3.2979,3.5331,3.5581,3.359,3.4332,3.468,3.468,3.4562,3.4274,3.3884,3.3734,3.3445,3.3124,3.3124,3.3124,3.3124,3.3124,3.3124,3.3124,3.3124,3.3124,3.3124,3.3124,3.3124,3.3124,4.3088,4.3358,4.3639,4.4445,4.4581,4.4581,4.4615,4.4615,4.4615,4.4615,4.4615,4.4615,4.4615,4.4615,4.4615,4.4615,4.4615,4.4615,4.4615,4.4615,4.4615,4.4615,4.4615,4.5309,4.6752,4.6786,4.7479,4.8917,4.4406,4.1719,4.0723,3.6185,3.6842,4.1831,4.2632,4.5495,4.9676,4.9085,4.8018,4.6664,4.5993,4.4733,4.3396,4.4253,4.4035,4.3396,4.4298,4.5077,4.5821,4.6549,4.731,4.8024,4.8781,4.9001,4.9001,4.9001,4.9001,4.9001,4.9001,4.9001,4.9001,4.9001,4.9001,4.9001,4.9001,4.9001,4.9389,5.0787,5.0433,5.0087,5.0746,4.9586,4.7509,4.4433,4.5276,4.5499,4.3204,4.2509,4.1596,3.9755,3.2412,3.0615,3.8541,2.9872,2.718,3.5471,3.2651,3.0972,3.1994,3.1245,3.2361,3.5844,3.3482,3.2212,3.2342,3.3896,3.468,3.4668,3.4173,3.3909,3.3884,3.3332,3.3124,3.3124,3.3124,3.3124,3.3124,3.3124,3.3124,3.3124,3.3124,3.3124,3.3124,3.3124,3.3124,3.3124,4.4113,4.4215,4.4282,4.4564,4.4615,4.4615,4.4615,4.4615,4.4615,4.4615,4.4615,4.4615,4.4615,4.4615,4.4615,4.4615,4.4615,4.4615,4.4615,4.4615,4.4615,4.4615,4.5077,4.5805,4.6769,4.7746,4.8724,4.9664,4.5677,4.3259,4.2332,4.0312,4.1831,4.6267,4.6081,4.7108,4.891,4.7773,4.7065,4.6593,4.532,4.4208,4.3216,4.2284,4.252,4.3276,4.2939,4.3754,4.5043,4.5805,4.621,4.6532,4.7276,4.7851,4.8257,4.8257,4.7902,4.7496,4.7496,4.7868,4.8257,4.8257,4.8646,4.9001,4.9001,4.9001,4.9273,5.0157,5.016,5.0002,5.0175,4.9435,4.8136,4.6071,4.5848,4.5486,4.4206,4.3413,4.2925,4.2841,4.0008,3.9263,4.2349,3.6386,3.2974,3.4452,2.9414,2.6947,2.8482,3.228,3.3964,3.2975,3.5058,3.5537,3.4202,3.4182,3.4161,3.4161,3.3608,3.3332,3.3332,3.3156,3.3124,3.3124,3.3124,3.3124,3.3124,3.3124,3.3124,3.3124,3.3124,3.3124,3.3124,3.3124,3.3124,3.3124,4.4615,4.4615,4.4615,4.4615,4.4615,4.4615,4.4615,4.4615,4.4615,4.4615,4.4852,4.4993,4.4993,4.4993,4.4919,4.4632,4.4615,4.4615,4.4615,4.4615,4.4733,4.4993,4.5449,4.6287,4.7546,4.8441,4.9392,5.039,4.8009,4.6693,4.6372,4.5569,4.6468,4.8764,4.8127,4.7817,4.7688,4.6632,4.609,4.5839,4.4858,4.3989,4.3216,4.2442,4.2645,4.3276,4.3061,4.3663,4.4716,4.5449,4.5703,4.5838,4.6566,4.6938,4.7141,4.7411,4.7158,4.6786,4.6786,4.7141,4.7564,4.7821,4.8257,4.8663,4.8951,4.9001,4.9182,4.9879,5.0004,4.999,4.9941,4.9366,4.8495,4.7292,4.6294,4.5402,4.4637,4.4019,4.3045,4.1383,4.091,4.0895,4.1292,3.834,3.6706,3.7326,3.3422,3.1522,3.2674,3.3532,3.4483,3.5549,3.7185,3.7469,3.6298,3.4705,3.3796,3.3583,3.3244,3.3124,3.3124,3.3124,3.3124,3.3124,3.3124,3.3124,3.3124,3.3124,3.3124,3.3124,3.3124,3.3124,3.3124,3.3124,3.3124,3.3124,4.4615,4.4615,4.4615,4.4615,4.4615,4.4615,4.4615,4.4615,4.4632,4.4682,4.5263,4.572,4.5771,4.5737,4.5415,4.475,4.4632,4.4615,4.4615,4.4615,4.4925,4.5669,4.5754,4.6726,4.8771,4.898,4.9782,5.1241,5.1048,5.1336,5.1977,5.1114,5.0286,4.9495,4.8774,4.7652,4.6288,4.5681,4.5115,4.4615,4.4615,4.4093,4.3472,4.4224,4.4035,4.3502,4.4224,4.4542,4.4716,4.5382,4.5618,4.5737,4.643,4.6177,4.5771,4.6498,4.6684,4.6633,4.6633,4.6718,4.6955,4.7665,4.7889,4.8173,4.8849,4.8968,4.9114,4.9723,4.985,4.985,4.985,4.9342,4.8667,4.7915,4.6663,4.5438,4.4504,4.4256,4.2211,3.6903,3.6769,3.706,3.6862,3.6821,3.8482,4.2453,4.2267,4.1991,4.1991,3.4981,3.4457,4.2096,3.9601,3.8117,3.8117,3.5344,3.367,3.3124,3.3124,3.3124,3.3124,3.3124,3.3124,3.3124,3.3124,3.3124,3.3124,3.3124,3.3124,3.3124,3.3124,3.3124,3.3124,3.3124,3.3124,3.3124,4.4615,4.4615,4.4615,4.4615,4.4615,4.4615,4.4615,4.4615,4.4818,4.5365,4.5602,4.5923,4.6481,4.6041,4.5635,4.5449,4.4908,4.4615,4.4615,4.4615,4.4925,4.5669,4.6244,4.7043,4.8103,4.9739,5.1265,5.2702,5.205,5.1833,5.1958,5.0565,4.9519,4.8789,4.7487,4.6464,4.5656,4.5062,4.472,4.4615,4.4615,4.4485,4.4253,4.3785,4.3902,4.4224,4.3785,4.4035,4.4632,4.4818,4.484,4.4902,4.5089,4.5004,4.5021,4.5737,4.5551,4.5139,4.5139,4.5952,4.6836,4.7022,4.7919,4.8798,4.8968,4.8578,4.8203,4.8379,4.8409,4.8409,4.8409,4.8698,4.8524,4.7067,4.6527,4.5794,4.4283,4.3516,4.2567,4.1221,4.0619,4.0278,4.0239,4.0217,3.9424,3.7494,3.7689,3.7918,3.7918,3.6537,3.7569,4.1527,4.0172,3.8738,3.7453,3.5485,3.4053,3.3124,3.3124,3.3124,3.3124,3.3124,3.3124,3.3124,3.3124,3.3124,3.3124,3.3124,3.3124,3.3124,3.3124,3.3124,3.3124,3.3124,3.3124,3.3124,4.4615,4.4615,4.4615,4.4615,4.4615,4.4615,4.4615,4.4902,4.5246,4.5652,4.6295,4.6735,4.6786,4.6447,4.6075,4.5737,4.501,4.4615,4.4615,4.4615,4.5089,4.616,4.6583,4.7454,4.8817,4.9994,5.1138,5.2237,5.2118,5.1847,5.1482,5.0633,4.9643,4.8536,4.7156,4.5917,4.489,4.4697,4.4355,4.4035,4.444,4.4615,4.4542,4.4064,4.4196,4.4542,4.4064,4.4196,4.4615,4.4615,4.4615,4.4615,4.4615,4.4615,4.4682,4.5077,4.4891,4.4615,4.4615,4.5415,4.6464,4.7141,4.8156,4.8917,4.8578,4.8176,4.7787,4.7479,4.7328,4.7268,4.7268,4.7501,4.7424,4.6515,4.557,4.4591,4.3582,4.2509,4.1769,4.1641,4.1784,4.1871,4.1871,4.2102,4.1384,3.9245,3.9409,3.9619,3.9619,3.9933,4.0651,4.1826,4.0534,3.9201,3.7927,3.5791,3.415,3.3124,3.3124,3.3124,3.3124,3.3598,3.3556,3.3111,3.3641,3.3556,3.3124,3.3124,3.3124,3.3124,3.3124,3.3124,3.3124,3.3124,3.3124,3.3124,4.4615,4.4615,4.4615,4.4615,4.4615,4.4615,4.4615,4.5229,4.5737,4.5855,4.6972,4.7547,4.7022,4.6769,4.638,4.5754,4.5128,4.4733,4.4615,4.4716,4.5376,4.6735,4.6786,4.7702,4.9643,4.9671,5.0031,5.0775,5.1352,5.1268,5.0597,5.0523,4.9703,4.825,4.6938,4.5544,4.4265,4.4356,4.4064,4.3562,4.4298,4.4615,4.4615,4.4615,4.4615,4.4615,4.4615,4.4615,4.4615,4.4615,4.4615,4.4615,4.4615,4.4615,4.4615,4.4615,4.4682,4.4784,4.4784,4.5382,4.6363,4.775,4.846,4.868,4.8024,4.772,4.7365,4.6587,4.6312,4.6174,4.6143,4.6081,4.5853,4.5221,4.4022,4.2891,4.1976,4.1245,4.0725,4.0583,4.1572,4.2291,4.2396,4.2865,4.3185,4.329,4.329,4.3245,4.3155,4.314,4.2851,4.2126,4.0778,3.9605,3.8674,3.6021,3.4304,3.3556,3.3556,3.3556,3.3586,3.4498,3.4428,3.3586,3.4345,3.4191,3.3313,3.3154,3.3124,3.3124,3.3124,3.3124,3.3124,3.3124,3.3124,3.3124,4.4615,4.4615,4.4615,4.4615,4.4615,4.4615,4.4615,4.5229,4.5923,4.6549,4.6819,4.7158,4.7652,4.6633,4.5821,4.572,4.5602,4.5263,4.4649,4.5179,4.5906,4.6752,4.6786,4.7251,4.8188,4.8185,4.8496,4.9238,4.9337,4.9332,4.9208,4.8526,4.7773,4.6915,4.5312,4.4574,4.4491,4.3798,4.3844,4.4412,4.4542,4.4615,4.4615,4.4615,4.4615,4.4615,4.4615,4.4615,4.4615,4.4615,4.4615,4.4615,4.4615,4.4615,4.4615,4.4615,4.5026,4.5534,4.5534,4.6532,4.7753,4.8629,4.846,4.8024,4.7922,4.6955,4.5816,4.4959,4.4747,4.4683,4.4492,4.4966,4.4197,4.0601,4.2106,4.2235,3.8069,3.9691,4.1287,4.1257,4.1452,4.1796,4.2351,4.2485,4.2746,4.3245,4.329,4.309,4.259,4.2545,4.1991,4.0741,4.1017,4.0138,3.7987,3.5776,3.5047,3.5734,3.5734,3.5734,3.5734,3.5894,3.5894,3.5694,3.502,3.4622,3.4387,3.3471,3.3124,3.3124,3.3124,3.3124,3.3124,3.3124,3.3124,3.3124,4.4682,4.4615,4.4615,4.4615,4.4615,4.475,4.5128,4.5821,4.6566,4.731,4.7394,4.7378,4.731,4.6346,4.5551,4.5128,4.5466,4.5568,4.5213,4.5872,4.6447,4.6786,4.6786,4.6955,4.731,4.73,4.7447,4.7771,4.8137,4.8092,4.7646,4.7321,4.6758,4.6014,4.4913,4.4209,4.3902,4.3977,4.3977,4.3931,4.4412,4.4615,4.4615,4.4615,4.4615,4.4615,4.4615,4.4615,4.4615,4.4615,4.4615,4.4615,4.4615,4.4615,4.4615,4.4615,4.5111,4.5872,4.6684,4.7365,4.8075,4.8832,4.846,4.7817,4.7411,4.6481,4.532,4.4065,4.3724,4.3476,4.2913,4.3,4.2525,4.0578,4.0913,4.0764,3.8867,3.9275,3.9903,4.0277,4.0636,4.0965,4.1265,4.1662,4.1991,4.2267,4.2282,4.2147,4.1886,4.1871,4.1384,4.0427,3.9786,3.8943,3.7805,3.6279,3.5734,3.6198,3.6198,3.6198,3.6237,3.6813,3.6735,3.6158,3.5708,3.521,3.4622,3.3556,3.3124,3.3124,3.3124,3.3124,3.3124,3.3124,3.3124,3.3124,4.4987,4.4733,4.4615,4.4615,4.4615,4.4801,4.5348,4.6058,4.6752,4.7297,4.7382,4.7175,4.6599,4.5889,4.528,4.4902,4.5534,4.6041,4.621,4.6735,4.6972,4.6802,4.6633,4.6447,4.6278,4.6278,4.6278,4.6278,4.6803,4.6751,4.6155,4.6192,4.5958,4.5499,4.4671,4.4135,4.387,4.4176,4.4035,4.3651,4.4327,4.4615,4.4615,4.4615,4.4615,4.4615,4.4615,4.4615,4.4615,4.4615,4.4615,4.4615,4.4615,4.4615,4.4615,4.4615,4.5229,4.6278,4.7767,4.8173,4.8257,4.8663,4.8206,4.7462,4.6701,4.5974,4.4988,4.3344,4.2878,4.2498,4.1588,4.1252,4.0905,4.0142,3.9813,3.9499,3.908,3.8796,3.8826,3.9349,3.9858,4.0232,4.0382,4.0861,4.122,4.1407,4.1422,4.1309,4.116,4.1145,4.0771,3.9825,3.8495,3.7919,3.8182,3.7098,3.6565,3.6565,3.6799,3.6799,3.6604,3.7701,3.7738,3.6916,3.6682,3.5987,3.4979,3.3911,3.3313,3.3124,3.3124,3.3124,3.3124,3.3124,3.3124,3.3124,4.5635,4.506,4.4615,4.4615,4.4615,4.4632,4.4682,4.5314,4.5805,4.5855,4.5872,4.5838,4.5788,4.5111,4.4925,4.5568,4.6295,4.7005,4.7686,4.777,4.7513,4.6819,4.6143,4.5449,4.4784,4.4767,4.4767,4.4767,4.4823,4.4817,4.4766,4.4749,4.5106,4.5613,4.4085,4.4197,4.5424,4.4009,4.3814,4.4514,4.457,4.4615,4.4615,4.4615,4.4615,4.4615,4.4615,4.4615,4.4615,4.4615,4.4615,4.4615,4.4615,4.4615,4.4615,4.4615,4.5602,4.7039,4.8528,4.8934,4.8781,4.8125,4.7445,4.6684,4.5957,4.5196,4.4188,4.2458,4.2062,4.1746,4.0686,4.0464,3.9484,3.6432,3.8407,3.905,3.5447,3.7464,3.9328,3.9373,3.9454,3.9723,4.0337,4.0442,4.0726,4.1324,4.1422,4.1115,4.0502,4.0472,3.9721,3.8043,3.7857,3.8271,3.9265,3.8234,3.7663,3.7715,3.8694,3.862,3.7715,3.8782,3.9228,3.9104,3.8107,3.7098,3.6013,3.502,3.3995,3.3124,3.3124,3.3124,3.3124,3.3124,3.3124,3.3124,4.5788,4.5094,4.4615,4.4615,4.4615,4.4767,4.5213,4.5517,4.5872,4.6312,4.5974,4.5703,4.5703,4.5026,4.4716,4.4976,4.6109,4.6921,4.7192,4.7665,4.7378,4.6177,4.5399,4.4902,4.4615,4.4615,4.4615,4.4615,4.4615,4.4852,4.528,4.528,4.5669,4.6346,4.5278,4.511,4.5624,4.4543,4.4298,4.4615,4.4615,4.4615,4.4615,4.4615,4.4615,4.4615,4.4615,4.4615,4.4615,4.4615,4.4615,4.4615,4.4615,4.4615,4.4699,4.5145,4.5991,4.7022,4.8054,4.8663,4.8832,4.8075,4.7361,4.6465,4.52,4.4331,4.329,4.156,4.118,4.0904,3.9941,3.9783,3.9379,3.8138,3.8975,3.9275,3.7749,3.8631,3.9388,3.9388,3.9388,3.9514,3.9768,3.9783,3.9903,4.0142,4.0172,4.0053,3.9798,3.915,3.8187,3.6852,3.6813,3.7007,3.7405,3.6397,3.62,3.6813,3.7904,3.8196,3.7829,3.8907,3.9388,3.9337,3.8271,3.7548,3.706,3.5373,3.447,3.4037,3.3356,3.3124,3.3124,3.3124,3.3124,3.3124,4.6143,4.5263,4.4615,4.4615,4.4615,4.4784,4.528,4.5348,4.5534,4.6024,4.5669,4.5348,4.5348,4.4919,4.4699,4.4925,4.5872,4.6549,4.6769,4.7056,4.6769,4.5754,4.4976,4.4615,4.4615,4.4615,4.4615,4.4615,4.4615,4.4845,4.5274,4.5571,4.6064,4.6666,4.6009,4.5838,4.5974,4.5021,4.4615,4.4615,4.4615,4.4615,4.4615,4.4615,4.4615,4.4615,4.4615,4.4615,4.4615,4.4615,4.4615,4.4615,4.4615,4.4615,4.475,4.5483,4.621,4.6895,4.7331,4.7872,4.8056,4.7334,4.638,4.5308,4.3947,4.3252,4.2489,4.1013,4.069,4.0432,3.9538,3.9388,3.9388,3.9388,3.9388,3.9388,3.9388,3.9388,3.9388,3.9388,3.9388,3.9388,3.9388,3.9388,3.9388,3.9388,3.9388,3.9265,3.8907,3.8196,3.7151,3.5774,3.5734,3.5588,3.5224,3.5197,3.5359,3.5734,3.6788,3.7151,3.6841,3.7904,3.8583,3.887,3.8107,3.7791,3.7677,3.5882,3.4979,3.4594,3.3513,3.3124,3.3124,3.3124,3.3124,3.3124,4.6786,4.5602,4.4615,4.4615,4.4615,4.4615,4.4615,4.4615,4.4615,4.4615,4.4615,4.4615,4.4615,4.4615,4.4874,4.5635,4.5703,4.6007,4.6735,4.6109,4.5703,4.5703,4.4976,4.4615,4.4615,4.4615,4.4615,4.4598,4.4598,4.4478,4.4331,4.5244,4.5972,4.6469,4.5945,4.6109,4.6684,4.5224,4.4615,4.4615,4.4615,4.4615,4.4615,4.4615,4.4615,4.4615,4.4615,4.4615,4.4615,4.4615,4.4615,4.4615,4.4615,4.4615,4.475,4.5483,4.621,4.6759,4.6546,4.6518,4.6401,4.5659,4.4301,4.2911,4.2157,4.1997,4.1739,4.0878,4.069,4.0432,3.9538,3.9388,3.9388,3.9388,3.9388,3.9388,3.9388,3.9388,3.9388,3.9388,3.9388,3.9388,3.9388,3.9388,3.9388,3.9388,3.9388,3.8907,3.7829,3.7791,3.6841,3.4746,3.4705,3.4191,3.3124,3.5156,3.5668,3.4705,3.5708,3.5668,3.4746,3.5734,3.6774,3.7791,3.7791,3.7791,3.7715,3.6643,3.5588,3.4581,3.3513,3.3124,3.3124,3.3124,3.3124,3.3124,4.6126,4.5246,4.4615,4.4615,4.4615,4.4615,4.4615,4.4615,4.4615,4.4615,4.4615,4.4615,4.4615,4.4615,4.4699,4.4891,4.5399,4.5788,4.6007,4.5821,4.5466,4.4942,4.4733,4.4615,4.4615,4.4615,4.4298,4.368,4.368,4.3871,4.417,4.4432,4.5277,4.6469,4.5783,4.5694,4.5974,4.5021,4.4615,4.4615,4.4615,4.4615,4.4615,4.4615,4.4615,4.4615,4.4615,4.4615,4.4615,4.4615,4.4615,4.4615,4.4615,4.4615,4.4637,4.4697,4.5244,4.577,4.5583,4.4747,4.4042,4.4409,4.3781,4.2747,4.1404,4.108,4.086,3.9955,3.9793,3.9702,3.9445,3.9388,3.9388,3.9388,3.9388,3.9388,3.9388,3.9388,3.9388,3.9388,3.9388,3.9388,3.9388,3.9388,3.9388,3.9388,3.8708,3.751,3.5735,3.5615,3.4979,3.3641,3.3598,3.3441,3.3124,3.37,3.3869,3.3598,3.4664,3.4979,3.4746,3.5734,3.6369,3.6682,3.6682,3.7098,3.7677,3.5882,3.54,3.5588,3.3784,3.3124,3.3124,3.3124,3.3124,3.3124,4.5838,4.5094,4.4615,4.4615,4.4615,4.4615,4.4615,4.4615,4.4615,4.4615,4.4615,4.4615,4.4615,4.4615,4.4615,4.4615,4.4993,4.5263,4.5263,4.5263,4.506,4.4632,4.4615,4.4615,4.4615,4.4253,4.3814,4.3306,4.2939,4.3249,4.4109,4.4461,4.5326,4.6469,4.6109,4.5855,4.5652,4.4891,4.4615,4.4615,4.4615,4.4615,4.4615,4.4615,4.4615,4.4615,4.4615,4.4615,4.4615,4.4615,4.4615,4.4615,4.4615,4.4355,4.4177,4.4601,4.4817,4.482,4.4646,4.3698,4.2765,4.2642,4.2119,4.1392,4.0401,4.0185,4.006,3.9517,3.9388,3.9388,3.9388,3.9388,3.9388,3.9388,3.9388,3.9388,3.9388,3.9388,3.9388,3.9388,3.9017,3.8782,3.8782,3.8616,3.8484,3.8484,3.7882,3.67,3.48,3.4705,3.4191,3.3111,3.3124,3.3124,3.3124,3.3124,3.3124,3.3124,3.3755,3.4079,3.4066,3.4692,3.5197,3.5628,3.5628,3.6186,3.7021,3.5373,3.5047,3.5426,3.3755,3.3124,3.3124,3.3124,3.3124,3.3124,4.5754,4.5043,4.4615,4.4615,4.4615,4.4615,4.4615,4.4615,4.4615,4.4615,4.4615,4.4615,4.4615,4.4615,4.4615,4.4615,4.4615,4.4615,4.4615,4.4615,4.4615,4.4615,4.4514,4.4514,4.4615,4.3814,4.3336,4.3169,4.2395,4.2653,4.3912,4.4756,4.5583,4.6321,4.6488,4.622,4.5568,4.4902,4.4615,4.4615,4.4615,4.4615,4.4615,4.4615,4.4615,4.4615,4.4615,4.4615,4.4615,4.4615,4.4615,4.4587,4.4514,4.3948,4.3556,4.4783,4.4609,4.3913,4.3738,4.319,4.2309,4.0768,3.9903,3.9388,3.9388,3.9388,3.9388,3.9388,3.9388,3.9388,3.9388,3.9388,3.9388,3.9388,3.9388,3.9388,3.9388,3.9388,3.9388,3.9388,3.8472,3.782,3.7877,3.7433,3.7125,3.6947,3.6947,3.6239,3.4662,3.4553,3.4108,3.3111,3.3124,3.3124,3.3124,3.3124,3.3124,3.3124,3.3124,3.3124,3.3124,3.3124,3.3641,3.4553,3.4553,3.5129,3.5974,3.4966,3.4622,3.4594,3.3513,3.3124,3.3124,3.3124,3.3124,3.3124,4.4976,4.4716,4.4615,4.4615,4.4615,4.4615,4.4615,4.4615,4.4615,4.4615,4.4615,4.4615,4.4615,4.4615,4.4615,4.4615,4.4615,4.4615,4.4615,4.4615,4.4615,4.4615,4.3948,4.3902,4.4587,4.4412,4.3634,4.2284,4.2093,4.2086,4.2225,4.2432,4.334,4.4776,4.4814,4.4836,4.4852,4.4682,4.4615,4.4615,4.4615,4.4615,4.4615,4.4615,4.4615,4.4615,4.4615,4.4615,4.4615,4.4615,4.4615,4.4485,4.3814,4.3456,4.3295,4.3305,4.3161,4.2978,4.2743,4.2229,4.149,4.0636,3.9903,3.9388,3.9388,3.9388,3.9388,3.9388,3.9388,3.9388,3.9388,3.9388,3.9388,3.9388,3.9388,3.9388,3.9388,3.9388,3.9388,3.9388,3.8472,3.7992,3.8443,3.8038,3.7207,3.5927,3.5858,3.5157,3.3539,3.3441,3.3356,3.3124,3.3124,3.3124,3.3124,3.3124,3.3124,3.3124,3.3124,3.3124,3.3124,3.3124,3.324,3.3441,3.3441,3.4066,3.4938,3.3869,3.3953,3.4594,3.3513,3.3124,3.3124,3.3124,3.3124,3.3124,4.475,4.4615,4.4615,4.4615,4.4615,4.4615,4.4615,4.4615,4.4615,4.4615,4.4615,4.4615,4.4615,4.4615,4.4615,4.4615,4.4615,4.4615,4.4615,4.4615,4.4615,4.4615,4.4088,4.4045,4.4587,4.4101,4.3235,4.1997,4.1576,4.1507,4.1728,4.1728,4.2689,4.4346,4.4346,4.4451,4.4615,4.4615,4.4615,4.4615,4.4615,4.4615,4.4615,4.4615,4.4615,4.4615,4.4615,4.4615,4.4542,4.4121,4.3977,4.3844,4.2939,4.2379,4.214,4.256,4.2421,4.2051,4.1941,4.1677,4.1145,4.0172,3.9679,3.9388,3.9388,3.9388,3.9388,3.9388,3.9388,3.9388,3.9388,3.9388,3.9388,3.9388,3.9388,3.9388,3.9388,3.9388,3.9228,3.8708,3.7701,3.6981,3.6794,3.6537,3.6013,3.5174,3.486,3.4272,3.3149,3.3124,3.3124,3.3124,3.3124,3.3124,3.3124,3.3124,3.3124,3.3124,3.3124,3.3124,3.3124,3.3124,3.3124,3.3124,3.3124,3.3441,3.3869,3.3313,3.3441,3.3869,3.3313,3.3124,3.3124,3.3124,3.3124,3.3124,4.4733,4.4615,4.4615,4.4615,4.4615,4.4615,4.4615,4.4615,4.4615,4.4615,4.4615,4.4615,4.4615,4.4615,4.4615,4.4615,4.4615,4.4542,4.4384,4.4384,4.4377,4.4335,4.4017,4.4054,4.4478,4.3362,4.2505,4.1997,4.1113,4.1019,4.1612,4.1612,4.2465,4.4009,4.4148,4.4275,4.4384,4.4542,4.4615,4.4615,4.4615,4.4514,4.4384,4.4542,4.4514,4.4384,4.4542,4.4514,4.4253,4.3366,4.3078,4.2925,4.2062,4.128,4.0904,4.1976,4.1808,4.1205,4.1205,4.1205,4.092,3.9723,3.9388,3.9388,3.9388,3.9388,3.9388,3.9388,3.9388,3.9388,3.9388,3.9388,3.9388,3.9388,3.9388,3.9337,3.9141,3.9141,3.8745,3.7663,3.6677,3.5679,3.4653,3.4663,3.4675,3.4587,3.4161,3.3658,3.3106,3.3124,3.3124,3.3124,3.3124,3.3124,3.3124,3.3124,3.3124,3.3124,3.3124,3.3124,3.3124,3.3124,3.3124,3.3124,3.3124,3.3124,3.3124,3.3124,3.3124,3.3124,3.3124,3.3124,3.3124,3.3124,3.3124,3.3124,4.4632,4.4615,4.4615,4.4615,4.4615,4.4615,4.4615,4.4615,4.4615,4.4615,4.4615,4.4615,4.4615,4.4615,4.4615,4.4615,4.4615,4.4281,4.3532,4.3472,4.3387,4.3235,4.2489,4.2706,4.4055,4.2619,4.1935,4.1997,4.1113,4.0771,4.0864,4.0864,4.1388,4.2366,4.3117,4.3465,4.3532,4.4281,4.4615,4.4615,4.4615,4.4167,4.3562,4.4327,4.4121,4.3562,4.4327,4.4138,4.3336,4.2458,4.2157,4.2029,4.1147,4.0777,4.0708,4.0716,4.0643,4.0531,4.0531,4.0531,4.0352,3.9604,3.9388,3.9388,3.9388,3.9388,3.9388,3.9388,3.9388,3.9388,3.9388,3.9388,3.9388,3.9388,3.9388,3.9068,3.8144,3.8032,3.7625,3.6526,3.5927,3.5185,3.4117,3.4449,3.4525,3.4048,3.3935,3.3658,3.3106,3.3124,3.3124,3.3124,3.3124,3.3124,3.3124,3.3124,3.3124,3.3124,3.3124,3.3124,3.3124,3.3124,3.3124,3.3124,3.3124,3.3124,3.3124,3.3124,3.3124,3.3124,3.3124,3.3124,3.3124,3.3124,3.3124,3.3124,4.4615,4.4615,4.4615,4.4615,4.4615,4.4615,4.4615,4.4615,4.4615,4.4615,4.4615,4.4615,4.4615,4.4615,4.4224,4.3213,4.3575,4.3486,4.2614,4.2924,4.3089,4.2988,4.2864,4.3169,4.3992,4.2386,4.1638,4.1844,4.1081,4.0466,3.9955,3.9955,4.0447,4.128,4.1674,4.2395,4.3336,4.371,4.415,4.4542,4.4064,4.3651,4.3306,4.3199,4.2909,4.2614,4.3,4.2909,4.2458,4.1576,4.128,4.1113,4.0255,3.9955,4.0021,4.0312,4.0397,4.0397,4.0397,4.0397,4.0247,3.9589,3.9388,3.9388,3.9388,3.9388,3.9388,3.9388,3.9388,3.9388,3.9388,3.9388,3.9177,3.8583,3.8509,3.8144,3.706,3.6891,3.654,3.548,3.4926,3.4428,3.3941,3.4123,3.4161,3.3922,3.3608,3.3332,3.3093,3.3124,3.3124,3.3124,3.3124,3.3124,3.3124,3.3124,3.3124,3.3124,3.3124,3.3124,3.3124,3.3124,3.3124,3.3124,3.3124,3.3124,3.3124,3.3124,3.3124,3.3124,3.3124,3.3124,3.3124,3.3124,3.3124,3.3124]}]]